[[{"header":{"parameterUnit":"m.s-1","parameterCategory":1,"la1":30.6,"la2":28.766,"lo1":-90.7593,"lo2":-88.6598,"dy":0.0162,"dx":0.0183,"nx":116,"ny":114,"refTime":"2023-05-03T00:00:00:Z","depth":0,"parameterNumber":2,"parameterNumberName":"U-component_of_WINDS"},"data":[0.0,0.0,0.0,0.0,0.0,0.0,0.0,0.0,0.0,0.0,0.0,0.0,0.0,0.0,0.0,0.0,0.0,0.0,0.0,0.0,0.0,0.0,0.0,0.0,0.0,0.0,0.0,0.0,0.0,0.0,0.0,0.0,0.0,0.0,0.0,0.0,0.0,0.0,0.0,0.0,0.0,0.0,0.0,0.0,0.0,0.0,0.0,0.0,0.0,0.0,0.0,0.0,0.0,0.0,0.0,0.0,0.0,0.0,0.0,0.0,0.0,0.0,0.0,0.0,0.0,0.0,0.0,0.0,0.0,0.0,0.0,0.0,0.0,0.0,0.0,0.0,0.0,0.0,0.0,0.0,0.0,0.0,0.0,0.0,0.0,0.0,0.0,0.0,0.0,0.0,0.0,0.0,0.0,0.0,0.0,0.0,0.0,0.0,0.0,0.0,0.0,0.0,0.0,0.0,0.0,0.0,0.0,0.0,0.0,0.0,0.0,0.0,0.0,0.0,0.0,0.0,0.0,0.0,0.0,0.0,0.0,0.0,0.0,0.0,0.0,0.0,0.0,0.0,0.0,0.0,0.0,0.0,0.0,0.0,0.0,0.0,0.0,0.0,0.0,0.0,0.0,0.0,0.0,0.0,0.0,0.0,0.0,0.0,0.0,0.0,0.0,0.0,0.0,0.0,0.0,0.0,0.0,0.0,0.0,0.0,0.0,0.0,0.0,0.0,0.0,0.0,0.0,0.0,0.0,0.0,0.0,0.0,0.0,0.0,0.0,0.0,0.0,0.0,0.0,0.0,0.0,0.0,0.0,0.0,0.0,0.0,0.0,0.0,0.0,0.0,0.0,0.0,0.0,0.0,0.0,0.0,0.0,0.0,0.0,0.0,0.0,0.0,0.0,0.0,0.0,0.0,0.0,0.0,0.0,0.0,0.0,0.0,0.0,0.0,0.0,0.0,0.0,0.0,0.0,0.0,0.0,0.0,0.0,0.0,0.0,0.0,0.0,0.0,0.0,0.0,0.0,0.0,0.0,0.0,0.0,0.0,0.0,0.0,0.0,0.0,0.0,0.0,0.0,0.0,0.0,0.0,0.0,0.0,0.0,0.0,0.0,0.0,0.0,0.0,0.0,0.0,0.0,0.0,0.0,0.0,0.0,0.0,0.0,0.0,0.0,0.0,0.0,0.0,0.0,0.0,0.0,0.0,0.0,0.0,0.0,0.0,0.0,0.0,0.0,0.0,0.0,0.0,0.0,0.0,0.0,0.0,0.0,0.0,0.0,0.0,0.0,0.0,0.0,0.0,0.0,0.0,0.0,0.0,0.0,0.0,0.0,0.0,0.0,0.0,0.0,0.0,0.0,0.0,0.0,0.0,0.0,0.0,0.0,0.0,0.0,0.0,0.0,0.0,0.0,0.0,0.0,0.0,0.0,0.0,0.0,0.0,0.0,0.0,0.0,0.0,0.0,0.0,0.0,0.0,0.0,0.0,0.0,0.0,0.0,0.0,0.0,0.0,0.0,0.0,0.0,0.0,0.0,0.0,0.0,0.0,0.0,0.0,0.0,0.0,0.0,0.0,0.0,0.0,0.0,0.0,0.0,0.0,0.0,0.0,0.0,0.0,0.0,0.0,0.0,0.0,0.0,0.0,0.0,0.0,0.0,0.0,0.0,0.0,0.0,0.0,0.0,0.0,0.0,0.0,0.0,0.0,0.0,0.0,0.0,0.0,0.0,0.0,0.0,0.0,0.0,0.0,0.0,0.0,0.0,0.0,0.0,0.0,0.0,0.0,0.0,0.0,0.0,0.0,0.0,0.0,0.0,0.0,0.0,0.0,0.0,0.0,0.0,0.0,0.0,0.0,0.0,0.0,0.0,0.0,0.0,0.0,0.0,0.0,0.0,0.0,0.0,0.0,0.0,0.0,0.0,0.0,0.0,0.0,0.0,0.0,0.0,0.0,0.0,0.0,0.0,0.0,0.0,0.0,0.0,0.0,0.0,0.0,0.0,0.0,0.0,0.0,0.0,0.0,0.0,0.0,0.0,0.0,0.0,0.0,0.0,0.0,0.0,0.0,0.0,0.0,0.0,0.0,0.0,0.0,0.0,0.0,0.0,0.0,0.0,0.0,0.0,0.0,0.0,0.0,0.0,0.0,0.0,0.0,0.0,0.0,0.0,0.0,0.0,0.0,0.0,0.0,0.0,0.0,0.0,0.0,0.0,0.0,0.0,0.0,0.0,0.0,0.0,0.0,0.0,0.0,0.0,0.0,0.0,0.0,0.0,0.0,0.0,0.0,0.0,0.0,0.0,0.0,0.0,0.0,0.0,0.0,0.0,0.0,0.0,0.0,0.0,0.0,0.0,0.0,0.0,0.0,0.0,0.0,0.0,0.0,0.0,0.0,0.0,0.0,0.0,0.0,0.0,0.0,0.0,0.0,0.0,0.0,0.0,0.0,0.0,0.0,0.0,0.0,0.0,0.0,0.0,0.0,0.0,0.0,0.0,0.0,0.0,0.0,0.0,0.0,0.0,0.0,0.0,0.0,0.0,0.0,0.0,0.0,0.0,0.0,0.0,0.0,0.0,0.0,0.0,0.0,0.0,0.0,0.0,0.0,0.0,0.0,0.0,0.0,0.0,0.0,0.0,0.0,0.0,0.0,0.0,0.0,0.0,0.0,0.0,0.0,0.0,0.0,0.0,0.0,0.0,0.0,0.0,0.0,0.0,0.0,0.0,0.0,0.0,0.0,0.0,0.0,0.0,0.0,0.0,0.0,0.0,0.0,0.0,0.0,0.0,0.0,0.0,0.0,0.0,0.0,0.0,0.0,0.0,0.0,0.0,0.0,0.0,0.0,0.0,0.0,0.0,0.0,0.0,0.0,0.0,0.0,0.0,0.0,0.0,0.0,0.0,0.0,0.0,0.0,0.0,0.0,0.0,0.0,0.0,0.0,0.0,0.0,0.0,0.0,0.0,0.0,0.0,0.0,0.0,0.0,0.0,0.0,0.0,0.0,0.0,0.0,0.0,0.0,0.0,0.0,0.0,0.0,0.0,0.0,0.0,0.0,0.0,0.0,0.0,0.0,0.0,0.0,0.0,0.0,0.0,0.0,0.0,0.0,0.0,0.0,0.0,0.0,0.0,0.0,0.0,0.0,0.0,0.0,0.0,0.0,0.0,0.0,0.0,0.0,0.0,0.0,0.0,0.0,0.0,0.0,0.0,0.0,0.0,0.0,0.0,0.0,0.0,0.0,0.0,0.0,0.0,0.0,0.0,0.0,0.0,0.0,0.0,0.0,0.0,0.0,0.0,0.0,0.0,0.0,0.0,0.0,0.0,0.0,0.0,0.0,0.0,0.0,0.0,0.0,0.0,0.0,0.0,0.0,0.0,0.0,0.0,0.0,0.0,0.0,0.0,0.0,0.0,0.0,0.0,0.0,0.0,0.0,0.0,0.0,0.0,0.0,0.0,0.0,0.0,0.0,0.0,0.0,0.0,0.0,0.0,0.0,0.0,0.0,0.0,0.0,0.0,0.0,0.0,0.0,0.0,0.0,0.0,0.0,0.0,0.0,0.0,0.0,0.0,0.0,0.0,0.0,0.0,0.0,0.0,0.0,0.0,0.0,0.0,0.0,0.0,0.0,0.0,0.0,0.0,0.0,0.0,0.0,0.0,0.0,0.0,0.0,0.0,0.0,0.0,0.0,0.0,0.0,0.0,0.0,0.0,0.0,0.0,0.0,0.0,0.0,0.0,0.0,0.0,0.0,0.0,0.0,0.0,0.0,0.0,0.0,0.0,0.0,0.0,0.0,0.0,0.0,0.0,0.0,0.0,0.0,0.0,0.0,0.0,0.0,0.0,0.0,0.0,0.0,0.0,0.0,0.0,0.0,0.0,0.0,0.0,0.0,0.0,0.0,0.0,0.0,0.0,0.0,0.0,0.0,0.0,0.0,0.0,0.0,0.0,0.0,0.0,0.0,0.0,0.0,0.0,0.0,0.0,0.0,0.0,0.0,0.0,0.0,0.0,0.0,0.0,0.0,0.0,0.0,0.0,0.0,0.0,0.0,0.0,0.0,0.0,0.0,0.0,0.0,0.0,0.0,0.0,0.0,0.0,0.0,0.0,0.0,0.0,0.0,0.0,0.0,0.0,0.0,0.0,0.0,0.0,0.0,0.0,0.0,0.0,0.0,0.0,0.0,0.0,0.0,0.0,0.0,0.0,0.0,0.0,0.0,0.0,0.0,0.0,0.0,0.0,0.0,0.0,0.0,0.0,0.0,0.0,0.0,0.0,0.0,0.0,0.0,0.0,0.0,0.0,0.0,0.0,0.0,0.0,0.0,0.0,0.0,0.0,0.0,0.0,0.0,0.0,0.0,0.0,0.0,0.0,0.0,0.0,0.0,0.0,0.0,0.0,0.0,0.0,0.0,0.0,0.0,0.0,0.0,0.0,0.0,0.0,0.0,0.0,0.0,0.0,0.0,0.0,0.0,0.0,0.0,0.0,0.0,0.0,0.0,0.0,0.0,0.0,0.0,0.0,0.0,0.0,0.0,0.0,0.0,0.0,0.0,0.0,0.0,0.0,0.0,0.0,0.0,0.0,0.0,0.0,0.0,0.0,0.0,0.0,0.0,0.0,0.0,0.0,0.0,0.0,0.0,0.0,0.0,0.0,0.0,0.0,0.0,0.0,0.0,0.0,0.0,0.0,0.0,0.0,0.0,0.0,0.0,0.0,0.0,0.0,0.0,0.0,0.0,0.0,0.0,0.0,0.0,0.0,0.0,0.0,0.0,0.0,0.0,0.0,0.0,0.0,0.0,0.0,0.0,0.0,0.0,0.0,0.0,0.0,0.0,0.0,0.0,0.0,0.0,0.0,0.0,0.0,0.0,0.0,0.0,0.0,0.0,0.0,0.0,0.0,0.0,0.0,0.0,0.0,0.0,0.0,0.0,0.0,0.0,0.0,0.0,0.0,0.0,0.0,0.0,0.0,0.0,0.0,0.0,0.0,0.0,0.0,0.0,0.0,0.0,0.0,0.0,0.0,0.0,0.0,0.0,0.0,0.0,0.0,0.0,0.0,0.0,0.0,0.0,0.0,0.0,0.0,0.0,0.0,0.0,0.0,0.0,0.0,0.0,0.0,0.0,0.0,0.0,0.0,0.0,0.0,0.0,0.0,0.0,0.0,0.0,0.0,0.0,0.0,0.0,0.0,0.0,0.0,0.0,0.0,0.0,0.0,0.0,0.0,0.0,0.0,0.0,0.0,0.0,0.0,0.0,0.0,0.0,0.0,0.0,0.0,0.0,0.0,0.0,0.0,0.0,0.0,0.0,0.0,0.0,0.0,0.0,0.0,0.0,0.0,0.0,0.0,0.0,0.0,0.0,0.0,0.0,0.0,0.0,0.0,0.0,0.0,0.0,0.0,0.0,0.0,0.0,0.0,0.0,0.0,0.0,0.0,0.0,0.0,0.0,0.0,0.0,0.0,0.0,0.0,0.0,0.0,0.0,0.0,0.0,0.0,0.0,0.0,0.0,0.0,0.0,0.0,0.0,0.0,0.0,0.0,0.0,0.0,0.0,0.0,0.0,0.0,0.0,0.0,0.0,0.0,0.0,0.0,0.0,0.0,0.0,0.0,0.0,0.0,0.0,0.0,0.0,0.0,0.0,0.0,0.0,0.0,0.0,0.0,0.0,0.0,0.0,0.0,0.0,0.0,0.0,0.0,0.0,0.0,0.0,0.0,0.0,0.0,0.0,0.0,0.0,0.0,0.0,0.0,0.0,0.0,0.0,0.0,0.0,0.0,0.0,0.0,0.0,0.0,0.0,0.0,0.0,0.0,0.0,0.0,0.0,0.0,0.0,0.0,0.0,0.0,0.0,0.0,0.0,0.0,0.0,0.0,0.0,0.0,0.0,0.0,0.0,0.0,0.0,0.0,0.0,0.0,0.0,0.0,0.0,0.0,0.0,0.0,0.0,0.0,0.0,0.0,0.0,0.0,0.0,0.0,0.0,0.0,0.0,0.0,0.0,0.0,0.0,0.0,0.0,0.0,0.0,0.0,0.0,0.0,0.0,0.0,0.0,0.0,0.0,0.0,0.0,0.0,0.0,-4.4615,0.0,0.0,0.0,0.0,0.0,0.0,0.0,0.0,0.0,0.0,0.0,0.0,0.0,0.0,0.0,0.0,0.0,0.0,0.0,0.0,0.0,0.0,0.0,0.0,0.0,0.0,0.0,0.0,0.0,0.0,0.0,0.0,0.0,0.0,0.0,0.0,0.0,0.0,0.0,-3.9388,-3.9388,-3.9388,-3.9388,-3.9388,-3.9388,0.0,0.0,0.0,0.0,0.0,0.0,0.0,0.0,0.0,0.0,0.0,0.0,0.0,0.0,0.0,0.0,0.0,0.0,0.0,0.0,0.0,0.0,0.0,0.0,0.0,0.0,0.0,0.0,0.0,0.0,0.0,0.0,0.0,0.0,0.0,0.0,0.0,0.0,0.0,0.0,0.0,0.0,0.0,0.0,0.0,0.0,0.0,0.0,0.0,0.0,0.0,0.0,0.0,0.0,0.0,0.0,0.0,0.0,0.0,0.0,0.0,0.0,0.0,0.0,0.0,0.0,0.0,0.0,0.0,0.0,0.0,-4.4615,0.0,0.0,0.0,0.0,0.0,0.0,0.0,0.0,0.0,0.0,0.0,0.0,0.0,0.0,0.0,0.0,0.0,0.0,0.0,0.0,0.0,0.0,0.0,0.0,0.0,0.0,0.0,0.0,0.0,0.0,0.0,0.0,0.0,0.0,0.0,-3.9388,-3.9388,-3.9388,-3.9388,-3.9388,-3.9388,-3.9388,-3.9388,-3.9388,-3.9388,0.0,0.0,0.0,0.0,0.0,0.0,0.0,0.0,0.0,0.0,0.0,0.0,0.0,0.0,0.0,0.0,0.0,0.0,0.0,0.0,0.0,0.0,0.0,0.0,0.0,0.0,0.0,0.0,0.0,0.0,0.0,0.0,0.0,0.0,0.0,0.0,0.0,0.0,0.0,0.0,0.0,0.0,0.0,0.0,0.0,0.0,0.0,0.0,0.0,0.0,0.0,0.0,0.0,0.0,0.0,0.0,0.0,0.0,0.0,0.0,0.0,0.0,0.0,-4.4615,-4.4615,-4.4615,-4.4615,-4.4615,-4.4615,-4.4615,-4.4615,-4.4615,-4.4615,0.0,0.0,0.0,0.0,0.0,0.0,0.0,0.0,0.0,0.0,0.0,0.0,0.0,0.0,0.0,0.0,0.0,0.0,0.0,0.0,0.0,0.0,-3.5504,-3.5504,-3.5504,-3.5504,0.0,0.0,0.0,0.0,0.0,0.0,-3.9373,-3.9388,-3.9388,-3.9388,-3.9388,-3.9388,-3.9388,-3.9388,-3.9388,-3.9388,-3.9388,-3.9388,-3.9388,0.0,0.0,0.0,0.0,0.0,0.0,0.0,0.0,0.0,0.0,0.0,0.0,0.0,0.0,0.0,0.0,0.0,0.0,0.0,0.0,0.0,0.0,0.0,0.0,0.0,0.0,0.0,0.0,0.0,0.0,0.0,0.0,0.0,0.0,0.0,0.0,0.0,0.0,0.0,0.0,0.0,-4.4615,-4.4615,0.0,0.0,0.0,0.0,0.0,0.0,0.0,0.0,0.0,0.0,0.0,0.0,0.0,-4.4615,-4.4615,-4.4615,-4.4615,-4.4615,-4.4615,-4.4615,-4.4615,-4.4615,-4.4615,-4.4615,-4.4615,0.0,-4.4615,-4.4615,0.0,0.0,0.0,0.0,0.0,0.0,0.0,0.0,0.0,0.0,0.0,0.0,0.0,0.0,0.0,0.0,0.0,0.0,0.0,0.0,0.0,-3.5504,-3.5504,-3.5504,-3.5504,-3.5504,-3.5504,0.0,0.0,0.0,0.0,-3.8153,-3.8826,-3.923,-3.9388,-3.9388,-3.9388,-3.9388,-3.9388,-3.9388,-3.9388,-3.9388,-3.9388,-3.9388,-3.9388,-3.9388,0.0,0.0,0.0,0.0,0.0,0.0,0.0,0.0,0.0,0.0,0.0,0.0,0.0,0.0,0.0,0.0,0.0,0.0,0.0,0.0,0.0,0.0,0.0,0.0,0.0,0.0,0.0,0.0,0.0,0.0,0.0,0.0,0.0,0.0,0.0,0.0,0.0,0.0,0.0,-4.241,-4.4615,-4.4615,-4.2862,-4.2442,0.0,0.0,0.0,0.0,0.0,0.0,0.0,0.0,0.0,-4.4615,-4.4615,-4.4615,-4.4615,-4.4615,-4.4615,-4.4615,-4.4615,-4.4615,-4.4615,-4.4615,-4.4765,-4.5022,-4.4737,-4.4615,-4.4615,-4.4615,-4.4615,-4.4615,0.0,0.0,0.0,0.0,-4.4615,-4.4615,0.0,0.0,0.0,0.0,0.0,0.0,0.0,0.0,0.0,0.0,0.0,0.0,-3.5504,-3.5504,-3.5504,-3.5504,-3.5504,-3.5504,-3.5504,0.0,0.0,0.0,-3.7075,-3.7719,-3.8377,-3.9065,-3.9388,-3.9388,-3.9388,-3.9388,-3.9388,-3.9388,-3.9388,-3.9388,-3.9388,-3.9388,-3.9388,-3.9388,-3.9388,-3.9388,0.0,0.0,0.0,0.0,0.0,0.0,0.0,0.0,0.0,0.0,0.0,0.0,0.0,0.0,0.0,0.0,0.0,0.0,0.0,0.0,0.0,0.0,0.0,0.0,0.0,0.0,0.0,0.0,0.0,0.0,0.0,0.0,0.0,0.0,0.0,0.0,0.0,-4.1642,-4.3273,-4.3273,-4.1772,-4.1739,0.0,0.0,0.0,0.0,0.0,0.0,-4.4615,-4.4615,-4.4615,-4.4615,-4.5343,-4.572,-4.572,-4.572,-4.572,-4.572,-4.572,-4.572,-4.572,-4.572,-4.5932,-4.6306,-4.5903,-4.572,-4.5681,-4.4919,-4.4615,-4.4615,-4.4615,-4.4615,-4.4615,-4.4615,-4.4615,-4.4615,0.0,0.0,0.0,0.0,0.0,0.0,0.0,0.0,0.0,0.0,0.0,-3.5504,-3.5504,-3.5504,-3.5504,-3.5504,-3.5504,-3.5504,-3.5504,-3.5504,-3.5804,-3.6462,-3.7075,-3.7719,-3.8377,-3.9065,-3.9388,-3.9388,-3.9388,-3.9388,-3.9388,-3.9388,-3.9388,-3.9388,-3.9388,-3.9388,-3.9388,-3.9388,-3.9388,-3.9388,-3.9388,0.0,0.0,0.0,0.0,0.0,0.0,0.0,0.0,0.0,0.0,0.0,0.0,0.0,0.0,0.0,0.0,0.0,0.0,0.0,0.0,0.0,0.0,0.0,0.0,0.0,0.0,0.0,0.0,0.0,0.0,0.0,0.0,0.0,0.0,0.0,0.0,0.0,0.0,-3.9646,-4.241,0.0,0.0,0.0,0.0,-3.99,-4.2738,-4.4615,-4.4615,-4.4615,-4.4615,-4.4615,-4.731,-4.8781,-4.8781,-4.8781,-4.8781,-4.8781,-4.8781,-4.8781,-4.8781,-4.8781,-4.8781,-4.8812,-4.8781,-4.8781,-4.8562,-4.5766,-4.4615,-4.4615,-4.4615,-4.4615,-4.4615,-4.4615,-4.4615,-4.4615,0.0,0.0,0.0,0.0,0.0,0.0,0.0,0.0,0.0,-3.5504,-3.5504,-3.5504,-3.5504,-3.5504,-3.5504,-3.5504,-3.5504,-3.5504,-3.5504,-3.5504,-3.5609,-3.5848,-3.6851,-3.7928,-3.9035,-3.929,-3.9388,-3.9388,-3.9388,-3.9388,-3.9388,-3.9388,-3.9388,-3.9388,-3.9388,-3.9388,-3.9388,-3.9388,-3.9388,-3.9388,-3.9388,-3.9388,0.0,0.0,0.0,0.0,0.0,0.0,0.0,0.0,0.0,0.0,0.0,0.0,0.0,0.0,0.0,0.0,0.0,0.0,0.0,0.0,0.0,0.0,0.0,0.0,0.0,0.0,0.0,0.0,0.0,0.0,0.0,0.0,0.0,0.0,0.0,0.0,0.0,-3.9388,-4.2473,0.0,-4.1478,-4.1247,-4.074,-3.9481,-4.4399,-4.6359,-4.3886,-4.376,-4.4889,-4.7352,-4.846,-4.9001,-4.9001,-4.9001,-4.9001,-4.9001,-4.9001,-4.9001,-4.9001,-4.9001,-4.9001,-4.9001,-4.9001,-4.9001,-4.8917,-4.7868,-4.7428,-4.7242,-4.5359,-4.4615,-4.4615,-4.4615,-4.4615,-4.4615,0.0,0.0,0.0,0.0,0.0,0.0,0.0,0.0,0.0,-3.5504,-3.5504,-3.5504,-3.5504,-3.5504,-3.5504,-3.5504,-3.5504,-3.5504,-3.5504,-3.5714,-3.5833,-3.5833,-3.706,-3.8272,-3.9394,-3.9388,-3.9388,-3.9388,-3.9388,-3.9388,-3.9388,-3.9388,-3.9388,-3.9388,-3.9388,-3.9388,-3.9388,-3.9388,-3.9388,-3.9388,-3.9388,-3.9388,-3.9388,0.0,0.0,0.0,0.0,0.0,0.0,0.0,0.0,0.0,0.0,0.0,0.0,0.0,0.0,0.0,0.0,0.0,0.0,0.0,0.0,0.0,0.0,0.0,0.0,0.0,0.0,0.0,0.0,0.0,0.0,0.0,0.0,0.0,0.0,-3.9388,-3.9388,-3.9388,-4.1445,-4.2268,-4.0843,-4.0704,-4.0704,-4.0704,-4.4681,-4.598,-4.3433,-4.329,-4.501,-4.8748,-4.994,-5.0524,-5.0524,-5.0524,-5.0524,-5.0524,-5.0524,-5.0524,-5.0524,-5.0524,-5.0524,-5.0524,-5.0524,-4.9949,-4.9001,-4.9001,-4.9001,-4.8846,-4.7117,-4.6419,-4.6419,-4.6419,-4.5744,-4.4875,0.0,0.0,0.0,0.0,0.0,0.0,0.0,0.0,-3.5504,-3.5504,-3.5504,-3.5504,-3.5504,-3.5504,-3.5504,-3.5504,-3.5504,-3.5504,-3.5504,-3.6118,-3.6507,-3.6552,-3.7734,-3.8706,-3.9373,-3.9388,-3.9388,-3.9388,-3.9388,-3.9388,-3.9388,-3.9409,-3.9424,-3.9424,-3.9424,-3.9424,-3.9424,-3.9424,-3.9424,-3.9388,-3.9388,-3.9388,-3.9388,0.0,0.0,0.0,0.0,0.0,0.0,0.0,0.0,0.0,0.0,0.0,0.0,0.0,0.0,0.0,0.0,0.0,0.0,0.0,0.0,0.0,0.0,0.0,0.0,0.0,0.0,0.0,0.0,0.0,0.0,0.0,0.0,0.0,-3.9388,-3.9388,-3.9418,-3.9493,-3.9508,-4.0509,-4.305,-4.329,-4.329,-4.329,-4.3404,-4.3464,-4.3464,-4.3464,-4.5022,-4.8486,-5.1789,-5.3501,-5.3501,-5.3501,-5.3501,-5.3501,-5.3501,-5.3501,-5.3501,-5.3501,-5.3501,-5.3501,-5.3501,-5.1843,-4.9137,-4.9137,-4.9086,-4.9063,-4.973,-5.0011,-5.0011,-5.0011,-4.8114,-4.5535,0.0,0.0,0.0,0.0,0.0,0.0,0.0,-3.5975,-3.5504,-3.5504,-3.5504,-3.5504,-3.5504,-3.5504,-3.5504,-3.5504,-3.5504,-3.5504,-3.5504,-3.6118,-3.6896,-3.7823,-3.8197,-3.8706,-3.9373,-3.9388,-3.9388,-3.9388,-3.9388,-3.9388,-3.9409,-3.995,-3.9985,-3.9661,-4.0111,-4.0076,-3.9625,-3.9783,-3.9676,-3.9388,-3.9388,-3.9388,-3.9388,0.0,0.0,0.0,0.0,0.0,0.0,0.0,0.0,0.0,0.0,0.0,0.0,0.0,0.0,0.0,0.0,0.0,0.0,0.0,0.0,0.0,0.0,0.0,0.0,0.0,0.0,0.0,0.0,0.0,0.0,0.0,-3.9388,-3.9388,-3.9388,-3.9388,-4.0091,-4.1989,-4.2213,-4.2497,-4.323,-4.329,-4.329,-4.329,-4.5708,-4.7129,-4.7129,-4.7129,-4.7604,-4.8547,-5.1789,-5.3501,-5.3501,-5.3501,-5.3501,-5.3501,-5.3501,-5.3501,-5.3501,-5.3501,-5.3501,-5.3501,-5.3501,-5.3044,-5.2266,-5.2266,-5.098,-4.9063,-4.973,-5.0011,-5.0011,-5.0011,-4.9476,-4.8752,0.0,0.0,0.0,0.0,0.0,0.0,0.0,-3.618,-3.5504,-3.5504,-3.5504,-3.5504,-3.5504,-3.5504,-3.5504,-3.5504,-3.5504,-3.5504,-3.5504,-3.6357,-3.7464,-3.8766,-3.8826,-3.9005,-3.9373,-3.9388,-3.9388,-3.9388,-3.9481,-3.9681,-3.9955,-4.0478,-4.0703,-4.0687,-4.1078,-4.0891,-4.025,-4.037,-4.0106,-3.964,-3.964,-3.9568,-3.9388,-3.9388,-3.9388,-3.9388,-3.9388,-3.9388,-3.9388,-3.9388,0.0,0.0,0.0,0.0,0.0,0.0,0.0,0.0,0.0,0.0,0.0,0.0,0.0,0.0,0.0,0.0,0.0,0.0,0.0,0.0,0.0,0.0,0.0,0.0,-4.03,-4.1017,-4.1017,-4.1017,-4.1586,-4.311,-4.3606,-4.384,-4.384,-4.484,-4.5506,-4.5506,-4.7441,-4.862,-4.862,-4.862,-4.862,-4.862,-5.0445,-5.1443,-5.1443,-5.2817,-5.3501,-5.3501,-5.3501,-5.3501,-5.3501,-5.3501,-5.3501,0.0,-5.3501,-5.3501,-5.3501,-5.3501,-5.2469,0.0,0.0,0.0,0.0,0.0,-5.0011,-5.0011,0.0,0.0,0.0,0.0,0.0,0.0,0.0,-3.6692,-3.5733,-3.5651,-3.5619,-3.5587,-3.5504,-3.5504,-3.5504,-3.5504,-3.5504,-3.5564,-3.5714,-3.6776,-3.8018,-3.9328,-3.9409,-3.9409,-3.9409,-3.9409,-3.9445,-3.946,-3.9681,-4.013,-4.0724,-4.1078,-4.1494,-4.2029,-4.2125,-4.1788,-4.1127,-4.1093,-4.0699,-4.0101,-4.0066,-3.9818,-3.946,-3.946,-3.946,-3.9388,-3.9388,-3.9388,-3.9388,-3.9388,0.0,0.0,0.0,0.0,0.0,0.0,0.0,0.0,0.0,0.0,0.0,0.0,0.0,0.0,0.0,0.0,0.0,0.0,0.0,0.0,0.0,0.0,0.0,0.0,-4.178,-4.329,-4.329,-4.3624,-4.3778,-4.3478,-4.441,-4.5033,-4.5033,-4.7204,-4.862,-4.862,-4.862,-4.862,-4.862,0.0,0.0,0.0,0.0,-4.862,-4.862,-5.148,-5.3127,-5.3501,-5.3501,-5.3501,-5.3501,-5.3501,-5.3501,-5.3484,-5.3145,-5.2993,-5.2993,-5.2993,-5.2993,-5.2739,-5.005,-4.9001,-4.9063,-4.9759,-5.0011,0.0,0.0,0.0,0.0,0.0,0.0,0.0,0.0,-3.7933,-3.7115,-3.6477,-3.6384,-3.6165,-3.5554,-3.5504,-3.5504,-3.5504,-3.5504,-3.5953,-3.6971,-3.727,-3.8018,-3.9328,-3.9553,-3.9661,-3.9661,-3.9661,-3.9732,-3.9889,-4.0289,-4.0638,-4.0959,-4.2093,-4.2473,-4.2269,-4.2816,-4.2693,-4.2013,-4.1575,-4.1176,-4.0786,-4.0385,-4.0101,-3.9889,-3.9889,-3.9676,-3.9388,-3.9388,-3.9388,-3.9388,-3.9388,-3.9388,-3.9388,-3.9388,-3.9388,0.0,0.0,0.0,0.0,0.0,0.0,0.0,0.0,0.0,0.0,0.0,0.0,0.0,0.0,0.0,0.0,0.0,0.0,0.0,-4.2183,-4.2961,-4.329,-4.329,-4.5769,-4.6777,-4.4603,-4.6416,-4.7835,-4.7835,-4.8312,-4.862,-4.862,-4.862,-4.862,-4.862,-4.862,-4.862,-4.862,-4.862,-4.862,-4.862,-4.9228,-5.0865,-5.3501,0.0,0.0,-5.3501,-5.3501,-5.3501,-5.3365,-5.093,-4.9881,-4.9881,-4.9881,-4.9881,-4.9813,-4.9238,-4.9001,-4.9063,-4.9759,-5.0011,-5.0011,0.0,0.0,0.0,0.0,0.0,0.0,0.0,-3.8274,-3.7661,-3.7233,-3.7203,-3.704,-3.6692,-3.6662,-3.6662,-3.6662,-3.6581,-3.6951,-3.7956,-3.7944,-3.8542,-3.998,-4.015,-4.0413,-4.0842,-4.0531,-4.0566,-4.1008,-4.0992,-4.1411,-4.2189,-4.2923,-4.3333,-4.3456,-4.3814,-4.3545,-4.2892,-4.2614,-4.2205,-4.1706,-4.1109,-4.0836,-4.0699,-4.0071,-3.9732,-3.9589,-3.946,-3.9388,-3.9388,-3.9388,-3.9388,-3.9388,-3.9388,-3.9388,-3.9388,0.0,0.0,0.0,0.0,0.0,0.0,0.0,0.0,0.0,0.0,0.0,0.0,0.0,0.0,-3.9792,-4.1092,0.0,-4.1765,-4.308,-4.329,-4.3913,-4.5723,-4.7471,-4.8112,-4.6757,-4.7788,-4.862,-4.862,-4.862,-4.862,-4.862,-4.862,-4.862,-4.862,-4.862,-4.862,-4.862,-4.862,-4.862,-4.862,-4.862,-4.9414,-5.1054,-5.2696,-5.3501,-5.3501,-5.3501,-5.3501,-5.3331,-5.0321,-4.9001,-4.9001,-4.9001,-4.9001,-4.9001,-4.9001,-4.9001,-4.9032,-4.9385,-4.973,-5.0011,0.0,0.0,0.0,0.0,0.0,0.0,0.0,0.0,0.0,-3.8035,-3.8007,-3.795,-3.7822,-3.7793,-3.7793,-3.7793,-3.7697,-3.79,-3.8548,-3.864,-3.9275,-4.0625,-4.0878,-4.1346,-4.2029,-4.1542,-4.1526,-4.2093,-4.1836,-4.2253,-4.335,-4.3588,-4.4047,-4.4615,-4.4615,-4.4281,-4.3706,-4.3571,-4.3196,-4.2629,-4.1836,-4.1492,-4.1327,-4.0181,-3.9768,-3.9768,-3.9604,-3.946,-3.9388,-3.9388,-3.9388,-3.9388,-3.9388,-3.9388,-3.9388,-3.9388,-3.9388,0.0,0.0,0.0,0.0,0.0,0.0,0.0,0.0,-3.9388,-3.9388,-3.9388,-3.9792,-4.0793,-4.2901,-4.329,-4.329,-4.329,-4.3723,-4.5126,-4.8173,-4.862,-4.862,-4.862,-4.862,-4.862,-4.862,-4.862,-4.862,-4.862,-4.862,-4.862,-4.862,-4.862,-4.862,-4.862,-4.862,-4.862,-4.862,-4.862,-4.862,-4.8646,-5.1443,-5.3058,-5.3501,-5.3501,-5.3501,-5.3331,-5.0321,-4.9001,-4.9001,-4.9001,-4.9001,-4.9001,-4.9001,-4.9001,-4.9001,-4.9001,-4.9354,-4.9818,0.0,0.0,0.0,0.0,0.0,0.0,0.0,0.0,0.0,-3.8854,-3.8772,-3.8525,-3.7863,-3.7793,-3.7793,-3.7793,-3.7697,-3.79,-3.8548,-3.9212,-3.991,-4.0659,-4.1609,-4.2173,-4.2269,-4.2205,-4.2269,-4.2442,-4.2878,-4.3229,-4.3482,-4.4179,-4.4514,-4.4615,-4.4615,-4.4542,-4.444,-4.3781,-4.3453,-4.3287,-4.2013,-4.1426,-4.1209,-4.0316,-3.9889,-3.9803,-3.9889,-3.9711,-3.9388,-3.9388,-3.9388,-3.9388,-3.9388,-3.9388,-3.9388,-3.9388,-3.9388,-3.9388,-3.9388,-3.9388,-3.9388,-3.9388,-3.9388,-3.9388,0.0,-3.9388,-3.9388,-3.9388,-4.1242,-4.2946,-4.3245,-4.329,-4.329,-4.329,-4.5319,-4.7249,-4.8449,-4.862,-4.862,-4.862,-4.862,-4.862,-4.862,-4.862,-4.862,-4.862,-4.862,-4.862,-4.862,-4.862,-4.862,-4.862,-4.862,-4.862,-4.862,-4.862,-4.862,-4.8604,-4.9781,-5.1417,-5.3501,-5.3501,-5.3501,-5.3331,-5.0321,-4.9001,-4.9001,-4.9001,-4.9001,-4.9001,-4.9001,-4.9001,-4.9001,-4.9001,-4.9032,-4.9202,0.0,0.0,0.0,0.0,0.0,0.0,0.0,0.0,0.0,0.0,0.0,-3.9964,-3.9222,-3.9146,-3.9146,-3.9146,-3.941,-3.97,-3.9991,-4.0642,-4.1389,-4.2189,-4.2645,-4.3108,-4.3621,-4.3213,-4.3243,-4.3739,-4.3634,-4.381,-4.4276,-4.4648,-4.4831,-4.4831,-4.4831,-4.4831,-4.4803,-4.4502,-4.4356,-4.4243,-4.2831,-4.2221,-4.1997,-4.0543,-4.0031,-4.0016,-3.9747,-3.9532,0.0,-3.9388,-3.9388,-3.9388,-3.9388,-3.9388,-3.9388,-3.9388,-3.9388,-3.9388,-3.9388,-3.9388,-3.9388,-3.9388,-3.9388,-3.9792,-4.1316,-4.166,-4.166,-4.166,-4.2527,-4.329,-4.329,-4.329,-4.3798,-4.5394,-4.6576,-4.7581,-4.8495,-4.862,-4.862,-4.862,-4.862,-4.862,-4.862,-4.862,-4.862,-4.862,-4.862,-4.862,-4.862,-4.9056,-4.9097,-4.862,-4.862,-4.8852,-4.9356,-4.9356,-4.9356,-4.934,-4.9717,-5.0448,-5.1455,-5.2868,-5.3501,-5.3331,-5.0321,-4.9001,-4.9001,-4.9001,-4.9001,-4.9001,-4.9001,-4.9001,-4.9001,-4.9001,-4.9001,-4.9032,0.0,0.0,0.0,0.0,0.0,0.0,0.0,0.0,0.0,0.0,0.0,0.0,0.0,-4.0722,-4.0722,-4.0722,-4.1095,-4.1338,-4.1338,-4.1994,-4.2645,-4.3276,-4.3532,-4.3931,-4.4587,-4.4076,-4.4076,-4.4615,-4.4207,-4.4265,-4.4765,-4.4886,-4.4923,-4.4968,-4.4978,-4.4978,-4.4923,-4.4923,-4.4923,-4.4786,-4.3482,-4.2847,-4.2395,-4.0854,-4.0156,-3.9945,-3.9532,-3.9388,-3.9388,-3.9388,-3.9388,-3.9388,-3.9388,-3.9388,-3.9388,-3.9388,-3.9388,-3.9388,-3.9388,-3.9388,-3.9553,-4.0285,-4.0464,-4.0958,-4.2856,-4.329,-4.329,-4.329,-4.329,-4.329,-4.329,-4.3888,-4.5065,-4.6995,-4.7309,-4.7581,-4.8495,-4.862,-4.862,-4.862,-4.862,-4.862,-4.862,-4.862,-4.862,-4.862,-4.862,-4.8687,-4.8949,-4.9557,-4.9597,-4.899,-4.8934,-4.9259,-4.9876,-4.9876,-4.9876,-4.9876,-4.9876,-4.9876,-4.9995,-5.2378,-5.3501,-5.3331,-5.0321,-4.9001,-4.9001,-4.9001,-4.9001,-4.9001,-4.9001,-4.9001,-4.9001,-4.9001,-4.9001,-4.9001,0.0,0.0,0.0,0.0,0.0,0.0,0.0,0.0,0.0,0.0,0.0,0.0,0.0,-4.2219,-4.2219,-4.2219,-4.2187,-4.2169,-4.2169,-4.2848,-4.3276,-4.3306,-4.4109,-4.457,-4.4615,-4.457,-4.457,-4.4615,-4.457,-4.4587,-4.4598,-4.472,-4.4803,-4.4803,-4.4923,-4.494,-4.4803,-4.4803,-4.4737,-4.4542,-4.3764,-4.2876,-4.1933,-4.1245,-4.032,-3.9409,-3.9424,-3.9388,-3.9388,-3.9388,-3.9388,-3.9388,-3.9388,-3.9388,-3.9388,-3.9388,-3.9388,-3.9388,-3.9388,-3.9388,-4.0001,-4.2542,-4.317,-4.32,-4.3275,-4.329,-4.329,-4.329,-4.329,-4.329,-4.329,-4.5439,-4.7219,-4.7294,-4.7309,-4.7581,-4.8495,-4.862,-4.862,-4.862,-4.862,-4.862,-4.862,-4.862,-4.862,-4.862,-4.862,-4.899,-4.9797,-4.9892,-4.9892,-4.9876,-4.9876,-4.9876,-4.9876,-4.9876,-4.9876,-4.9876,-4.9876,-4.9876,-4.9995,-5.2378,-5.3501,-5.3331,-5.0321,-4.9001,-4.9001,-4.9001,-4.9001,-4.9001,-4.9001,-4.9001,-4.9001,-4.9001,-4.9001,-4.9001,0.0,0.0,0.0,0.0,0.0,0.0,0.0,0.0,0.0,0.0,0.0,0.0,0.0,0.0,0.0,0.0,-4.2745,-4.2998,-4.2998,-4.3731,-4.4167,-4.4167,-4.444,-4.4615,-4.4615,-4.4615,-4.4615,-4.4615,-4.4682,-4.472,-4.4737,-4.4886,-4.4923,-4.4923,-4.4978,-4.4978,-4.4923,-4.4923,-4.4913,-4.4786,-4.4013,-4.3499,-4.3045,-4.1804,-4.0684,-3.9747,0.0,-3.9388,-3.9388,-3.9388,-3.9388,-3.9388,-3.9388,-3.9388,-3.9388,-3.9388,-4.0614,-4.1974,-4.1974,-4.1974,-4.2183,-4.3065,-4.329,-4.3448,-4.4035,-4.4151,-4.3996,-4.3409,-4.329,-4.3828,-4.5648,-4.6696,-4.7309,-4.7309,-4.7309,-4.7381,-4.7709,-4.7752,-4.7752,-4.7752,-4.8244,-4.862,-4.862,-4.862,0.0,-4.862,-4.9153,-4.9597,-4.9876,-4.9876,-4.9876,-4.9876,-4.9876,-4.9876,-4.9876,-4.9876,-4.9876,-4.9876,-4.9876,-4.9876,-4.9916,-5.0739,-5.1984,-5.3331,-5.0321,-4.9001,-4.9001,-4.9001,-4.9001,-4.9001,-4.9001,-4.9001,-4.9001,-4.9001,-4.9001,-4.9001,0.0,0.0,0.0,0.0,0.0,0.0,0.0,0.0,0.0,0.0,0.0,0.0,0.0,0.0,0.0,0.0,0.0,-4.3826,-4.3826,-4.4299,-4.4615,-4.4615,-4.4615,-4.4615,-4.4615,-4.4615,-4.4615,-4.4615,-4.4682,-4.4737,-4.4737,-4.4858,-4.494,-4.494,-4.4978,-4.4978,-4.494,-4.494,-4.4913,-4.4803,-4.4293,-4.3885,-4.3499,-4.2395,-4.1444,0.0,-3.9717,-3.9388,-3.9388,-3.9388,-3.9388,-3.9388,-3.9388,-3.9388,-3.9568,-4.0509,-4.1974,-4.329,-4.329,-4.329,-4.329,-4.329,-4.3527,-4.3918,-4.4458,-4.4343,-4.3996,-4.3409,-4.4052,-4.5274,-4.6995,-4.7309,-4.7309,-4.7309,-4.7309,-4.7309,-4.7309,-4.7309,-4.7439,-4.7709,-4.8244,-4.862,-4.862,-4.862,-4.862,-4.862,-4.9097,-4.9557,-4.9876,-4.9876,-4.9876,-4.9876,-4.9876,-4.9876,-4.9876,-4.9876,-4.9876,-4.9876,-4.9876,-4.9876,-4.9876,-4.9876,-5.0193,-5.0667,-4.9513,-4.9001,-4.9001,-4.9001,-4.9001,-4.9001,-4.9001,-4.9001,-4.9001,-4.9001,-4.9001,-4.9001,0.0,0.0,0.0,0.0,0.0,0.0,0.0,0.0,0.0,0.0,0.0,0.0,0.0,0.0,0.0,0.0,0.0,0.0,-4.4615,-4.4615,-4.4615,-4.4615,-4.4615,-4.4615,-4.4615,-4.4615,-4.4615,-4.4615,-4.4615,-4.4615,-4.4598,-4.4737,-4.4776,-4.482,-4.4923,-4.4913,-4.4776,-4.4776,-4.4709,-4.4615,-4.4615,-4.4093,-4.3336,-4.3015,-4.2598,-4.1901,-4.006,-3.9388,-3.9388,-3.9388,-3.9388,-3.9388,-3.9388,-3.9388,-3.9896,-4.2527,-4.329,-4.329,-4.329,-4.329,-4.329,-4.329,-4.3918,-4.4534,-4.4534,-4.3879,-4.3334,-4.3469,-4.5544,-4.7309,-4.7309,-4.7309,-4.7309,-4.7309,-4.7309,-4.7309,-4.7309,-4.7309,-4.7596,-4.8453,-4.8578,-4.862,-4.862,-4.862,-4.862,-4.862,0.0,-4.8934,-4.9797,-4.9836,-4.9836,-4.9876,-4.9876,-4.9876,-4.9876,-4.9876,-4.9876,-4.9876,-4.975,-4.9671,-4.9671,-4.9671,-4.8288,-4.59,-4.7934,-4.8909,-4.9001,-4.9001,-4.9001,-4.9001,-4.9001,-4.9001,-4.9001,-4.9001,-4.9001,-4.9001,0.0,0.0,0.0,0.0,0.0,0.0,0.0,0.0,0.0,0.0,0.0,0.0,0.0,0.0,0.0,0.0,0.0,0.0,-4.4615,-4.4615,-4.4615,-4.4615,-4.4615,-4.4615,-4.4615,-4.4615,-4.4615,-4.4615,-4.4615,-4.4615,-4.4615,-4.4626,-4.4654,-4.4654,-4.4682,-4.4682,-4.4654,-4.4654,-4.4626,-4.4615,-4.4615,-4.4485,-4.4253,-4.4179,-4.4047,-4.3545,-4.0481,-3.9388,-3.9388,-3.9388,-3.9388,-3.9388,-3.9388,-3.9388,-3.9896,-4.2527,-4.329,-4.329,-4.329,-4.329,-4.329,-4.329,-4.3488,-4.3645,-4.3645,-4.3448,-4.3858,-4.5888,-4.683,-4.7309,-4.7309,-4.7309,-4.7309,-4.7309,-4.7309,-4.7309,-4.7309,-4.7309,-4.7381,-4.7596,-4.8202,-4.862,-4.862,-4.862,-4.862,0.0,-4.862,-4.8702,-4.8934,-4.8949,-4.9235,-4.9876,-4.9876,-4.9876,-4.9876,-4.9876,-4.9876,-4.99,-4.783,-4.6866,-4.6866,-4.6866,-4.6471,-4.5844,-4.6385,-4.7505,-4.9001,-4.9001,-4.9001,-4.9001,-4.9001,-4.9001,-4.9001,-4.9001,-4.9001,-4.9001,0.0,0.0,0.0,0.0,0.0,0.0,0.0,0.0,0.0,0.0,0.0,0.0,0.0,0.0,0.0,0.0,0.0,0.0,0.0,-4.4615,-4.4615,-4.4615,-4.4615,-4.4615,-4.4615,-4.4615,-4.4615,-4.4615,-4.4615,-4.4615,-4.4615,-4.4615,-4.4615,-4.4615,-4.4615,-4.4615,-4.4615,-4.4615,-4.4615,0.0,0.0,-4.4615,-4.4615,-4.4615,-4.4615,-4.415,-4.0638,-3.9388,-3.9388,-3.9388,-3.9388,-3.9388,-3.9388,-3.9388,-3.9896,-4.2527,-4.329,-4.329,-4.329,-4.329,-4.3369,-4.3762,-4.3566,-4.329,-4.329,-4.329,-4.4052,-4.6756,-4.7309,-4.7309,-4.7309,-4.7309,-4.7309,-4.7309,-4.7309,-4.7309,-4.7309,-4.7309,-4.7424,-4.7837,-4.8286,-4.862,-4.862,-4.862,-4.862,-4.862,-4.862,-4.862,-4.862,-4.862,-4.8811,-4.9316,-4.9316,-4.9517,-4.9876,-4.9876,-4.9276,-4.8098,-4.655,-4.5807,-4.5807,-4.5807,-4.5807,-4.5807,0.0,-4.6684,-4.8146,-4.8736,-4.9001,-4.9001,-4.9001,-4.9001,-4.9001,-4.9001,-4.9001,-4.9001,0.0,0.0,0.0,0.0,0.0,0.0,0.0,0.0,0.0,0.0,0.0,0.0,0.0,0.0,0.0,0.0,0.0,0.0,0.0,0.0,-4.4615,-4.4615,-4.4615,-4.4615,-4.4615,-4.4615,-4.4615,-4.4615,-4.4615,-4.4615,-4.4615,-4.4615,-4.4615,-4.4615,-4.4615,-4.4615,-4.4615,-4.4615,-4.4615,-4.4615,-4.4615,-4.4615,-4.4615,0.0,-4.4615,-4.415,-4.0638,-3.9388,-3.9388,-3.9388,-3.9388,-3.9424,-3.9517,-3.9553,-4.0079,-4.2707,-4.3488,-4.3488,-4.3488,-4.3488,-4.3645,-4.4419,-4.3957,-4.329,-4.329,-4.3574,-4.4381,-4.6381,-4.677,-4.677,-4.677,-4.677,-4.689,-4.7249,-4.7309,-4.7309,-4.7309,-4.7309,-4.7596,-4.8328,-4.8537,-4.862,-4.862,-4.862,-4.862,-4.862,-4.862,-4.862,-4.862,-4.862,-4.8646,-4.8785,-4.8769,-4.9153,-4.9876,-4.9529,-4.8216,-4.5936,-4.5844,-4.5807,-4.5807,-4.5916,-4.5952,-4.5952,0.0,0.0,-4.6979,-4.8211,-4.8704,-4.8736,-4.894,-4.9001,-4.9001,-4.9001,-4.9001,-4.9001,0.0,0.0,0.0,0.0,0.0,0.0,0.0,0.0,0.0,0.0,-4.4615,-4.4615,0.0,0.0,0.0,0.0,0.0,0.0,0.0,0.0,0.0,-4.4615,-4.4615,-4.4615,-4.4615,-4.4615,-4.4615,-4.4615,-4.4615,-4.4615,-4.4615,-4.4615,-4.4615,-4.4615,-4.4615,-4.4615,-4.4615,-4.4615,-4.4615,-4.4615,-4.4615,-4.4615,-4.4615,-4.4615,0.0,0.0,-4.0638,-3.9388,-3.9388,-3.9388,-3.9388,-3.9517,-4.0121,-4.0316,-4.0852,-4.3584,-4.4381,-4.4381,-4.4381,-4.4381,-4.4419,-4.4572,-4.3957,-4.329,-4.329,-4.4994,-4.6127,-4.4336,-4.3977,-4.3977,-4.3977,-4.3977,-4.4695,-4.695,-4.7309,-4.7309,-4.7309,-4.7309,-4.7352,-4.751,-4.816,-4.862,-4.862,-4.862,-4.862,-4.862,-4.862,-4.862,-4.862,-4.862,-4.8949,-4.9637,-4.9677,-4.9757,-4.9876,-4.7672,-4.6593,-4.6684,-4.608,-4.5807,-4.5807,-4.6439,-4.6719,-4.6719,-4.6719,0.0,-4.6911,-4.715,-4.7252,-4.7387,-4.8547,-4.9001,-4.9001,-4.9001,-4.9001,-4.9001,0.0,0.0,0.0,0.0,0.0,0.0,0.0,-4.4869,-4.4961,-4.4654,-4.4879,-4.4944,-4.4626,-4.4615,0.0,0.0,0.0,0.0,0.0,0.0,0.0,0.0,0.0,0.0,-4.4615,-4.4615,-4.4615,-4.4615,0.0,-4.4615,-4.4615,-4.4615,-4.4615,-4.4615,-4.4615,-4.4615,-4.4615,-4.4615,-4.4615,-4.4615,-4.4615,-4.4615,-4.4615,0.0,0.0,0.0,-4.2707,-4.2093,-4.1836,-3.999,-3.9388,-3.9532,-4.0261,-4.0489,-4.1028,-4.3771,-4.461,-4.461,-4.461,-4.461,-4.461,-4.461,-4.3957,-4.329,-4.329,-4.4276,-4.4829,-4.3559,-4.329,-4.329,-4.329,-4.329,-4.3708,-4.4994,-4.6396,-4.7309,-4.7309,-4.7309,-4.7309,-4.7309,-4.8076,-4.862,-4.862,-4.862,-4.862,-4.862,-4.862,-4.862,-4.862,-4.9031,-4.9477,-4.9892,-4.9876,-4.9197,-4.7798,-4.6841,-4.6545,-4.6892,-4.6545,-4.6385,-4.6385,-4.6754,-4.6876,-4.6876,-4.6876,0.0,-4.6876,-4.6876,-4.6876,-4.6979,-4.7638,-4.8339,-4.9001,-4.9001,-4.9001,-4.9001,0.0,0.0,0.0,0.0,0.0,0.0,0.0,-4.5115,-4.532,-4.4852,-4.5205,-4.532,-4.4841,-4.4682,-4.4615,0.0,0.0,0.0,0.0,0.0,0.0,0.0,0.0,0.0,0.0,0.0,0.0,-4.4615,-4.4615,0.0,0.0,0.0,0.0,0.0,-4.4615,-4.4615,-4.4615,-4.4615,-4.4615,0.0,0.0,-4.4615,0.0,0.0,0.0,0.0,0.0,-4.4615,-4.4179,-4.1445,-4.0041,-3.9481,-4.0071,-4.0246,-4.0816,-4.3509,-4.4458,-4.461,-4.461,-4.461,-4.461,-4.461,-4.3957,-4.329,-4.329,-4.329,-4.329,-4.329,-4.329,-4.329,-4.329,-4.329,-4.329,-4.329,-4.5095,-4.6651,-4.7219,-4.7309,-4.7309,-4.7309,-4.7922,-4.8328,-4.8328,-4.8495,-4.862,-4.862,-4.862,0.0,-4.8867,-4.9517,-4.9876,-4.9876,-4.9347,-4.8064,-4.6076,-4.6615,-4.6876,-4.6876,-4.6876,-4.6876,-4.6876,-4.6876,-4.6876,-4.6876,-4.6876,0.0,0.0,-4.6876,-4.6876,-4.6876,-4.6876,-4.7488,-4.8371,-4.8829,-4.9001,-4.9001,0.0,0.0,0.0,0.0,0.0,0.0,0.0,-4.5115,-4.5485,-4.5407,-4.5459,-4.5485,-4.5407,-4.4934,-4.4615,0.0,0.0,0.0,0.0,0.0,0.0,0.0,0.0,0.0,0.0,0.0,0.0,-4.4615,-4.4615,0.0,0.0,0.0,0.0,0.0,0.0,-4.4615,-4.4615,-4.4615,0.0,0.0,0.0,0.0,0.0,0.0,0.0,0.0,0.0,-4.4615,-4.4542,-4.4224,-4.2029,-3.9409,-3.9496,-3.9481,-4.0006,-4.2644,-4.3996,-4.461,-4.461,-4.461,-4.461,-4.461,-4.3957,-4.329,-4.329,-4.329,-4.329,-4.329,-4.329,-4.329,-4.329,-4.329,-4.329,-4.329,-4.3499,-4.45,-4.6965,-4.7309,-4.7309,-4.7309,-4.7396,-4.7424,-4.7424,-4.8133,-4.862,-4.862,-4.862,0.0,-4.9757,-4.9852,-4.9876,-4.9876,-4.7498,-4.6371,-4.6789,-4.6892,-4.6876,-4.6876,-4.6876,-4.6876,-4.6876,-4.6876,-4.6876,-4.6876,-4.6876,0.0,0.0,-4.6876,-4.6876,-4.6876,-4.6876,-4.658,-4.6349,-4.8275,-4.9001,-4.9001,0.0,0.0,0.0,0.0,0.0,0.0,-4.4615,-4.5115,-4.5511,-4.5511,-4.5833,-4.589,-4.5545,-4.5284,-4.4998,0.0,0.0,0.0,0.0,0.0,0.0,0.0,0.0,0.0,0.0,0.0,-4.4615,-4.4615,-4.4615,0.0,0.0,0.0,0.0,0.0,0.0,-4.4615,-4.4615,-4.4615,0.0,0.0,0.0,0.0,0.0,0.0,0.0,0.0,0.0,0.0,-4.4615,-4.4615,-4.2284,-3.9388,-3.9388,-3.9388,-3.9896,-4.2527,-4.3527,-4.3918,-4.4458,-4.461,-4.461,-4.461,-4.3957,-4.329,-4.329,-4.329,-4.329,-4.329,-4.329,-4.329,-4.329,-4.329,-4.329,-4.329,-4.329,-4.3663,-4.4725,-4.6292,-4.7309,-4.7309,-4.7309,-4.7309,-4.7309,-4.7639,-4.8049,-4.8578,-4.862,0.0,-4.9113,-4.9097,-4.859,-4.746,-4.6392,-4.6136,-4.6876,-4.6876,-4.6876,-4.6876,-4.6876,-4.6876,-4.6876,-4.6876,-4.6876,-4.6876,-4.6876,0.0,0.0,-4.6876,-4.6876,-4.6876,-4.6876,-4.6455,-4.608,-4.8211,-4.9001,-4.9001,0.0,0.0,0.0,0.0,0.0,-4.4615,-4.4615,-4.5115,-4.5545,-4.5732,-4.6136,-4.6312,-4.6088,-4.5865,-4.552,-4.4934,0.0,0.0,0.0,0.0,0.0,0.0,0.0,0.0,0.0,0.0,-4.4615,-4.4615,-4.4615,-4.4615,0.0,0.0,-4.4615,-4.4615,0.0,0.0,0.0,0.0,0.0,0.0,0.0,0.0,0.0,0.0,0.0,0.0,0.0,0.0,0.0,0.0,0.0,-3.9388,-3.9388,-3.9388,-3.9896,-4.2527,-4.329,-4.3448,-4.4035,-4.4419,-4.461,-4.461,-4.3957,-4.329,-4.329,-4.329,-4.329,-4.329,-4.329,-4.329,-4.329,-4.329,-4.329,-4.329,-4.329,-4.329,-4.329,-4.5618,-4.7309,-4.7309,-4.7309,-4.7309,-4.7309,-4.751,-4.7964,-4.8537,-4.862,0.0,-4.862,-4.8852,-4.8386,-4.705,-4.6234,-4.6044,-4.658,-4.6789,-4.6876,-4.6876,-4.6876,-4.6876,-4.6876,-4.6876,-4.6876,-4.6876,0.0,0.0,0.0,-4.6876,-4.6876,-4.6876,-4.6876,-4.5926,-4.4719,-4.6241,-4.7745,-4.9001,0.0,0.0,0.0,0.0,0.0,0.0,-4.4615,-4.5115,-4.5707,-4.6312,-4.6407,-4.6641,-4.732,-4.6796,-4.6143,-4.5545,0.0,0.0,0.0,0.0,0.0,0.0,0.0,0.0,0.0,0.0,-4.4615,-4.4615,-4.4615,-4.4615,-4.4615,-4.4615,-4.4615,-4.4615,0.0,0.0,0.0,0.0,0.0,0.0,0.0,0.0,0.0,0.0,0.0,0.0,0.0,0.0,0.0,0.0,0.0,0.0,0.0,-3.9388,-3.9896,-4.2527,-4.329,-4.329,-4.329,-4.3957,-4.461,-4.461,-4.3957,-4.329,-4.329,-4.329,-4.329,-4.329,-4.329,-4.329,-4.329,-4.329,-4.329,-4.329,-4.329,-4.329,-4.329,-4.5618,-4.7309,-4.7309,-4.7309,-4.7309,-4.7309,-4.8076,-4.8578,-4.862,0.0,0.0,-4.862,-4.9437,-4.9876,-4.9844,-4.7229,-4.5807,-4.5807,-4.6545,-4.6876,-4.6876,-4.6876,-4.6876,-4.6876,-4.6876,-4.6876,0.0,0.0,0.0,0.0,-4.6876,-4.6876,-4.6876,-4.6876,-4.4741,-4.1636,-4.1669,-4.4787,-4.9001,0.0,0.0,0.0,0.0,0.0,0.0,0.0,-4.4759,-4.5089,-4.5707,-4.6143,-4.6312,-4.6112,-4.6288,-4.5989,-4.4971,0.0,0.0,0.0,0.0,0.0,0.0,0.0,0.0,0.0,0.0,-4.4615,-4.4615,-4.4615,-4.4615,-4.4615,-4.4615,-4.4615,-4.4615,-4.4615,-4.4615,0.0,0.0,0.0,0.0,0.0,0.0,0.0,0.0,0.0,0.0,0.0,0.0,0.0,0.0,0.0,0.0,0.0,0.0,0.0,-4.0375,-4.0614,-4.1003,-4.2811,-4.3488,-4.3723,-4.3723,-4.3488,-4.329,-4.329,-4.329,-4.329,-4.329,-4.329,-4.329,-4.329,-4.329,-4.329,-4.329,-4.329,-4.329,-4.329,-4.5618,-4.7309,-4.7309,-4.7309,-4.7309,-4.7309,0.0,-4.7964,-4.8578,0.0,0.0,-4.862,-4.8852,-4.9259,-4.9876,-4.9078,-4.862,-4.862,-4.6961,-4.6152,-4.6136,-4.6649,-4.6876,-4.6876,-4.6876,0.0,0.0,0.0,0.0,0.0,-4.6876,-4.6876,-4.6682,-4.4739,-4.3251,-4.2238,-4.1785,-4.2588,-4.4204,0.0,0.0,0.0,0.0,0.0,0.0,0.0,-4.4615,-4.4814,-4.5407,-4.5833,-4.6014,-4.5858,-4.6167,-4.6014,-4.5025,0.0,0.0,0.0,0.0,0.0,0.0,0.0,0.0,-4.4615,-4.4615,-4.4615,-4.4615,-4.4615,-4.4615,-4.4615,-4.4615,-4.4615,-4.4615,-4.4615,-4.4615,0.0,0.0,0.0,0.0,0.0,0.0,-4.4615,0.0,0.0,0.0,0.0,0.0,0.0,0.0,0.0,0.0,0.0,0.0,0.0,0.0,-3.9388,-3.9747,-4.1376,-4.2542,-4.329,-4.329,-4.329,-4.329,-4.329,-4.329,-4.329,-4.329,-4.329,-4.329,-4.329,-4.329,-4.329,-4.329,-4.329,-4.329,-4.329,-4.5618,-4.7309,-4.7309,-4.7309,-4.7309,0.0,-4.7596,-4.8007,0.0,0.0,0.0,-4.9056,-4.9113,-4.9356,-4.9876,-4.9876,-4.9876,-4.9876,-4.8187,-4.7356,-4.734,-4.6754,-4.6474,-4.6474,-4.6789,0.0,0.0,0.0,0.0,0.0,-4.6876,-4.6876,-4.6601,-4.3751,-4.2602,-4.2539,-4.1851,-4.1588,-4.1999,0.0,0.0,0.0,0.0,0.0,0.0,0.0,-4.4615,-4.4786,-4.5372,-4.5485,-4.5681,-4.6216,-4.6312,-4.6094,-4.5485,0.0,0.0,0.0,0.0,0.0,0.0,0.0,0.0,-4.4615,-4.4615,-4.4615,-4.4615,-4.4615,-4.4615,-4.4615,-4.4615,-4.4615,-4.4615,-4.4615,-4.4615,-4.4615,-4.4615,-4.4615,-4.4615,-4.4615,-4.4615,0.0,0.0,0.0,0.0,0.0,0.0,0.0,0.0,0.0,0.0,0.0,0.0,0.0,0.0,0.0,0.0,0.0,-4.1152,-4.3021,-4.3021,-4.3021,-4.3065,-4.3245,-4.329,0.0,-4.329,-4.329,-4.329,-4.329,-4.329,-4.329,-4.329,-4.329,-4.329,-4.329,-4.5618,-4.7309,-4.7309,-4.7309,-4.7309,-4.7309,-4.8034,-4.8537,0.0,0.0,0.0,-4.9852,-4.9876,-4.9876,-4.9876,-4.9687,-4.9592,-4.9592,-4.9592,-4.9631,-4.9678,-4.7098,-4.588,-4.5916,-4.658,0.0,0.0,0.0,0.0,0.0,-4.6876,-4.6763,-4.6326,-4.3638,-4.2602,-4.2539,-4.1851,-4.1588,-4.1968,0.0,0.0,0.0,0.0,0.0,0.0,0.0,0.0,0.0,0.0,-4.5205,-4.5399,-4.5062,-4.5433,-4.5459,0.0,0.0,0.0,0.0,0.0,0.0,0.0,0.0,0.0,-4.4615,-4.4615,-4.4615,-4.4615,-4.4615,-4.4615,-4.4615,-4.4615,-4.4615,-4.4615,-4.4615,-4.4615,-4.4615,-4.4615,-4.4615,-4.4615,-4.4615,-4.4615,0.0,0.0,0.0,0.0,-4.4615,-4.4615,0.0,0.0,0.0,0.0,0.0,0.0,0.0,0.0,-3.9388,-3.9388,-3.9388,0.0,-4.03,-4.03,-4.03,-4.0823,0.0,-4.329,-4.329,-4.329,-4.329,-4.329,-4.329,-4.329,-4.329,-4.329,-4.329,-4.329,-4.329,-4.5618,-4.7309,-4.7309,-4.7309,-4.7309,-4.7309,-4.7467,0.0,0.0,0.0,-4.9677,-4.9876,-4.9876,-4.9876,-4.9876,-4.7877,-4.6771,-4.6771,-4.6771,-4.705,-4.7596,-4.6972,-4.6649,-4.6649,-4.6823,0.0,0.0,0.0,0.0,-4.6876,-4.6876,-4.5597,-4.3525,-4.2861,-4.2602,-4.2539,-4.1851,-4.1588,-4.1683,0.0,0.0,0.0,0.0,0.0,0.0,0.0,0.0,0.0,0.0,0.0,0.0,0.0,0.0,0.0,0.0,0.0,0.0,0.0,0.0,0.0,0.0,0.0,-4.4615,-4.4615,-4.4615,-4.4615,-4.4615,-4.4615,-4.4615,-4.4615,-4.4615,-4.4615,-4.4615,-4.4615,-4.4615,-4.4615,-4.4615,-4.4615,-4.4615,-4.4615,0.0,0.0,0.0,0.0,0.0,-4.4615,-4.4615,0.0,-4.4615,-4.335,-4.1511,0.0,0.0,0.0,0.0,-3.9388,-3.9388,-3.9388,-3.9388,-3.9388,-3.9388,-3.9388,-3.9747,-4.1182,-4.1496,-4.184,-4.305,-4.329,-4.329,-4.329,-4.329,-4.329,-4.329,-4.329,-4.3723,-4.4934,-4.6396,-4.7309,-4.7309,-4.7309,-4.7467,0.0,0.0,0.0,0.0,0.0,-4.9876,-4.9876,-4.9876,-4.9876,-4.9876,-4.7245,-4.5807,-4.5807,-4.6152,-4.6525,-4.6876,-4.6876,-4.6876,-4.6876,-4.6876,-4.6349,0.0,0.0,0.0,-4.6876,-4.6876,-4.5208,-4.2602,-4.2602,-4.2602,-4.2539,-4.1851,-4.1588,-4.1588,0.0,0.0,0.0,0.0,0.0,0.0,0.0,0.0,0.0,0.0,0.0,0.0,0.0,0.0,0.0,0.0,0.0,0.0,0.0,0.0,0.0,0.0,-4.4615,-4.4615,-4.4615,-4.4615,-4.4615,-4.4615,-4.4615,-4.4615,-4.4615,-4.4615,-4.4615,-4.4615,-4.4615,-4.4615,-4.4615,-4.4615,-4.4615,-4.4615,-4.4615,0.0,0.0,0.0,0.0,0.0,0.0,0.0,0.0,-4.4615,-4.4615,-4.3989,-4.0481,0.0,0.0,0.0,0.0,0.0,-3.9388,-3.9388,-3.9388,-3.9388,-3.9388,-3.9388,-3.9388,-3.9388,-4.0121,-4.2751,-4.329,-4.329,-4.329,-4.329,-4.329,-4.329,-4.3633,-4.468,-4.6995,-4.7309,-4.7309,-4.7309,-4.7309,0.0,-4.8328,0.0,0.0,0.0,0.0,-4.9717,-4.9717,-4.9717,-4.9757,-4.9892,-4.7656,-4.6439,-4.6439,-4.6718,-4.6876,-4.6876,-4.6876,-4.6876,-4.6876,-4.6876,-4.5685,0.0,0.0,0.0,-4.686,-4.6423,-4.4804,-4.2602,-4.2602,-4.2602,-4.2539,-4.1948,-4.1687,-4.1652,0.0,0.0,0.0,0.0,0.0,0.0,0.0,0.0,0.0,0.0,0.0,0.0,0.0,0.0,0.0,0.0,0.0,0.0,0.0,0.0,0.0,-4.4615,-4.4615,-4.4615,-4.4615,-4.4615,-4.4615,-4.4615,-4.4615,-4.4615,-4.4615,-4.4615,-4.4615,-4.4615,-4.4615,-4.4615,-4.4615,-4.4615,-4.4615,-4.4615,-4.4615,0.0,0.0,0.0,0.0,0.0,0.0,0.0,0.0,-4.4615,-4.4615,-4.3989,-4.0481,0.0,0.0,0.0,0.0,0.0,-3.9388,-3.9388,-3.9388,-3.9388,-3.9388,-3.9388,-3.9388,-3.9388,-4.0121,-4.2751,-4.329,-4.329,-4.329,-4.329,-4.329,-4.329,-4.5173,-4.683,-4.7249,-4.7309,-4.7309,-4.7309,0.0,-4.7337,0.0,0.0,0.0,0.0,0.0,-4.8826,-4.8826,-4.8826,-4.9153,-4.9876,-4.9466,-4.9244,-4.9244,-4.7698,-4.6876,-4.6876,-4.6876,-4.6876,-4.6876,-4.6876,-4.5685,0.0,0.0,-4.6876,-4.6698,-4.4285,-4.2991,-4.2602,-4.2602,-4.2602,-4.2602,-4.246,-4.2077,-4.1936,0.0,0.0,0.0,0.0,0.0,0.0,0.0,0.0,0.0,0.0,0.0,0.0,0.0,0.0,0.0,0.0,0.0,0.0,0.0,0.0,-4.4615,-4.4615,-4.4615,-4.4615,-4.4615,-4.4615,-4.4615,-4.4615,-4.4615,-4.4615,-4.4615,-4.4615,-4.4615,-4.4615,-4.4615,-4.4615,-4.4615,-4.4615,-4.4615,-4.4615,0.0,0.0,0.0,0.0,0.0,0.0,0.0,0.0,0.0,0.0,-4.4615,-4.431,-4.2707,0.0,0.0,0.0,0.0,0.0,-3.9388,-3.9388,-3.9388,-3.9388,-3.9388,-3.9388,-3.9388,-3.9388,-4.0121,-4.2751,-4.329,-4.329,-4.329,-4.329,-4.3768,-4.5244,-4.6516,-4.7309,-4.7309,-4.7309,-4.7309,0.0,0.0,0.0,0.0,0.0,0.0,0.0,0.0,0.0,-4.862,0.0,-4.8803,-4.7713,-4.7703,-4.7876,-4.8269,-4.7364,-4.6684,-4.6314,-4.6314,-4.6509,-4.6876,-4.6876,-4.6349,-4.5424,0.0,-4.6876,-4.6666,-4.38,-4.2602,-4.2602,-4.2602,-4.2602,-4.2571,-4.2206,-4.1851,-4.1999,0.0,0.0,0.0,0.0,0.0,0.0,0.0,0.0,0.0,0.0,0.0,0.0,0.0,0.0,0.0,0.0,0.0,0.0,0.0,0.0,-4.4615,-4.4615,-4.4615,-4.4615,-4.4615,-4.4615,-4.4615,-4.4615,-4.4615,-4.4615,-4.4615,-4.4615,-4.4615,-4.4615,-4.4615,-4.4615,-4.4615,-4.4615,-4.4615,-4.4615,0.0,0.0,0.0,0.0,0.0,0.0,0.0,0.0,0.0,0.0,0.0,0.0,0.0,0.0,0.0,-3.9388,-3.9388,-3.9388,-3.9388,-3.9388,-3.9388,-3.9388,-3.9388,-3.9388,-3.9388,-3.9852,-4.0868,-4.2886,-4.329,-4.329,-4.329,-4.329,-4.4157,-4.6875,-4.7309,-4.7309,-4.7309,-4.7309,-4.7309,-4.7309,-4.7309,0.0,0.0,0.0,0.0,0.0,0.0,0.0,-4.862,0.0,-4.8419,-4.5902,-4.5807,-4.608,-4.6649,-4.6807,-4.6615,-4.6044,-4.6044,-4.6349,-4.6876,-4.6876,-4.6622,-4.6156,-4.6669,-4.6876,-4.6666,-4.38,-4.2602,-4.2602,-4.2602,-4.2602,-4.2539,-4.1851,-4.1588,-4.1999,0.0,0.0,0.0,0.0,0.0,0.0,0.0,0.0,0.0,0.0,0.0,0.0,0.0,0.0,0.0,0.0,0.0,0.0,0.0,0.0,-4.4615,-4.4615,-4.4615,-4.4615,-4.4615,-4.4615,-4.4615,-4.4615,-4.4615,-4.4615,-4.4615,-4.4615,-4.4615,-4.4615,-4.4615,-4.4615,-4.4615,-4.4615,-4.4615,-4.4615,-4.4615,0.0,0.0,0.0,0.0,0.0,0.0,0.0,0.0,0.0,0.0,0.0,0.0,0.0,-3.9388,-3.9388,-3.9388,-3.9388,-3.9388,-3.9388,-3.9388,-3.9388,-3.9388,-3.9388,-3.9388,-4.1272,-4.3065,-4.326,-4.329,-4.329,-4.329,-4.329,-4.4157,-4.6875,-4.7309,-4.7309,-4.7309,0.0,-4.7309,-4.7309,0.0,0.0,0.0,0.0,0.0,0.0,0.0,0.0,-4.862,0.0,0.0,-4.5866,-4.5807,-4.5807,-4.588,-4.6545,-4.6876,-4.6823,-4.6823,-4.6858,-4.6876,-4.6876,-4.5767,-4.3971,-4.601,-4.6876,-4.6666,-4.38,-4.2602,-4.2602,-4.2602,-4.2602,-4.2539,-4.1851,-4.1588,-4.1999,0.0,0.0,0.0,0.0,0.0,0.0,0.0,0.0,0.0,0.0,0.0,0.0,0.0,0.0,0.0,0.0,0.0,0.0,0.0,-4.4615,-4.4615,-4.4615,-4.4615,-4.4615,-4.4615,-4.4615,-4.4615,-4.4615,-4.4615,-4.4615,-4.4615,-4.4615,-4.4615,-4.4615,-4.4615,-4.4615,-4.4615,-4.4615,-4.4615,-4.4615,-4.4615,-4.4615,0.0,0.0,0.0,0.0,0.0,0.0,0.0,0.0,-4.4615,-4.4615,-4.4615,-4.2221,-3.9388,-3.9388,-3.9388,-3.9388,-3.9388,-3.9388,-3.9388,-3.9388,-3.9388,-3.9388,-3.9388,-4.1406,-4.329,-4.329,-4.329,-4.3798,-4.5499,-4.5798,-4.6142,-4.7145,-4.7309,-4.7309,-4.7309,-4.7752,-4.8118,0.0,0.0,0.0,0.0,0.0,0.0,0.0,0.0,0.0,0.0,0.0,0.0,-4.507,-4.5977,-4.6474,-4.6474,-4.6754,-4.6876,-4.6876,-4.6876,-4.6876,-4.6876,-4.6876,-4.6429,-4.5702,-4.6559,-4.6876,-4.6666,-4.38,-4.2602,-4.2602,-4.2602,-4.2602,-4.2539,-4.1851,-4.1588,-4.1746,0.0,0.0,0.0,0.0,0.0,0.0,0.0,0.0,0.0,0.0,0.0,0.0,0.0,0.0,0.0,0.0,0.0,0.0,-4.4615,-4.4615,-4.4615,-4.4615,-4.4615,-4.4615,-4.4615,-4.4615,-4.4615,-4.4615,-4.4615,-4.4615,-4.4615,-4.4615,-4.4615,-4.4615,-4.4615,-4.4615,-4.4615,-4.4615,-4.4615,-4.4615,-4.4615,-4.4615,0.0,0.0,0.0,0.0,0.0,0.0,0.0,0.0,-4.4615,-4.4615,-4.4615,-4.2221,-3.9388,-3.9388,-3.9388,-3.9388,-3.9388,-3.9388,-3.9388,-3.9388,-4.0001,-4.0614,-4.0614,-4.2004,-4.3369,-4.3645,-4.3488,-4.4112,-4.6815,-4.7309,-4.7309,-4.7309,-4.7309,-4.7381,-4.7666,-4.8202,0.0,0.0,0.0,0.0,0.0,0.0,0.0,0.0,0.0,0.0,0.0,0.0,0.0,0.0,-4.5619,-4.6423,-4.6892,-4.6876,-4.6876,-4.6876,-4.6876,-4.6876,-4.6876,-4.6876,-4.6876,-4.6876,-4.6876,-4.6876,-4.6666,-4.38,-4.2602,-4.2602,-4.2602,-4.2602,-4.2539,-4.1851,-4.1588,-4.1588,0.0,0.0,0.0,0.0,0.0,0.0,0.0,0.0,0.0,0.0,0.0,0.0,0.0,0.0,0.0,0.0,0.0,0.0,-4.4615,-4.4615,-4.4615,-4.4615,-4.4615,-4.4615,-4.4615,-4.4615,-4.4615,-4.4615,-4.4615,-4.4615,-4.4615,-4.4615,-4.4615,-4.4615,-4.4615,-4.4615,-4.4615,-4.4615,-4.4615,-4.4615,-4.4615,-4.4615,-4.4615,0.0,0.0,0.0,0.0,0.0,0.0,0.0,-4.4615,-4.4615,-4.4615,-4.2221,-3.9445,-3.9424,-3.9388,-3.9388,-3.9388,-3.9388,-3.9388,-3.9388,-4.1361,-4.329,-4.329,-4.329,-4.3527,-4.4419,-4.3918,-4.4152,-4.6815,-4.7309,-4.7309,-4.7309,-4.7309,-4.7581,-4.8495,0.0,0.0,0.0,0.0,0.0,0.0,0.0,0.0,0.0,0.0,0.0,0.0,0.0,0.0,0.0,-4.461,-4.5342,-4.6876,-4.6892,-4.6876,-4.6876,-4.6876,-4.6876,-4.6876,-4.6876,-4.6876,-4.6876,-4.6876,-4.6876,-4.6666,-4.38,-4.2602,-4.2602,-4.2602,-4.2602,-4.2539,-4.1851,-4.1621,-4.1588,0.0,0.0,0.0,0.0,0.0,0.0,0.0,0.0,0.0,0.0,0.0,0.0,0.0,0.0,0.0,0.0,0.0,0.0,-4.4615,-4.4615,-4.4615,-4.4615,-4.4615,-4.4615,-4.4615,-4.4615,-4.4615,-4.4615,-4.4615,-4.4615,-4.4615,-4.4615,-4.4615,-4.4615,-4.4615,-4.4615,-4.4615,-4.4615,-4.4615,-4.4615,-4.4615,-4.4615,-4.4615,0.0,0.0,0.0,0.0,0.0,0.0,0.0,0.0,0.0,-4.4615,-4.3902,-4.2583,-4.013,-3.9388,-3.9388,-3.9388,-3.9388,-3.9388,-3.9388,-4.1361,-4.329,-4.329,-4.329,-4.3527,-4.4419,-4.4381,-4.4856,-4.6944,-4.7309,-4.7309,-4.7309,-4.7309,-4.7581,-4.8495,0.0,0.0,0.0,0.0,0.0,0.0,0.0,0.0,0.0,0.0,0.0,0.0,0.0,0.0,0.0,-4.5426,-4.5682,-4.6116,-4.6649,-4.6876,-4.6876,-4.6876,-4.6876,-4.6876,-4.6876,-4.6876,-4.6876,-4.6876,-4.6876,-4.6666,-4.38,-4.2602,-4.2602,-4.2602,-4.2602,-4.2571,-4.2365,-4.2013,-4.1588,0.0,0.0,0.0,0.0,0.0,0.0,0.0,0.0,0.0,0.0,-4.4615,-4.4615,0.0,0.0,0.0,0.0,0.0,0.0,0.0,-4.4615,-4.4615,-4.4615,-4.4615,-4.4615,-4.4615,-4.4615,-4.4615,-4.4615,-4.4615,-4.4615,-4.4615,-4.4615,-4.4615,-4.4615,-4.4615,-4.4615,-4.4615,-4.4615,-4.4615,-4.4615,-4.4615,-4.4615,-4.4615,0.0,0.0,0.0,0.0,0.0,0.0,0.0,0.0,0.0,-4.4615,-4.4615,-4.3931,-4.0413,-3.9388,-3.9388,-3.9388,-3.9388,-3.9388,-3.9388,-4.0569,-4.2119,-4.3482,-4.384,-4.3957,-4.4496,-4.461,-4.5248,-4.7422,-4.7837,-4.7837,-4.7837,-4.751,-4.7581,-4.8495,0.0,0.0,0.0,0.0,0.0,0.0,0.0,0.0,0.0,0.0,0.0,0.0,0.0,0.0,0.0,-4.5807,-4.5807,-4.5807,-4.6243,-4.6455,-4.649,-4.6754,-4.6754,-4.6474,-4.6754,-4.6876,-4.6876,-4.6876,-4.6245,-4.5063,-4.3314,-4.2602,-4.2602,-4.2602,-4.2602,-4.2602,-4.2602,-4.2174,-4.1588,0.0,0.0,0.0,0.0,0.0,0.0,0.0,0.0,0.0,0.0,-4.4615,-4.4615,0.0,0.0,0.0,0.0,0.0,0.0,0.0,0.0,-4.4615,-4.4615,-4.4615,-4.4615,-4.4615,-4.4615,-4.4615,-4.4615,-4.4615,-4.4615,-4.4615,-4.4615,-4.4615,-4.4615,-4.4615,-4.4615,-4.4615,-4.4615,-4.4615,-4.4615,-4.4615,-4.4615,-4.4615,-4.4615,0.0,0.0,0.0,0.0,0.0,0.0,0.0,0.0,-4.4615,-4.4615,-4.396,-4.0808,-3.9646,-3.9388,-3.9388,-3.9388,-3.9388,-3.9388,-3.964,-4.0691,-4.3867,-4.461,-4.461,-4.461,-4.461,-4.5403,-4.8112,-4.862,-4.8527,-4.8363,-4.784,-4.7709,-4.8495,0.0,0.0,0.0,0.0,0.0,0.0,0.0,0.0,0.0,0.0,0.0,0.0,0.0,0.0,-4.5807,-4.5807,-4.5807,-4.5807,-4.5807,-4.5807,0.0,-4.649,-4.6455,-4.5807,-4.6545,-4.6876,-4.6892,-4.6823,-4.5206,-4.2602,-4.2602,-4.2602,-4.2602,-4.2602,-4.2602,-4.2602,-4.2602,-4.2174,-4.1588,0.0,0.0,0.0,0.0,0.0,0.0,0.0,0.0,0.0,0.0,0.0,0.0,0.0,0.0,0.0,0.0,0.0,0.0,0.0,0.0,-4.4615,-4.4615,-4.4615,-4.4615,-4.4615,-4.4615,-4.4615,-4.4615,-4.4615,-4.4615,-4.4615,-4.4615,-4.4615,-4.4615,-4.4615,-4.4615,-4.4615,-4.4615,-4.4615,-4.4615,-4.4615,-4.4615,-4.4615,-4.4615,-4.4615,0.0,0.0,0.0,0.0,0.0,0.0,0.0,-4.4615,-4.4615,-4.444,-4.371,-4.1543,-3.9388,-3.9388,-3.9388,-3.9388,-3.9388,-4.1449,-4.3676,-4.4449,-4.461,-4.461,-4.461,-4.461,-4.5403,-4.8112,-4.862,-4.813,-4.6626,-4.7475,-4.837,0.0,0.0,0.0,0.0,0.0,0.0,0.0,0.0,0.0,0.0,0.0,0.0,0.0,0.0,0.0,-4.5771,-4.5807,-4.5807,-4.5807,-4.5807,-4.5807,0.0,-4.5936,-4.5936,-4.5807,-4.6545,-4.6876,-4.6892,-4.6278,-4.4715,-4.2602,-4.2602,-4.2602,-4.2602,-4.2602,-4.2602,-4.2602,-4.2602,-4.2174,-4.1588,0.0,0.0,0.0,0.0,0.0,0.0,0.0,0.0,0.0,0.0,0.0,0.0,0.0,0.0,0.0,0.0,0.0,0.0,0.0,0.0,-4.4615,-4.4615,-4.4615,-4.4615,-4.4615,-4.4615,-4.4615,-4.4615,-4.4615,-4.4615,-4.4615,-4.4615,-4.4615,-4.4615,-4.4615,-4.4615,-4.4615,-4.4615,-4.4615,-4.4615,-4.4615,-4.4615,-4.4615,-4.4615,-4.4615,-4.4615,-4.4615,0.0,0.0,0.0,0.0,0.0,0.0,0.0,-4.4615,-4.4615,-4.2125,-3.9388,-3.9388,-3.9388,-3.9481,-3.9839,-4.2279,-4.461,-4.461,-4.461,-4.461,-4.461,-4.461,-4.5156,-4.6944,-4.7985,-4.7985,-4.6103,-4.6633,0.0,0.0,0.0,0.0,0.0,0.0,0.0,0.0,0.0,0.0,0.0,0.0,0.0,0.0,-4.461,-4.4814,-4.5188,-4.5625,-4.5807,-4.5807,-4.5807,-4.5807,-4.5807,-4.5807,-4.5807,-4.5807,-4.6545,-4.6719,-4.6349,-4.5988,-4.4578,-4.2602,-4.2602,-4.2602,-4.2602,-4.2602,-4.2602,-4.2602,-4.2602,-4.2174,-4.1588,0.0,0.0,0.0,0.0,0.0,0.0,0.0,0.0,0.0,0.0,0.0,0.0,0.0,0.0,0.0,0.0,0.0,0.0,0.0,0.0,0.0,-4.4615,-4.4615,-4.4615,-4.4615,-4.4615,-4.4615,-4.4615,-4.4615,-4.4615,-4.4615,-4.4615,-4.4615,-4.4615,-4.4615,-4.4615,-4.4615,-4.4615,-4.4615,-4.4615,-4.4615,-4.4615,-4.4615,-4.4615,-4.4615,-4.4615,-4.4615,-4.4615,-4.4615,-4.4615,0.0,0.0,0.0,0.0,-4.4615,-4.4615,-4.2552,-4.0165,-3.9538,-3.9388,-3.9589,-4.0316,-4.2571,-4.461,-4.461,-4.461,-4.461,-4.461,-4.461,-4.4852,-4.5662,-4.7045,-4.7603,-4.6061,-4.5807,0.0,0.0,0.0,0.0,0.0,0.0,0.0,0.0,0.0,0.0,0.0,0.0,0.0,-4.4799,-4.4814,-4.4814,-4.4814,-4.5463,-4.5807,-4.5807,-4.5807,-4.5807,-4.5807,-4.5807,-4.5807,-4.5807,-4.6439,-4.6385,-4.5776,-4.5302,-4.4131,-4.2602,-4.2602,-4.2602,-4.2602,-4.2602,-4.2602,-4.2602,-4.2602,-4.2238,-4.1753,0.0,0.0,0.0,0.0,0.0,0.0,0.0,0.0,0.0,0.0,-4.4615,-4.4615,0.0,0.0,0.0,0.0,0.0,0.0,0.0,0.0,0.0,-4.4615,-4.4615,-4.4615,-4.4615,-4.4615,-4.4615,-4.4615,-4.4615,-4.4615,-4.4615,-4.4615,-4.4615,-4.4615,-4.4615,-4.4615,-4.4615,-4.4615,-4.4615,-4.4615,-4.4615,-4.4615,-4.4615,-4.4615,-4.4615,-4.4615,-4.4615,-4.4615,-4.4615,-4.4615,-4.4615,0.0,0.0,0.0,-4.4615,-4.4615,-4.4281,-4.3259,-4.022,-3.9388,-3.9589,-4.0316,-4.2571,-4.461,-4.461,-4.461,-4.461,-4.461,-4.461,-4.4852,-4.5662,-4.5998,-4.6087,-4.5834,0.0,0.0,0.0,0.0,0.0,0.0,0.0,0.0,0.0,0.0,0.0,0.0,0.0,0.0,-4.5499,-4.5662,-4.5662,-4.5662,-4.5735,-4.5807,-4.5807,-4.5807,-4.5807,-4.5807,-4.5807,-4.5807,-4.5807,-4.5916,-4.588,-4.5665,-4.3216,-4.2331,-4.2602,-4.2602,-4.2602,-4.2602,-4.2602,-4.2602,-4.2602,-4.2602,-4.2539,-4.2365,0.0,0.0,0.0,0.0,0.0,0.0,0.0,0.0,0.0,0.0,0.0,-4.4615,0.0,0.0,0.0,0.0,0.0,0.0,0.0,0.0,0.0,-4.4615,-4.4615,-4.4615,-4.4615,-4.4615,-4.4615,-4.4615,-4.4615,-4.4615,-4.4615,-4.4615,-4.4615,-4.4615,-4.4615,-4.4615,-4.4615,-4.4615,-4.4615,-4.4615,-4.4615,-4.4615,-4.4615,-4.4615,-4.4615,-4.4615,-4.4615,-4.4615,-4.4615,-4.4615,-4.4615,-4.4615,-4.4615,0.0,0.0,0.0,-4.4615,-4.3827,-4.0359,-3.9388,-3.9589,-4.0316,-4.2571,-4.461,-4.461,-4.461,-4.461,-4.461,-4.461,-4.4852,-4.5662,-4.5807,-4.5807,-4.5807,0.0,0.0,0.0,0.0,0.0,0.0,0.0,0.0,0.0,0.0,0.0,0.0,0.0,-4.1339,-4.2856,-4.4768,-4.5807,-4.5807,-4.5807,-4.5807,-4.5807,-4.5807,-4.5807,-4.5807,-4.5807,-4.5807,-4.5807,-4.5807,-4.5807,-4.5649,-4.3224,-4.2333,-4.2602,-4.2602,-4.2602,-4.2602,-4.2602,-4.2602,-4.2602,-4.2602,-4.2602,-4.2492,0.0,0.0,0.0,0.0,0.0,0.0,0.0,0.0,0.0,0.0,0.0,0.0,0.0,0.0,0.0,0.0,0.0,0.0,0.0,0.0,0.0,-4.4615,-4.4615,-4.4615,-4.4615,-4.4615,-4.4615,-4.4615,-4.4615,-4.4615,-4.457,-4.3693,-4.3739,-4.4615,-4.4615,-4.4615,-4.4615,-4.4615,-4.4615,-4.4615,-4.4615,-4.4615,-4.4615,-4.4615,-4.4615,-4.4615,-4.4615,-4.4615,-4.4615,-4.4615,-4.4615,-4.4615,-4.4615,-4.4615,0.0,0.0,0.0,-4.4018,-4.1412,-4.006,-3.9517,-4.0071,-4.1759,-4.3501,-4.438,-4.461,-4.461,-4.461,-4.461,-4.4761,-4.5389,-4.5662,-4.5807,-4.5807,0.0,0.0,0.0,0.0,0.0,0.0,0.0,0.0,0.0,0.0,0.0,0.0,0.0,-4.0702,-4.0702,-4.3741,-4.5573,-4.5771,-4.5625,-4.5573,-4.5807,-4.5807,-4.5698,-4.5499,-4.5698,-4.5807,-4.5807,-4.5807,-4.5412,-4.4658,-4.3037,-4.2349,-4.2365,-4.2539,-4.2602,-4.2602,-4.2602,-4.2602,-4.2602,-4.2602,-4.2602,-4.2539,0.0,0.0,0.0,0.0,0.0,0.0,0.0,0.0,0.0,0.0,0.0,0.0,-4.4615,-4.4615,-4.4615,-4.4615,-4.4615,0.0,0.0,0.0,0.0,-4.4615,-4.4615,0.0,-4.4615,-4.4615,-4.4615,-4.4615,-4.4615,-4.4615,-4.4542,-4.1229,-4.1412,-4.4615,-4.4615,-4.4615,-4.4615,-4.4615,-4.4615,-4.4615,-4.4615,-4.4615,-4.4615,-4.4615,-4.4615,-4.4615,-4.4615,-4.4615,-4.4615,-4.4615,-4.4615,-4.4615,-4.4615,-4.4615,-4.4615,0.0,0.0,0.0,-4.4384,-4.1933,-3.9424,-3.946,-3.955,-4.0534,-4.3837,-4.461,-4.461,-4.461,-4.461,-4.461,-4.4648,-4.5278,-4.5807,-4.5807,0.0,0.0,0.0,0.0,0.0,0.0,0.0,0.0,0.0,0.0,0.0,0.0,0.0,-4.0702,-4.0702,-4.3205,-4.5002,-4.5771,-4.5077,-4.5039,-4.5771,-4.5807,-4.5426,-4.4648,-4.5426,-4.5807,-4.5807,-4.5807,-4.4338,-4.1794,-4.1685,-4.1654,-4.1687,-4.2333,-4.2602,-4.2602,-4.2602,-4.2602,-4.2602,-4.2602,-4.2602,-4.2602,0.0,0.0,0.0,0.0,0.0,0.0,0.0,0.0,0.0,0.0,0.0,0.0,0.0,-4.4615,-4.4615,-4.4615,-4.4615,0.0,0.0,0.0,0.0,-4.4615,-4.4615,-4.4615,-4.4615,-4.4615,-4.4615,-4.4615,-4.4615,-4.3439,-4.1229,-3.997,-4.006,-4.1262,-4.1262,-4.252,-4.4615,-4.4615,-4.4615,-4.4615,-4.4615,-4.4615,-4.4615,-4.4615,-4.4615,-4.4615,-4.4615,-4.4615,-4.4615,-4.4615,-4.4615,-4.4615,-4.4615,-4.4615,-4.4615,-4.4615,-4.4615,-4.4615,-4.4615,-4.371,-4.2738,-4.2738,-4.1062,-4.0186,-4.3119,-4.4189,-4.461,-4.461,-4.461,-4.461,-4.461,-4.4852,-4.5039,-4.5039,0.0,0.0,0.0,0.0,0.0,0.0,0.0,0.0,0.0,0.0,0.0,0.0,0.0,0.0,-4.3205,-4.4097,-4.4723,-4.5039,-4.4761,-4.5002,-4.5771,-4.5278,-4.4889,-4.461,-4.5426,-4.5807,-4.5807,-4.5807,-4.5254,-4.4196,-4.2378,-4.1851,-4.2238,-4.2045,-4.2206,-4.2602,-4.2602,-4.2602,-4.2602,-4.2602,-4.2602,-4.2602,0.0,0.0,0.0,0.0,0.0,0.0,0.0,0.0,0.0,-4.4615,0.0,0.0,0.0,0.0,-4.4615,-4.4615,-4.4615,-4.4615,-4.4615,-4.4615,-4.4615,-4.4615,-4.4615,-4.4615,-4.4615,-4.4615,-4.4615,-4.4615,-4.341,-4.1674,-3.9388,-3.9388,-3.9388,-3.9388,-3.9388,-4.1346,-4.4615,-4.4615,-4.4615,-4.4615,-4.4615,-4.4615,-4.4615,-4.4615,-4.4615,-4.4615,-4.4615,-4.4615,-4.4615,-4.4615,-4.4615,-4.4615,-4.4615,-4.4615,-4.4615,-4.4615,-4.4615,-4.4615,-4.4615,-4.4615,-4.4615,-4.4615,-4.1965,-3.9837,-4.1586,-4.3128,-4.4266,-4.4534,-4.461,-4.461,-4.461,-4.461,-4.4701,-4.4964,0.0,0.0,0.0,0.0,0.0,0.0,0.0,0.0,0.0,0.0,0.0,0.0,0.0,0.0,-4.461,-4.461,-4.461,-4.461,-4.461,-4.4852,-4.5389,-4.4852,-4.461,-4.461,-4.5426,-4.5807,-4.5807,-4.5807,-4.5286,-4.4338,-4.3406,-4.2741,-4.2238,-4.1785,-4.1851,-4.227,-4.2492,-4.2602,-4.2571,-4.2333,-4.2413,-4.2602,0.0,0.0,0.0,0.0,0.0,0.0,0.0,0.0,-4.4457,-4.4457,0.0,0.0,0.0,0.0,0.0,-4.4615,-4.4615,-4.4615,-4.4615,-4.4615,-4.4615,-4.4615,0.0,0.0,-4.4615,-4.4514,-4.4457,-4.4457,-4.1062,-3.9388,-3.9388,-3.9388,-3.9388,-3.9388,-3.9388,-4.1346,-4.4615,-4.4615,-4.4615,-4.4615,-4.4699,-4.4733,-4.4733,-4.4733,-4.4733,-4.4733,-4.4733,-4.4733,-4.4733,-4.4632,-4.4615,-4.4615,-4.4615,-4.4615,-4.4615,-4.4615,-4.4615,-4.457,0.0,0.0,0.0,-4.4457,-4.1901,-3.9388,-3.9388,-4.1346,-4.3437,-4.4366,-4.4572,-4.4572,-4.4587,-4.461,-4.4852,-4.5662,0.0,0.0,0.0,0.0,0.0,0.0,0.0,0.0,0.0,0.0,0.0,0.0,0.0,-4.461,-4.461,-4.461,-4.461,-4.461,-4.461,-4.461,-4.461,-4.461,-4.461,-4.4648,-4.5426,-4.5807,-4.5807,-4.5807,-4.4306,-4.1873,-4.4606,-4.4259,-4.1715,-4.162,-4.1621,-4.1687,-4.2349,-4.2602,-4.2492,-4.1851,-4.2045,-4.2571,0.0,0.0,0.0,0.0,0.0,0.0,-4.0672,-4.0842,-4.0842,0.0,0.0,0.0,-4.4615,-4.4615,-4.4615,-4.4615,-4.4615,-4.4615,-4.4615,-4.4615,-4.4615,-4.4615,-4.2189,-4.2029,-4.4542,-4.2125,-4.0842,-4.0842,-3.9864,-3.9388,-3.9388,-3.9388,-3.9388,-3.9388,-3.9388,-4.1346,-4.4615,-4.4615,-4.4615,-4.4801,-4.6904,-4.7784,-4.7784,-4.7784,-4.7784,-4.7784,-4.7784,-4.7784,-4.7462,-4.5326,-4.4615,-4.4615,-4.4615,-4.4615,-4.4615,-4.4615,-4.4615,-4.4047,-4.1511,0.0,0.0,0.0,0.0,0.0,-3.9388,-3.9941,-4.1078,-4.3214,-4.3645,-4.384,-4.4496,-4.461,-4.4648,-4.4889,0.0,0.0,0.0,0.0,0.0,0.0,0.0,0.0,0.0,0.0,0.0,0.0,-4.461,-4.461,-4.461,-4.461,-4.461,-4.461,-4.461,-4.461,-4.461,-4.461,-4.4889,-4.5463,-4.5698,-4.5807,-4.5807,-4.5807,-4.5381,-4.4685,-4.5476,-4.5365,-4.448,-4.2426,-4.1883,-4.2333,-4.2539,-4.2302,-4.1916,-4.2206,-4.2142,-4.1948,0.0,0.0,0.0,0.0,0.0,-3.9388,-3.9388,-3.9388,-3.9388,0.0,0.0,0.0,-4.241,-4.241,-4.241,-4.241,-4.241,-4.241,-4.241,-4.241,-4.241,-4.241,-4.0481,-4.0359,-4.2379,-4.0447,-3.9388,-3.9388,-3.9388,-3.9388,-3.9388,-3.9388,-3.9388,-3.9388,-3.9388,-4.0516,-4.241,-4.241,-4.3981,-4.6583,-4.8308,-4.9001,-4.8829,-4.7223,-4.6627,-4.6627,-4.6627,-4.6627,-4.6369,-4.4621,-4.4309,-4.4615,-4.4615,-4.3604,-4.241,-4.241,-4.241,-4.2316,-4.1739,-4.0516,-3.9388,-3.9388,0.0,0.0,-3.9388,-3.9388,-3.9822,0.0,-4.166,-4.2258,-4.4258,-4.461,-4.461,-4.461,0.0,0.0,0.0,0.0,0.0,0.0,0.0,0.0,0.0,0.0,0.0,-4.461,-4.461,-4.461,-4.461,-4.461,-4.461,-4.461,-4.461,-4.461,-4.461,-4.4927,-4.5151,-4.5315,-4.5315,-4.5463,-4.5807,-4.5807,-4.5807,-4.5807,-4.5807,-4.5144,-4.3946,-4.2567,-4.2238,-4.2684,-4.3603,-4.3165,-4.2045,-4.2142,-4.2109,-4.2077,0.0,0.0,0.0,-3.9388,-3.9388,-3.9388,-3.9388,-3.9388,-3.9388,0.0,-3.9388,-3.9388,-3.9388,-3.9388,-3.9388,-3.9388,-3.9388,-3.9388,-3.9388,-3.9388,-3.9388,-3.9388,-3.9388,-3.9388,-3.9388,-3.9388,-3.9388,-3.9388,-3.9388,-3.9388,-3.9388,-3.9388,-3.9388,-3.9388,-3.9388,-3.9388,-3.9388,-3.9388,-4.2868,-4.837,-4.837,-4.837,-4.8015,-4.46,-4.329,-4.329,-4.329,-4.329,-4.329,-4.329,-4.3799,-4.4445,-4.4445,-4.2124,-3.9388,-3.9388,-3.9388,-4.006,-4.3183,-4.1772,-3.9388,-3.9388,-3.9388,0.0,-3.9388,-3.9388,-3.9388,0.0,-3.9388,-4.0347,-4.3455,-4.4012,-4.4012,-4.4012,0.0,0.0,0.0,0.0,0.0,0.0,0.0,0.0,-4.461,-4.461,-4.461,-4.461,-4.461,-4.461,-4.461,-4.461,-4.461,-4.461,-4.461,-4.461,-4.461,-4.5315,-4.5315,-4.461,-4.4701,-4.5077,-4.5662,-4.5771,-4.5807,-4.5807,-4.5807,-4.4196,-4.167,-4.2591,-4.2944,-4.3106,-4.4725,-4.4336,-4.2848,-4.2027,-4.2077,-4.2602,0.0,0.0,-3.9388,-3.9388,-3.9388,-3.9388,-3.9388,-3.9388,-3.9388,-3.9388,-3.9388,-3.9388,-3.9388,-3.9388,-3.9388,-3.9388,-3.9388,-3.9388,-3.9388,-3.9388,-3.9388,-3.9388,-3.9388,-3.9388,-3.9388,-3.9388,-3.9388,-3.9388,-3.9388,-3.9388,-3.9388,-3.9388,-3.9388,-3.9388,-3.9388,-3.9388,-3.9388,-3.9388,-4.1336,-4.4388,-4.4388,-4.4388,-4.4327,-4.3576,-4.329,-4.329,-4.329,-4.329,-4.329,-4.329,-4.3408,-4.3545,-4.3545,-4.165,-3.9388,-3.9388,-3.9388,-3.9553,-4.022,-3.9935,-3.9388,-3.9388,-3.9388,0.0,-3.9388,-3.9388,-3.9388,0.0,-3.9388,-3.961,-4.0302,-4.0392,-4.0392,-4.0392,0.0,0.0,0.0,0.0,0.0,0.0,0.0,0.0,0.0,-4.461,-4.461,-4.461,-4.461,-4.461,-4.461,-4.461,-4.461,-4.461,-4.461,-4.461,-4.461,-4.4776,-4.4776,-4.461,-4.5278,-4.5315,-4.4852,-4.5499,-4.5807,-4.5807,-4.5807,-4.4196,-4.1795,-4.4193,-4.5163,-4.4989,-4.3158,-4.3538,-4.4964,-4.3088,-4.2508,-4.2602,-3.9388,-3.9388,-3.9388,-3.9388,0.0,0.0,-3.9388,-3.9388,-3.9388,-3.9388,-4.0524,-4.1331,-4.1331,-4.1331,-4.1331,-4.1331,-4.0136,-3.9388,-3.9388,-3.9388,-3.9388,-3.9388,-3.9388,-3.9388,-3.9388,-3.9388,-3.9388,-3.9388,-3.9388,-3.9388,-3.9388,-3.9388,-3.9388,-3.9388,-3.9388,-3.9388,-3.9388,-3.9388,-4.0898,-4.329,-4.329,-4.329,-4.329,-4.329,-4.3566,-4.3957,-4.3957,-4.3684,-4.329,-4.329,-4.329,-4.329,-4.329,-4.2393,-4.1077,-3.9762,-3.9388,-3.9388,-3.9388,-3.9388,-3.9388,-3.9388,-3.9388,0.0,0.0,-3.9388,-3.9388,-3.9388,-3.9388,-3.9388,-3.9388,-3.9388,-3.9388,-3.9388,0.0,0.0,0.0,0.0,0.0,0.0,0.0,0.0,0.0,-4.4228,-4.3957,-4.3957,-4.4343,-4.4419,-4.3957,-4.4343,-4.461,-4.461,-4.461,-4.461,-4.461,-4.461,-4.461,-4.461,-4.5002,-4.5002,-4.461,-4.5002,-4.5426,-4.5728,-4.4322,-4.3481,-4.3258,-4.5043,-4.5807,-4.5665,-4.4243,-4.3706,-4.3635,-4.2864,-4.2602,-4.2602,-3.9388,-3.9388,-3.9388,-3.9388,0.0,0.0,0.0,-3.9807,-4.0136,-4.0136,-4.1974,-4.329,-4.329,-4.329,-4.329,-4.329,-4.1361,-4.0136,-4.0136,-4.0136,-4.0136,-4.0136,-3.9657,-3.9388,-3.9388,-3.9388,-3.9388,-3.9388,-3.9388,-3.9388,-3.9388,-3.9388,-3.9388,-3.9388,-3.9388,-3.9388,-3.9418,-3.9963,-4.1361,-4.329,-4.329,-4.329,-4.329,-4.329,-4.384,-4.461,-4.461,-4.4151,-4.3527,-4.3369,-4.329,-4.329,-4.329,-4.329,-4.2886,-4.0763,-4.0136,-4.0031,-3.9523,-3.9388,-3.9388,-3.9388,-3.9388,-3.9388,0.0,0.0,0.0,-3.9388,0.0,-3.9388,-3.9388,0.0,0.0,0.0,0.0,0.0,0.0,0.0,0.0,0.0,0.0,0.0,0.0,-4.3723,-4.329,-4.329,-4.3957,-4.4035,-4.3329,-4.4112,-4.461,-4.461,-4.461,-4.461,-4.461,-4.461,-4.461,-4.461,-4.461,-4.461,-4.461,-4.4776,-4.5204,-4.5645,-4.3252,-4.3185,-4.4889,-4.5352,-4.5662,-4.576,-4.5207,-4.3767,-4.2045,-4.2429,-4.2602,-4.2602,-3.9388,-3.9388,-3.9388,-3.9388,0.0,0.0,0.0,-4.1361,-4.2856,-4.2856,-4.311,-4.329,-4.329,-4.329,-4.329,-4.329,-4.3021,-4.2856,-4.2856,-4.2856,-4.2856,-4.2856,-4.0629,-3.9388,-3.9388,-3.9388,-3.9388,-3.9388,-3.9388,-3.9388,-3.9388,-3.9388,-3.9388,-3.9388,-3.9388,-3.9388,-3.9538,-4.1855,-4.3021,-4.329,-4.329,-4.329,-4.329,-4.329,-4.384,-4.461,-4.461,-4.4549,-4.4343,0.0,-4.329,-4.329,-4.329,-4.329,-4.323,-4.2931,-4.2856,-4.2348,-4.0016,-3.9388,-3.9388,-3.9388,-3.9388,-3.9388,0.0,0.0,-3.9388,-3.9388,0.0,-3.9388,-3.9388,0.0,0.0,0.0,0.0,0.0,0.0,0.0,0.0,0.0,0.0,0.0,0.0,0.0,-4.329,-4.329,-4.3369,-4.3409,-4.329,-4.4112,-4.461,-4.461,-4.461,-4.461,-4.461,-4.461,-4.461,-4.461,-4.461,-4.461,-4.461,-4.5352,-4.5698,-4.5755,-4.4713,-4.4781,-4.5625,-4.5002,-4.5151,-4.5555,-4.3042,-4.2607,-4.3312,-4.279,-4.2602,-4.2602,-3.9388,-3.9388,-3.9388,-3.9388,0.0,0.0,0.0,-4.2587,-4.329,-4.329,-4.329,-4.329,-4.329,-4.329,-4.329,-4.329,-4.329,-4.329,-4.329,-4.329,-4.329,-4.329,-4.2243,-4.1645,-4.1645,-4.0165,-3.9388,-3.9388,-3.9388,-3.9388,-3.9388,-3.9388,-3.9388,-3.9388,-3.9388,-4.0225,-4.172,-4.2826,-4.329,-4.329,-4.329,-4.329,-4.329,-4.329,-4.384,-4.461,-4.461,-4.4266,-4.3801,0.0,-4.329,0.0,0.0,0.0,-4.329,-4.329,-4.329,-4.305,-4.1944,-4.0539,0.0,0.0,0.0,0.0,-3.9388,0.0,-3.9388,0.0,0.0,0.0,0.0,0.0,0.0,0.0,-3.8138,0.0,0.0,0.0,0.0,0.0,0.0,0.0,0.0,0.0,0.0,0.0,0.0,-4.329,-4.329,-4.4112,-4.461,-4.461,-4.461,-4.461,-4.461,-4.461,-4.461,-4.461,-4.461,-4.461,-4.4625,-4.5426,-4.5552,-4.5114,-4.5241,-4.5225,-4.5114,-4.5241,-4.4756,-4.3823,-4.2638,-4.2774,-4.3568,-4.3281,-4.2945,-4.2602,-3.9388,-3.9388,-3.9649,-4.033,-4.2034,0.0,0.0,-4.329,-4.329,-4.329,-4.329,-4.3574,-4.4306,-4.4381,-4.4381,-4.4381,-4.3708,-4.329,-4.329,-4.329,-4.329,-4.329,-4.329,-4.329,-4.329,-4.1436,-4.0106,-3.9388,-3.9388,-3.9388,-3.9388,-3.9388,-3.9388,-3.9388,-3.9388,-4.0838,-4.329,-4.329,-4.329,-4.329,-4.329,-4.329,-4.329,-4.329,-4.3684,-4.4228,-4.4228,-4.3996,-4.3606,-4.3369,-4.329,0.0,-4.329,0.0,-4.329,-4.329,-4.329,-4.329,-4.329,0.0,0.0,0.0,0.0,0.0,0.0,0.0,0.0,0.0,0.0,0.0,0.0,0.0,-3.9388,-3.9388,0.0,-3.724,0.0,-3.9388,0.0,0.0,0.0,0.0,0.0,0.0,0.0,-4.2228,-4.2886,-4.329,-4.329,-4.4112,-4.461,-4.461,-4.461,-4.461,-4.461,-4.461,-4.461,-4.461,-4.461,-4.4739,-4.4927,-4.5315,-4.5151,-4.461,-4.5241,-4.5262,-4.494,-4.4918,-4.4031,-4.2602,-4.2602,-4.3007,-4.3598,-4.3598,-4.319,-4.2602,-3.9388,-3.9388,-4.018,-4.2722,-4.323,-4.329,-4.329,-4.329,-4.329,-4.329,-4.329,-4.4276,-4.689,-4.7174,-4.7174,-4.7174,-4.4784,-4.329,-4.329,-4.329,-4.329,-4.329,-4.329,-4.329,-4.329,-4.3215,-4.1929,-3.9388,-3.9388,-3.9388,-3.9388,-3.9388,-3.9388,-3.9388,-3.9388,-4.0838,-4.329,-4.329,-4.329,-4.329,-4.329,-4.329,-4.329,0.0,-4.3329,-4.3329,-4.3329,0.0,0.0,-4.3566,-4.329,0.0,0.0,0.0,0.0,0.0,0.0,0.0,0.0,0.0,0.0,-4.0016,0.0,0.0,0.0,0.0,-3.9388,0.0,0.0,0.0,0.0,-3.9388,-3.9388,-3.9388,-3.9313,0.0,0.0,0.0,0.0,0.0,0.0,0.0,0.0,0.0,0.0,-3.9508,-4.1855,-4.329,-4.329,-4.4112,-4.461,-4.461,-4.461,-4.461,-4.461,-4.461,-4.461,-4.461,-4.461,-4.5002,-4.5735,-4.4964,-4.461,-4.461,-4.4625,-4.5077,-4.5602,-4.3554,-4.2652,-4.2602,-4.2602,-4.3007,-4.3598,-4.3598,-4.319,-4.2602,-4.1974,-4.1974,-4.2243,-4.314,-4.329,-4.329,-4.329,-4.329,-4.3932,-4.5723,-4.5963,-4.6307,-4.7204,-4.7309,-4.7309,-4.7309,-4.4829,-4.329,-4.329,-4.329,-4.329,-4.329,-4.329,-4.329,-4.329,-4.329,-4.2856,-4.1974,-4.1974,-4.1077,-3.9388,-3.9388,-3.9388,-3.9388,-3.9388,-4.0838,-4.329,-4.329,-4.329,-4.329,-4.329,-4.329,-4.329,0.0,0.0,-4.329,-4.329,-4.3488,0.0,-4.3409,-4.329,-4.329,-4.329,-4.329,-4.329,-4.329,-4.329,0.0,0.0,0.0,-4.308,-4.2183,0.0,0.0,0.0,0.0,0.0,0.0,0.0,0.0,0.0,-3.9388,-3.9388,-3.9388,-3.9388,-3.9388,0.0,0.0,0.0,0.0,0.0,0.0,0.0,0.0,0.0,-3.9388,-4.021,-4.1466,0.0,-4.3566,-4.3996,-4.4572,-4.461,-4.461,-4.461,-4.461,-4.461,-4.461,-4.461,-4.4723,-4.5002,-4.4723,-4.461,-4.461,-4.461,-4.4236,-4.3618,-4.2912,-4.2602,-4.2602,-4.2602,-4.3007,-4.3598,-4.3598,-4.3479,-4.319,-4.329,-4.329,-4.329,-4.329,-4.329,-4.329,-4.329,-4.4097,-4.5323,-4.707,-4.7309,-4.7309,-4.7309,-4.7309,-4.7309,-4.7309,-4.5738,-4.4695,-4.4695,-4.4695,-4.4695,-4.4695,-4.3798,-4.329,-4.329,-4.329,-4.329,-4.329,-4.329,-4.2423,-4.0763,-3.9822,-3.9388,-3.9388,-3.9388,-4.0838,-4.329,-4.329,-4.329,-4.329,-4.329,-4.329,0.0,0.0,-4.4127,-4.329,0.0,-4.3488,-4.3723,-4.3409,-4.3488,-4.3723,-4.3409,-4.329,-4.329,-4.329,-4.329,-4.329,-4.329,-4.329,0.0,-4.329,-4.329,0.0,-4.1152,0.0,0.0,0.0,0.0,0.0,0.0,-3.9388,-3.9388,-3.9388,-3.9388,-3.9388,0.0,-3.9388,0.0,0.0,0.0,-3.9388,0.0,0.0,-3.9388,-3.9388,-3.9388,-4.0121,0.0,0.0,-4.3879,-4.4112,-4.4419,-4.461,-4.461,-4.461,-4.461,-4.461,-4.461,-4.461,-4.461,-4.461,-4.461,-4.4564,-4.4091,-4.3418,-4.2602,-4.2602,-4.2602,-4.2618,-4.2852,-4.3221,-4.3598,-4.3598,-4.3449,-4.319,-4.329,-4.329,-4.329,-4.329,-4.329,-4.329,-4.329,-4.5603,-4.7309,-4.7309,-4.7309,-4.7309,-4.7309,-4.7309,-4.7309,-4.7309,-4.7309,-4.7309,-4.7309,-4.7309,-4.7309,-4.7309,-4.471,-4.329,-4.329,-4.329,-4.329,-4.329,-4.329,-4.329,-4.3245,-4.0748,-3.9508,-3.9424,-3.9559,-4.0958,-4.329,-4.329,-4.329,-4.329,-4.329,-4.329,-4.3574,-4.6142,-4.5544,-4.329,-4.329,-4.3879,-4.4458,-4.3645,-4.3918,-4.4458,-4.3645,-4.3369,-4.3369,-4.3369,-4.3329,-4.329,-4.329,-4.329,-4.329,-4.329,0.0,0.0,0.0,0.0,-3.9574,0.0,0.0,0.0,0.0,0.0,-3.9388,-3.9388,-3.9388,-3.9388,-3.9388,-3.9388,-3.9388,0.0,0.0,-3.9388,-3.9388,-3.9388,-3.9388,-3.9388,-3.9388,-3.9388,0.0,0.0,0.0,-4.3329,-4.4112,-4.4549,-4.4549,-4.4587,-4.4587,-4.4549,-4.4587,-4.461,-4.461,-4.461,-4.4495,-4.4233,-4.3062,-4.2539,-4.2539,-4.2602,-4.2602,-4.2665,-4.3312,-4.3568,-4.3598,-4.3598,-4.319,-4.2618,-4.329,-4.329,-4.329,-4.329,-4.329,-4.329,-4.329,-4.5603,-4.7309,-4.7309,-4.7309,-4.7309,-4.7309,-4.7309,-4.7309,-4.7309,-4.7309,-4.7309,-4.7309,-4.7309,-4.7309,-4.7309,-4.471,-4.329,-4.329,-4.329,-4.329,-4.329,-4.329,-4.329,-4.329,-4.2602,-4.1257,-3.9463,-4.1421,-4.2662,-4.329,-4.329,-4.329,-4.329,-4.329,-4.329,0.0,0.0,-4.3888,-4.329,-4.329,-4.3879,-4.4572,-4.4343,-4.4419,-4.4572,-4.4343,-4.4266,-4.4266,-4.4266,-4.3801,-4.329,-4.329,-4.329,-4.329,-4.329,-4.329,-4.329,0.0,0.0,0.0,0.0,0.0,0.0,0.0,0.0,0.0,-3.9388,-3.9388,-3.9388,-3.9388,-3.9388,-3.9388,-3.9388,0.0,0.0,-3.9388,-3.9388,-3.9388,-3.9388,-3.9388,-3.9388,0.0,0.0,0.0,-4.323,-4.3527,-4.3645,-4.3645,-4.4266,-4.4266,-4.3645,-4.4305,-4.461,-4.461,-4.461,-4.2849,-3.9928,-4.1286,-4.1851,-4.1883,-4.2397,-4.2602,-4.2634,-4.279,-4.316,-4.3598,-4.3598,-4.3492,-4.3281,-4.329,-4.329,-4.329,-4.329,-4.4261,-4.5065,-4.5065,-4.6337,-4.7309,-4.7309,-4.7309,-4.7309,-4.7309,-4.7309,-4.7309,-4.7309,-4.7309,-4.7309,-4.7309,-4.7309,-4.7309,-4.7309,-4.5873,-4.4485,-4.3319,-4.329,-4.329,-4.329,-4.329,-4.329,-4.329,-4.329,-4.2512,-4.1152,-4.2632,-4.329,-4.329,-4.329,-4.329,-4.329,-4.329,-4.329,0.0,-4.329,-4.329,-4.329,-4.329,-4.3606,-4.4073,-4.4458,-4.461,-4.461,-4.461,-4.461,-4.461,-4.461,-4.4266,-4.3801,-4.3409,-4.329,-4.329,-4.329,-4.329,-4.329,-4.329,-4.329,-4.2871,0.0,0.0,0.0,0.0,0.0,0.0,-3.9388,-3.9388,-3.9388,-3.9388,-3.9388,-3.9388,-3.9388,-3.9388,0.0,0.0,-3.9388,-3.9388,-3.9388,-3.9388,0.0,0.0,0.0,0.0,-4.1541,-4.2692,-4.329,-4.329,-4.3801,-4.3996,-4.3879,-4.3996,-4.4228,-4.4526,-4.2279,-4.0153,-3.8277,-3.955,-4.0668,-4.1621,-4.2013,-4.2333,-4.2539,-4.1916,-4.2285,-4.319,-4.3492,-4.3598,-4.3492,-4.3658,-4.3813,-4.3813,-4.3813,-4.5768,-4.7309,-4.7309,-4.7309,0.0,-4.7309,0.0,-4.7309,-4.7309,-4.7309,-4.7309,-4.7309,-4.7309,-4.7309,-4.7309,-4.7309,-4.7309,-4.7309,-4.7309,-4.6217,-4.3858,-4.3469,-4.329,-4.329,-4.329,-4.329,-4.329,-4.329,-4.329,-4.329,-4.329,-4.329,-4.329,-4.329,-4.329,-4.329,-4.329,-4.329,-4.329,-4.329,-4.329,-4.329,-4.329,-4.329,-4.3409,-4.4189,-4.4419,-4.4419,-4.4419,-4.4419,-4.4419,-4.4419,-4.4419,-4.4266,-4.3488,-4.329,-4.329,-4.329,-4.329,-4.329,-4.329,-4.329,-4.329,-4.329,-4.1481,-3.9828,0.0,0.0,0.0,-3.9388,-3.9388,0.0,0.0,-3.9388,-3.9388,-3.9388,0.0,0.0,0.0,0.0,-3.9388,-3.9388,-3.9388,0.0,0.0,0.0,0.0,0.0,-4.16,0.0,-4.329,0.0,-4.2776,-4.35,-4.2911,-4.3006,-4.3572,-3.9118,-3.7496,-3.8145,-3.8145,-3.9298,-4.1133,-4.1047,-4.1409,-4.1916,-4.0783,-4.1207,-4.2555,-4.3221,-4.3479,-4.3402,-4.543,-4.6606,-4.6606,-4.6606,-4.6995,-4.7309,-4.7309,-4.7309,-4.7309,-4.7309,-4.7309,-4.7309,-4.7309,-4.7309,-4.7309,-4.7309,-4.7309,0.0,-4.7309,-4.7309,-4.7309,-4.7309,-4.7309,-4.7085,-4.6621,-4.4411,-4.329,-4.329,-4.329,-4.329,-4.329,-4.329,-4.329,-4.329,-4.329,-4.329,-4.329,-4.329,0.0,-4.329,-4.329,-4.329,-4.329,-4.329,-4.329,-4.329,-4.329,-4.329,-4.3329,-4.3488,-4.3527,-4.3527,-4.3527,-4.3527,-4.3527,-4.3527,-4.3527,-4.3488,-4.3329,-4.329,-4.329,-4.329,-4.329,-4.329,-4.329,-4.329,-4.329,-4.329,-4.2931,-4.1944,-3.9792,0.0,0.0,0.0,0.0,0.0,0.0,0.0,-3.9388,-3.9388,-3.9388,-3.9388,0.0,0.0,0.0,-3.9388,-3.9388,0.0,0.0,0.0,0.0,0.0,0.0,0.0,0.0,0.0,0.0,-3.7821,-3.8535,-3.8922,-3.906,-3.8163,-3.7811,-3.7932,-3.7932,-3.8171,-3.8524,-3.7989,-3.8271,-3.9009,-3.943,-4.0474,-4.1851,-4.2523,-4.279,-4.2852,-4.2651,-4.3361,-4.3361,-4.3361,-4.5539,0.0,0.0,-4.7309,-4.7309,-4.7309,-4.7309,-4.7309,-4.7309,-4.7309,-4.7309,-4.7309,-4.7309,-4.7309,-4.7309,-4.7309,-4.7309,-4.7309,-4.7309,-4.7309,-4.7309,-4.465,-4.329,-4.329,0.0,-4.329,-4.329,-4.329,-4.329,-4.329,-4.329,-4.329,0.0,0.0,0.0,-4.329,-4.329,-4.329,-4.329,-4.329,-4.329,-4.329,-4.329,-4.329,-4.329,-4.329,-4.329,-4.329,-4.329,-4.329,-4.329,-4.329,-4.329,-4.329,-4.329,-4.329,-4.329,-4.329,-4.329,-4.329,-4.329,-4.329,-4.329,-4.329,-4.329,-4.2482,-3.9866,-3.9388,0.0,0.0,0.0,0.0,0.0,0.0,-3.9388,-3.9388,-3.9388,-3.9388,0.0,0.0,0.0,0.0,0.0,0.0,0.0,0.0,0.0,0.0,0.0,0.0,0.0,0.0,0.0,-3.6417,-3.6888,-3.7426,-3.79,-3.79,-3.79,-3.79,-3.79,-3.79,-3.79,-3.81,-3.8408,-3.8807,-3.9201,-3.9818,-4.0509,-4.0836,-4.0922,-4.1158,-3.9697,-3.9697,-4.0032,-4.1119,-4.4642,-4.7309,-4.7309,-4.7309,-4.7309,-4.7309,-4.7309,-4.7309,-4.7309,-4.7309,-4.7309,-4.7309,-4.7309,-4.7309,-4.7309,-4.7309,-4.7309,-4.7309,-4.7309,-4.7309,-4.7309,-4.5244,-4.3858,0.0,0.0,0.0,0.0,-4.329,0.0,0.0,0.0,0.0,0.0,0.0,-4.329,-4.329,-4.329,-4.329,-4.329,-4.329,-4.329,-4.329,-4.329,-4.329,-4.329,-4.329,-4.329,-4.329,-4.329,-4.329,-4.329,-4.329,-4.329,-4.329,-4.329,-4.329,-4.329,-4.329,-4.329,-4.329,-4.329,-4.329,-4.329,-4.329,-4.329,-4.2662,-4.0599,-3.9762,0.0,0.0,0.0,0.0,0.0,0.0,-3.9388,-3.9388,-3.9388,-3.9388,-3.9388,0.0,0.0,0.0,0.0,0.0,0.0,0.0,0.0,0.0,0.0,-3.7357,-3.3154,0.0,-4.0017,0.0,-3.6606,-3.7134,-3.79,-3.8129,-3.8207,-3.8207,-3.8207,-3.793,-3.7514,-3.8414,-3.8792,-3.8792,-3.8792,-3.8841,-3.8922,-3.9068,-3.943,-4.0091,-3.9697,-3.9697,-4.1169,0.0,0.0,0.0,-4.7309,-4.7309,-4.7309,-4.7309,-4.7309,-4.7309,-4.7309,-4.7309,-4.7309,-4.7309,-4.7309,-4.7309,-4.7309,-4.7309,-4.7309,-4.7309,-4.7309,-4.7309,-4.7309,-4.7055,-4.5753,0.0,0.0,-4.329,0.0,0.0,0.0,0.0,0.0,0.0,0.0,-4.329,-4.329,-4.329,-4.329,-4.329,-4.329,-4.329,-4.329,-4.329,-4.329,-4.329,-4.329,-4.329,-4.329,-4.329,-4.329,-4.329,-4.329,-4.329,-4.329,-4.329,-4.329,-4.329,-4.329,-4.329,-4.329,-4.329,-4.329,-4.329,-4.329,-4.329,-4.329,-4.323,-4.2976,-4.0988,-3.9388,0.0,0.0,0.0,0.0,0.0,-3.9388,-3.9388,-3.9388,-3.9388,0.0,-3.9388,0.0,0.0,0.0,0.0,0.0,0.0,0.0,-3.9388,0.0,-3.7357,-3.3154,-3.5729,0.0,-3.6405,-3.732,-3.7808,-3.7946,-3.8782,-3.9172,-3.9172,-3.9172,-3.7941,-3.5967,-3.6855,-3.7212,-3.7212,-3.7212,-3.7228,-3.7327,-3.8052,-3.9621,-4.1423,0.0,0.0,0.0,0.0,0.0,0.0,0.0,-4.7309,-4.7309,-4.7309,-4.7309,-4.7309,-4.7309,-4.7309,-4.7309,-4.7309,-4.7309,-4.7309,-4.7309,-4.7309,-4.7309,-4.7309,-4.7309,-4.7309,-4.7309,-4.7309,-4.6785,0.0,0.0,0.0,0.0,0.0,0.0,0.0,0.0,-4.329,-4.329,-4.329,-4.329,-4.329,-4.329,-4.329,-4.329,-4.329,-4.329,-4.329,-4.329,-4.329,-4.329,-4.329,-4.329,-4.329,-4.329,-4.329,-4.329,-4.329,-4.329,-4.329,-4.329,-4.329,-4.329,-4.329,-4.329,-4.329,-4.329,-4.329,-4.329,-4.329,-4.329,-4.329,-4.329,-4.2438,-4.1212,0.0,0.0,0.0,0.0,0.0,0.0,-3.9388,-3.9388,-3.9388,-3.9388,0.0,0.0,0.0,0.0,0.0,0.0,0.0,0.0,-3.9388,0.0,-3.7357,-3.3154,-3.5299,-3.67,-3.7273,-3.7087,-3.7333,-3.79,-3.8298,-3.8466,-3.8466,-3.9038,-3.8762,-3.791,-3.825,-3.7511,-3.623,-3.623,-3.6547,-3.7017,-3.7366,-3.8972,-4.0987,-3.9697,0.0,-4.507,0.0,-4.6299,-4.7309,-4.7309,-4.7309,-4.7309,-4.7309,-4.7309,-4.7309,-4.7309,-4.7309,-4.7309,-4.7309,-4.7309,-4.7309,-4.7309,-4.7309,-4.7309,-4.7309,-4.7309,0.0,-4.7309,-4.7309,-4.7309,-4.7309,-4.459,0.0,0.0,0.0,0.0,0.0,-4.329,-4.329,-4.329,-4.329,-4.329,-4.329,-4.329,-4.329,-4.329,-4.329,-4.329,-4.329,-4.329,-4.329,-4.329,-4.329,-4.329,-4.329,-4.329,-4.329,-4.314,-4.2363,-4.2692,-4.329,-4.329,-4.329,-4.329,-4.329,-4.329,-4.329,-4.329,-4.329,-4.329,-4.329,-4.329,-4.329,-4.329,-4.329,-4.2692,-4.0838,0.0,0.0,0.0,-3.9388,0.0,-3.9388,-3.9388,-3.9388,-3.9388,-3.9388,0.0,0.0,0.0,0.0,0.0,0.0,0.0,0.0,0.0,0.0,0.0,-3.5299,-3.6888,-3.79,-3.718,-3.7227,-3.79,-3.79,-3.79,-3.7946,-3.8904,-3.9305,-3.9305,-3.9305,-3.7881,-3.571,-3.571,-3.623,-3.6978,-3.6978,-3.8494,-4.0593,-3.9697,-3.9736,-3.9788,-3.9788,-4.3975,-4.7309,-4.7309,-4.7309,-4.7309,-4.7309,-4.7309,-4.7309,-4.7309,-4.7309,-4.7309,-4.7309,-4.7309,-4.7309,-4.7309,-4.7309,-4.7309,0.0,0.0,-4.7309,-4.7309,-4.7309,-4.7309,-4.7309,0.0,0.0,-4.329,0.0,-4.329,-4.329,-4.329,-4.329,-4.329,-4.329,-4.329,-4.329,-4.329,-4.329,-4.329,-4.329,-4.329,-4.329,-4.329,-4.329,-4.329,-4.329,-4.329,-4.329,-4.329,-4.329,-4.2781,-4.0195,-4.1272,-4.329,-4.329,-4.329,-4.329,-4.329,-4.329,-4.329,-4.329,-4.329,-4.329,-4.329,-4.329,-4.329,-4.329,-4.329,-4.329,-4.3245,0.0,0.0,0.0,0.0,0.0,-3.9388,-3.9388,-3.9388,-3.9388,-3.9388,0.0,0.0,0.0,0.0,0.0,0.0,0.0,-3.3313,-3.7242,0.0,-3.3154,-3.5299,-3.6888,-3.79,-3.79,-3.79,-3.79,-3.79,-3.79,-3.7946,-3.8904,-3.9305,-3.9305,-3.9305,-3.7881,-3.571,-3.571,-3.623,-3.6978,-3.6978,-3.8494,-4.0593,-3.9697,-3.9697,-3.9697,-3.9697,-4.1644,-4.2985,-4.2217,-4.273,-4.4172,-4.6931,-4.7309,-4.7309,-4.7309,-4.7309,-4.7309,0.0,-4.7309,-4.7309,0.0,-4.7309,-4.7309,-4.7309,-4.7309,-4.7309,-4.7309,-4.7309,-4.7309,-4.7309,0.0,0.0,0.0,-4.329,-4.329,-4.329,-4.329,-4.329,-4.329,-4.329,-4.329,-4.329,-4.329,-4.329,-4.329,-4.329,-4.329,-4.329,-4.329,-4.329,-4.329,-4.329,-4.329,-4.329,-4.329,-4.329,-4.3125,-4.2288,-4.2647,-4.2901,-4.1122,-4.0629,-4.0629,-4.0629,-4.1974,-4.329,-4.329,-4.329,-4.329,-4.329,-4.329,-4.329,-4.329,-4.329,-4.329,-4.329,-4.2587,0.0,0.0,0.0,-3.8345,-3.5453,-3.7639,-3.9388,0.0,-3.6802,0.0,0.0,0.0,0.0,0.0,0.0,0.0,0.0,-3.4387,0.0,-3.3124,-3.5299,-3.6888,-3.79,-3.79,-3.79,-3.79,-3.8557,-3.8872,-3.8778,-3.7441,-3.6863,-3.6891,-3.7469,-3.7296,-3.6587,-3.6587,-3.6744,-3.707,-3.7634,-3.83,-3.8965,-3.9697,-3.9697,-3.9697,-3.9697,-4.0249,-4.0453,-3.98,-4.0605,-4.2199,-4.473,-4.5067,-4.5067,-4.5067,-4.5067,0.0,-4.7164,-4.7309,-4.7309,-4.7309,-4.7309,-4.7309,-4.7309,-4.7309,-4.7309,-4.7309,0.0,0.0,-4.7309,-4.7309,-4.5948,-4.329,-4.329,-4.329,-4.329,-4.329,-4.329,-4.329,-4.329,-4.329,-4.329,-4.329,-4.329,-4.329,-4.329,-4.329,-4.329,-4.329,-4.329,-4.329,-4.329,-4.329,-4.329,-4.329,-4.329,-4.329,-4.329,-4.329,-4.2931,-4.1302,-4.0853,-4.0853,-4.0853,-4.1331,-4.2079,-4.3065,-4.329,-4.329,-4.329,-4.329,-4.329,-4.329,-4.329,-4.2725,-4.0986,-4.2152,-4.2722,-4.1077,0.0,0.0,0.0,0.0,0.0,0.0,-3.4664,0.0,0.0,0.0,0.0,0.0,0.0,0.0,-3.3124,-3.3124,0.0,-3.4888,-3.5911,-3.6888,-3.79,-3.8253,-3.8434,-3.8434,-3.8692,-3.8641,-3.8335,-3.6851,-3.6191,-3.627,-3.7095,-3.7443,-3.7443,-3.7443,-3.7443,-3.7519,-3.8014,-3.8202,-3.8202,-3.9697,-3.9697,0.0,0.0,-3.9697,0.0,-3.9697,-4.0555,-4.1161,-4.1161,-4.1261,-4.1311,-4.1311,-4.1311,-4.2819,-4.6565,0.0,0.0,0.0,-4.7204,-4.7309,-4.7309,-4.7309,-4.7309,-4.7309,-4.7309,-4.7164,-4.6887,-4.7164,-4.5896,-4.3182,-4.2989,-4.3076,-4.329,-4.329,-4.329,-4.329,-4.3036,-4.2915,-4.2955,-4.321,-4.329,-4.329,-4.329,-4.329,-4.325,-4.3036,-4.2915,-4.2955,-4.321,-4.313,-4.2915,-4.2915,-4.3076,-4.329,-4.329,-4.329,-4.329,-4.329,-4.329,-4.329,-4.329,-4.1299,-3.9936,-4.2367,-4.2915,-4.2896,-4.2718,-4.2996,-4.329,-4.329,-4.3076,-4.1504,-3.7103,-4.0017,-4.2805,-4.2805,0.0,0.0,0.0,0.0,0.0,0.0,-3.3124,-3.3124,0.0,0.0,0.0,0.0,0.0,-3.3124,-3.3124,-3.3167,-3.4722,-3.7887,-3.6981,-3.6981,-3.79,-3.8782,-3.9261,-3.9261,-3.8389,-3.7665,-3.7074,-3.6931,-3.69,-3.6978,-3.7787,-3.8127,-3.8127,-3.8127,-3.8127,-3.8127,-3.8165,-3.8202,-3.8202,0.0,0.0,-3.9697,-3.9697,-3.9697,-3.9697,-3.9697,-3.9903,-4.0096,-4.0096,-4.0808,-4.1311,-4.1311,-4.1311,-4.1683,-4.2625,-4.5522,-4.6441,-4.4366,-4.6172,-4.7309,-4.7309,-4.7309,-4.7309,-4.7309,-4.7309,-4.5808,-4.2722,-4.5808,-4.5399,-4.1747,-3.9983,-4.066,-4.329,-4.329,-4.329,-4.3115,-4.036,-3.9176,-3.9441,-4.2181,-4.329,-4.329,-4.329,-4.329,-4.2955,-4.0158,-3.9176,-3.9604,-4.236,-4.1463,-3.9176,-3.9176,-4.1085,-4.329,-4.329,-4.329,-4.329,-4.329,-4.329,-4.329,-4.329,-4.077,-3.8411,-3.9054,-3.9176,-3.8648,-3.6877,-4.0141,-4.329,-4.329,-4.1043,-3.8594,-3.6675,-3.7322,-3.8017,-3.8017,-3.6654,0.0,0.0,-3.3124,-3.3124,-3.3124,-3.3124,-3.3124,0.0,0.0,0.0,0.0,0.0,-3.3124,-3.3124,-3.3738,-3.5319,-3.7887,-3.7657,-3.7657,-3.79,-3.8116,-3.8602,-3.9305,-3.9083,-3.8519,-3.7626,-3.651,-3.5991,-3.6071,-3.694,-3.7289,-3.7289,-3.7289,-3.7289,-3.7366,-3.7976,-3.8202,-3.8202,-3.9697,-3.9697,-3.9697,-3.9697,-3.9697,-3.9697,-3.9697,-3.9697,-3.9697,-3.9697,-4.0198,-4.0757,-4.1274,-4.1311,-4.1311,-4.1311,-4.2318,-4.2373,-4.0915,-4.2189,-4.2998,-4.2998,-4.5742,-4.6462,-4.4591,-4.4545,-4.2973,-3.9756,-4.2973,-4.3416,-4.1285,-4.0043,-3.9957,-4.0831,-4.0831,-4.0831,-4.0703,-3.8711,-3.79,-3.807,-4.0027,-4.0831,-4.0831,-4.0831,-4.0831,-4.0575,-3.8589,-3.79,-3.8194,-4.0158,-3.9823,-3.8557,-3.8557,-3.9881,-4.1492,-4.1492,-4.2319,-4.3036,-4.1825,-4.1492,-4.1352,-4.0916,-3.9353,-3.79,-3.79,-3.79,-3.7547,-3.6266,-3.8601,-4.0831,-4.0831,-3.8836,-3.7041,-3.6499,-3.6405,-3.6405,-3.6405,-3.6405,0.0,-3.4758,-3.462,-3.462,-3.462,-3.3715,-3.3124,-3.3124,0.0,0.0,-3.462,-3.462,-3.4799,-3.527,-3.5742,-3.6606,-3.79,-3.79,-3.79,-3.79,-3.79,-3.8161,-3.8652,-3.7949,-3.7378,-3.6904,-3.6777,-3.6769,-3.6886,-3.7352,-3.7558,-3.7558,-3.7558,-3.7787,-3.8127,-3.8165,-3.8202,-3.8202,-3.9697,-3.9697,-3.9697,-3.9697,-3.9697,-3.9697,-3.9697,-3.9697,-3.9697,-3.9697,-3.9697,-4.0057,-4.0959,-4.106,-4.098,-4.0778,-3.8882,-3.7762,-3.79,-3.79,-3.79,-3.79,-4.3367,-4.4776,-4.1361,-4.112,-3.9979,-3.79,-4.0187,-4.1311,-4.1311,-4.0971,-3.9756,-3.79,-3.79,-3.79,-3.79,-3.79,-3.79,-3.79,-3.79,-3.79,-3.79,-3.79,-3.79,-3.79,-3.79,-3.79,-3.79,-3.8083,-3.8647,-3.9305,-3.9305,-3.9305,-3.9305,-3.9305,-4.0901,-4.2196,-3.9938,-3.9216,-3.8904,-3.8083,-3.79,-3.79,-3.79,-3.79,-3.79,-3.79,-3.79,-3.79,-3.79,-3.7087,-3.6405,-3.6405,-3.6405,-3.6405,-3.6405,0.0,-3.6405,-3.6405,-3.6405,-3.6405,-3.6405,-3.4855,-3.3832,-3.3832,-3.5578,0.0,0.0,-3.6653,-3.7041,-3.7854,-3.79,-3.79,-3.79,-3.79,-3.79,-3.79,-3.79,-3.79,-3.788,-3.6737,-3.6049,-3.5791,-3.716,-3.7913,-3.8163,-3.8211,-3.8202,-3.8202,-3.8315,-3.8811,-3.9301,-3.8516,-3.8202,-3.8202,-3.9697,-3.9697,-3.9697,-3.9697,-3.9697,-3.9697,-3.9697,-3.9697,-3.9697,-3.9697,-3.9697,-3.9736,-3.9942,-3.9942,-3.9548,-3.8512,-3.7339,-3.6994,-3.7854,-3.79,-3.79,-3.79,-4.0683,-4.1931,-4.1311,-4.0194,-3.9053,-3.79,-4.0187,-4.1311,-4.1272,-3.9337,-3.824,-3.79,-3.79,-3.79,-3.79,-3.79,-3.79,-3.79,-3.79,-3.79,-3.79,-3.79,-3.79,-3.79,-3.79,-3.79,-3.8037,-3.8827,-3.9172,-3.9305,-3.9305,-3.9305,-3.9305,-3.9305,-3.9587,-3.9851,-3.9424,-3.8737,-3.8083,-3.7946,-3.79,-3.79,-3.79,-3.79,-3.79,-3.79,-3.79,-3.79,-3.79,-3.7087,-3.6405,-3.6405,-3.6405,-3.6405,-3.6405,0.0,-3.6405,-3.6405,-3.6405,-3.6405,-3.6405,-3.686,-3.7183,-3.7183,-3.7462,-3.767,-3.767,-3.767,-3.7762,-3.79,-3.79,-3.79,-3.79,-3.79,-3.79,-3.79,-3.79,-3.79,-3.7933,-3.8483,-3.7636,-3.5737,-3.671,-3.7467,-3.7985,-3.8139,-3.8202,-3.8277,-3.8958,-3.9301,-3.9301,-3.8516,-3.8202,-3.8202,-3.9697,-3.9697,-3.9697,-3.9697,-3.9697,-3.9697,-3.9697,-3.9697,-3.9697,-3.9697,-3.9697,-3.9697,-3.9697,-3.9697,-3.8995,-3.7232,-3.6653,-3.6606,-3.7087,-3.7087,-3.732,-3.7854,-3.8919,-3.9707,-4.0201,-3.9636,-3.8827,-3.79,-3.8958,-3.9481,-3.9455,-3.8397,-3.79,-3.79,-3.79,-3.8161,-3.8602,-3.8129,-3.79,-3.79,-3.79,-3.79,-3.79,-3.79,-3.79,-3.79,-3.79,-3.8207,-3.8737,-3.9172,-3.9305,-3.9305,-3.9305,-3.9305,-3.9305,-3.9305,-3.9305,-3.9305,-3.9305,-3.8993,-3.8512,-3.8037,-3.79,-3.79,-3.79,-3.79,-3.79,-3.79,-3.79,-3.79,-3.79,-3.7087,-3.6405,-3.6405,-3.6405,0.0,0.0,-3.6405,-3.6405,-3.6405,-3.6405,-3.6606,-3.718,-3.7611,-3.79,-3.79,-3.79,-3.79,-3.79,-3.79,-3.79,-3.79,-3.79,-3.79,-3.79,-3.79,-3.79,-3.79,-3.79,-3.79,-3.79,-3.8344,-3.8224,-3.7624,-3.7211,-3.7146,-3.7505,-3.8422,-3.881,-3.8885,-3.9265,-3.9388,-3.9301,-3.8516,-3.8202,-3.8202,-3.9697,-3.9697,-3.9697,-3.9697,-3.9697,-3.9697,-3.9697,-3.9697,-3.9697,-3.9697,-3.9697,-3.9697,-3.9697,-3.9233,-3.8228,-3.6556,-3.6405,-3.6405,-3.6405,-3.6593,-3.6994,-3.7518,-3.7979,-3.8557,-3.9305,-3.9305,-3.8948,-3.8207,-3.7992,-3.79,-3.79,-3.79,-3.79,-3.79,-3.8116,-3.8647,-3.9261,-3.8512,-3.8083,-3.79,-3.79,-3.79,-3.79,-3.79,-3.79,-3.7946,-3.8161,-3.8692,-3.9305,-3.9305,-3.9305,-3.9305,-3.9305,-3.9305,-3.9197,-3.864,-3.8871,-3.9305,-3.9305,-3.9305,-3.9127,-3.8434,-3.8083,-3.79,-3.79,-3.79,-3.79,-3.79,-3.79,-3.79,-3.79,-3.7087,-3.6405,-3.6405,0.0,0.0,0.0,-3.6405,-3.6405,-3.6405,-3.6606,-3.7041,-3.7808,-3.79,-3.79,-3.79,-3.79,-3.79,-3.79,-3.79,-3.79,-3.79,-3.79,-3.79,-3.79,-3.79,-3.79,-3.79,-3.79,-3.7992,-3.8207,-3.7992,-3.8298,-3.8944,-3.7965,-3.7314,-3.7094,-3.8296,-3.9016,-3.9373,-3.9379,-3.9388,-3.9301,-3.8516,-3.8202,-3.8202,-3.9697,-3.9697,-3.9697,-3.9697,-3.9697,-3.9697,-3.9697,-3.9697,-3.9697,-3.9697,-3.9697,-3.9697,-3.9697,-3.7888,-3.6593,-3.6417,-3.6405,-3.6405,-3.6405,-3.7273,-3.7426,-3.6546,-3.8245,-3.9216,-3.9305,-3.9305,-3.9261,-3.9216,-3.8344,-3.79,-3.79,-3.79,-3.79,-3.7946,-3.8827,-3.9261,-3.9305,-3.9216,-3.8692,-3.79,-3.79,-3.79,-3.79,-3.79,-3.79,-3.7992,-3.8859,-3.9261,-3.9305,-3.9305,-3.9305,-3.9305,-3.9305,-3.9305,-3.8871,-3.6632,-3.7555,-3.9305,-3.9305,-3.9305,-3.9305,-3.9216,-3.8557,-3.79,-3.79,-3.79,-3.79,-3.79,-3.79,-3.79,-3.79,-3.7087,-3.6405,-3.6405,0.0,0.0,-3.6405,-3.6405,-3.6405,-3.6405,-3.7227,-3.7808,-3.79,-3.79,-3.79,-3.79,-3.79,-3.79,-3.79,-3.79,-3.79,-3.79,-3.79,-3.79,-3.79,-3.79,-3.79,-3.79,-3.79,-3.8344,-3.9172,-3.8298,-3.7946,-3.807,-3.8805,-3.8323,-3.7007,-3.7097,-3.8006,-3.9312,-3.9384,-3.9388,-3.9301,-3.8516,-3.8202,-3.8202,-3.9697,-3.9697,-3.9697,-3.9697,-3.9697,-3.9697,-3.9697,-3.9697,-3.9697,-3.9697,-3.9697,-3.9697,-3.9697,-3.775,-3.6405,-3.6405,-3.6405,-3.6405,-3.6405,-3.6747,-3.6794,-3.6417,-3.7095,-3.8063,-3.9247,-3.9305,-3.9305,-3.9305,-3.8344,-3.79,-3.79,-3.8512,-3.8782,-3.8782,-3.9127,-3.9305,-3.9305,-3.9305,-3.9083,-3.8737,-3.8116,-3.79,-3.7946,-3.8557,-3.8782,-3.8827,-3.9172,-3.9305,-3.9305,-3.9305,-3.9305,-3.9305,-3.9305,-3.8274,-3.6904,-3.5981,-3.7419,-3.8966,-3.7473,-3.708,-3.7433,-3.8939,-3.7933,-3.6933,-3.8448,-3.8782,-3.8782,-3.8782,-3.8298,-3.79,-3.79,-3.7087,-3.6405,-3.6405,0.0,-3.6405,-3.6405,-3.6405,-3.6405,-3.6405,-3.7273,-3.79,-3.79,-3.79,-3.79,-3.79,-3.79,-3.79,-3.79,-3.79,-3.79,-3.79,-3.79,-3.79,-3.79,-3.79,-3.79,-3.79,-3.79,-3.8083,-3.8434,-3.8692,-3.8421,-3.7946,-3.8904,-3.8106,-3.623,-3.6783,-3.7342,-3.795,-3.8947,-3.9072,-3.8627,-3.8315,-3.8202,-3.8202,-3.9697,-3.9697,-3.9697,-3.9697,-3.9697,-3.9459,-3.8755,-3.9245,-3.9697,-3.9697,-3.9697,-3.9433,-3.873,-3.7322,-3.6405,-3.6405,-3.6405,-3.6405,-3.6405,-3.6405,-3.6405,-3.6405,-3.6405,-3.7328,-3.9261,-3.9601,-3.9601,-3.9305,-3.8647,-3.8344,-3.8344,-3.8993,-3.9305,-3.9305,-3.9305,-3.9305,-3.9305,-3.9305,-3.9482,-3.9634,-3.8186,-3.7905,-3.8434,-3.9038,-3.9305,-3.9305,-3.9305,-3.9305,-3.9305,-3.9305,-3.9305,-3.9169,-3.841,-3.7039,-3.571,-3.571,-3.7084,-3.8317,-3.7164,-3.6498,-3.6428,-3.7801,-3.6931,-3.6144,-3.7799,-3.8762,-3.9305,-3.9305,-3.8557,-3.79,-3.79,-3.7087,-3.6593,-3.7235,-3.6815,-3.6499,-3.6841,-3.6606,-3.6512,-3.6841,-3.7472,-3.79,-3.79,-3.79,-3.79,-3.79,-3.79,-3.79,-3.79,-3.79,-3.79,-3.79,-3.79,-3.8037,-3.8344,-3.8037,-3.79,-3.79,-3.79,-3.8037,-3.8344,-3.8993,-3.8948,-3.8389,-3.9038,-3.8369,-3.6823,-3.6667,-3.6744,-3.7108,-3.8436,-3.8305,-3.7467,-3.8014,-3.8202,-3.8202,-3.9697,-3.9697,-3.9697,-3.9697,-3.9685,-3.8919,-3.6757,-3.8241,-3.9672,-3.9697,-3.9672,-3.8831,-3.6656,-3.6405,-3.6405,-3.6405,-3.6405,-3.6405,-3.6405,-3.6405,-3.6405,-3.6405,-3.6405,-3.7328,-3.9261,-4.0213,-4.0257,-3.9305,-3.9305,-3.9305,-3.9305,-3.9305,-3.9305,-3.9305,-3.9305,-3.9305,-3.9305,-3.9305,-3.9865,-4.0491,-3.8004,-3.7937,-3.9278,-3.9292,-3.9305,-3.9305,-3.9305,-3.9305,-3.9305,-3.9305,-3.9292,-3.8857,-3.6469,-3.571,-3.571,-3.571,-3.631,-3.7328,-3.8888,-3.8159,-3.6783,-3.5911,-3.571,-3.571,-3.571,-3.7582,-3.9305,-3.9305,-3.8557,-3.79,-3.79,-3.7087,-3.7049,-3.898,-3.7697,-3.6747,-3.7762,-3.7041,-3.6794,-3.7762,-3.79,-3.79,-3.79,-3.79,-3.79,-3.79,-3.79,-3.79,-3.79,-3.79,-3.79,-3.79,-3.79,-3.8344,-3.9305,-3.8389,-3.79,-3.79,-3.79,-3.8389,-3.9305,-3.9305,-3.9305,-3.9305,-3.9278,-3.9278,-3.9115,-3.6727,-3.6244,-3.7095,-3.7901,-3.7197,-3.5911,-3.7582,-3.8202,-3.8202,-3.9697,-3.9697,-3.9697,-3.9697,-3.8391,-3.7172,-3.6505,-3.6971,-3.7914,-3.9484,-3.8329,-3.7147,-3.648,-3.6405,-3.6405,-3.6405,-3.6405,-3.6405,-3.6405,-3.6405,-3.6405,-3.6405,-3.7697,-3.9011,-4.0257,-4.0573,-4.0257,-3.9305,-3.9305,-3.9305,-3.9305,-3.9305,-3.9305,-3.9305,-3.9305,-3.9305,-3.9349,-3.9996,-4.043,-4.0631,-3.9887,-3.8823,-3.7784,-3.8872,-3.9305,-3.9305,-3.9305,-3.9305,-3.9305,-3.9305,-3.8179,-3.6659,-3.594,-3.571,-3.5831,-3.6429,-3.635,-3.6316,-3.7409,-3.7342,-3.6783,-3.5911,-3.571,-3.571,-3.571,-3.7582,-3.9127,-3.8421,-3.8083,-3.79,-3.79,-3.8181,-3.8607,-3.9216,-3.8272,-3.7564,-3.7854,-3.7657,-3.7564,-3.7854,-3.79,-3.79,-3.79,-3.79,-3.79,-3.79,-3.79,-3.79,-3.79,-3.79,-3.79,-3.79,-3.79,-3.8344,-3.9305,-3.8389,-3.79,-3.79,-3.8557,-3.9038,-3.9305,-3.9305,-3.9305,-3.921,-3.7514,-3.7745,-3.9237,-3.8532,-3.7731,-3.7095,-3.7901,-3.7886,-3.739,-3.6691,-3.7197,-3.8202,-3.9697,-3.8981,-3.8655,-3.9534,-3.7888,-3.6405,-3.6405,-3.6405,-3.6895,-3.8203,-3.7247,-3.6405,-3.6405,-3.6405,-3.6405,-3.6405,-3.6405,-3.6405,-3.6405,-3.6405,-3.6405,-3.6405,-3.7513,-3.8953,-4.0659,-4.0702,-4.0257,-3.9305,-3.9305,-3.9305,-3.9305,-3.9305,-3.9305,-3.9305,-3.9305,-3.9526,-3.9865,-4.0487,-4.0702,-4.0702,-4.0702,-3.9198,-3.7108,-3.8035,-3.8781,-3.9305,-3.9305,-3.8695,-3.7881,-3.7881,-3.6917,-3.571,-3.571,-3.5951,-3.623,-3.6429,-3.635,-3.631,-3.6861,-3.6978,-3.6861,-3.635,-3.5951,-3.5967,-3.6917,-3.7957,-3.8602,-3.8037,-3.79,-3.7992,-3.8389,-3.8904,-3.9305,-3.9305,-3.8512,-3.79,-3.79,-3.79,-3.79,-3.79,-3.79,-3.79,-3.79,-3.79,-3.79,-3.79,-3.79,-3.79,-3.79,-3.79,-3.8083,-3.8434,-3.8421,-3.8737,-3.9305,-3.8737,-3.8253,-3.79,-3.8466,-3.8948,-3.9305,-3.9305,-3.9305,-3.9224,-3.7758,-3.7419,-3.7962,-3.8912,-3.8179,-3.6587,-3.739,-3.7938,-3.8089,-3.7067,-3.712,-3.7787,-3.9396,-3.7764,-3.7059,-3.9044,-3.7762,-3.6405,-3.6405,-3.6405,-3.6405,-3.6405,-3.6405,-3.6405,-3.6405,-3.6405,-3.6405,-3.6405,-3.6405,-3.6405,-3.6405,-3.6405,-3.6405,-3.6405,-3.6405,-3.7625,-4.0243,-4.0559,-4.0257,-3.9438,-3.9349,-3.9305,-3.9305,-3.9305,-3.9305,-3.9305,-3.9394,-3.9908,-4.0702,-4.0702,-4.0702,-4.0702,-4.0702,-3.9254,-3.7095,-3.7095,-3.7977,-3.9199,-3.9023,-3.7582,-3.571,-3.571,-3.571,-3.571,-3.579,-3.635,-3.6822,-3.6031,-3.6389,-3.6978,-3.6978,-3.6978,-3.6978,-3.69,-3.6436,-3.6564,-3.8671,-3.8512,-3.79,-3.79,-3.7789,-3.7981,-3.8803,-3.9156,-3.9305,-3.9305,-3.8512,-3.79,-3.79,-3.79,-3.7946,-3.8037,-3.8037,-3.7992,-3.79,-3.79,-3.79,-3.79,-3.79,-3.79,-3.79,-3.7992,-3.8434,-3.9261,-3.9305,-3.9305,-3.9305,-3.9305,-3.8859,-3.8037,-3.8037,-3.8466,-3.9305,-3.9305,-3.9305,-3.9292,-3.9074,-3.7745,-3.5886,-3.8156,-3.7733,-3.579,-3.6587,-3.7366,-3.8089,-3.8165,-3.7749,-3.7211,-3.7134,-3.6744,-3.6556,-3.7046,-3.6732,-3.6405,-3.6405,-3.6405,-3.6405,-3.6405,-3.6405,-3.6405,-3.6405,-3.6405,-3.6405,-3.6405,-3.6405,-3.6405,-3.6405,-3.6405,-3.6405,-3.6405,-3.6405,-3.6675,-3.7315,-3.9516,-4.0616,-4.0386,-3.9645,-3.9305,-3.9305,-3.9305,-3.9305,-3.9349,-4.0083,-4.053,-4.0702,-4.0702,-4.0702,-4.0702,-4.0702,-3.9568,-3.7938,-3.7938,-3.8155,-3.8279,-3.6974,-3.6157,-3.571,-3.571,-3.571,-3.5831,-3.6508,-3.6861,-3.694,-3.6783,-3.6861,-3.6978,-3.6978,-3.6978,-3.6822,-3.6151,-3.726,-3.8448,-3.827,-3.8037,-3.79,-3.79,-3.6963,-3.6248,-3.6455,-3.803,-3.9305,-3.9305,-3.8512,-3.79,-3.79,-3.79,-3.8161,-3.8904,-3.8993,-3.8692,-3.7992,-3.79,-3.79,-3.79,-3.79,-3.79,-3.79,-3.8602,-3.9083,-3.9305,-3.9305,-3.9305,-3.9305,-3.9305,-3.9216,-3.8993,-3.8993,-3.9083,-3.9305,-3.9305,-3.9305,-3.9197,-3.7311,-3.6198,-3.5791,-3.6996,-3.6793,-3.571,-3.5911,-3.6508,-3.7327,-3.7976,-3.8089,-3.7962,-3.6405,-3.6405,-3.6405,-3.6405,-3.6405,-3.6405,-3.6405,-3.6405,-3.6405,-3.6405,-3.6405,-3.6405,-3.6405,-3.6405,-3.6405,-3.6405,-3.6405,-3.6405,-3.6405,-3.6405,-3.6405,-3.6405,-3.6405,-3.7036,-3.8445,-3.8581,-3.9339,-4.0702,-3.9733,-3.9305,-3.9305,-3.9733,-3.9952,-3.9996,-4.0487,-4.0702,-4.0702,-4.0702,-4.0702,-4.0702,-4.0702,-3.969,-3.8202,-3.8202,-3.8202,-3.8089,-3.7197,-3.6375,-3.575,-3.6191,-3.631,-3.6389,-3.6861,-3.6978,-3.6978,-3.6978,-3.6978,-3.6978,-3.6978,-3.6978,-3.7063,-3.7343,-3.8034,-3.8512,-3.7992,-3.79,-3.7723,-3.6989,-3.6218,-3.6062,-3.7216,-3.845,-3.9057,-3.8323,-3.8033,-3.79,-3.79,-3.8298,-3.8737,-3.9261,-3.9305,-3.8904,-3.7992,-3.79,-3.79,-3.79,-3.79,-3.8083,-3.8557,-3.9038,-3.9305,-3.9305,-3.9305,-3.9305,-3.9305,-3.9305,-3.9305,-3.9292,-3.8138,-3.8193,-3.9305,-3.9305,-3.8667,-3.7514,-3.6266,-3.571,-3.575,-3.6191,-3.635,-3.627,-3.5871,-3.623,-3.7056,-3.7481,-3.7863,-3.8165,-3.6405,-3.6405,-3.6405,-3.6405,-3.6405,-3.6405,-3.6405,-3.6405,-3.6405,-3.6405,-3.6405,-3.6405,-3.6405,-3.6405,-3.6405,-3.6405,-3.6405,-3.6405,-3.6405,-3.6405,-3.6405,-3.6405,-3.6405,-3.7763,-4.0659,-3.79,-3.7579,-3.9968,-3.9689,-3.9526,-3.9557,-4.0343,-4.0702,-4.0702,-4.0702,-4.0702,-4.0702,-4.0702,-4.0534,-4.0266,-4.0266,-3.9427,-3.8202,-3.8202,-3.8202,-3.8202,-3.8202,-3.7236,-3.6031,-3.6744,-3.6978,-3.6978,-3.6978,-3.6978,-3.6978,-3.6978,-3.6978,-3.6978,-3.6978,-3.717,-3.7699,-3.8978,-3.8602,-3.7992,-3.8298,-3.8026,-3.7399,-3.6157,-3.579,-3.632,-3.8328,-3.8825,-3.85,-3.7198,-3.7531,-3.79,-3.79,-3.8692,-3.9305,-3.9305,-3.9305,-3.9038,-3.8434,-3.8083,-3.79,-3.79,-3.79,-3.8298,-3.9261,-3.9305,-3.9305,-3.9305,-3.9305,-3.9305,-3.9305,-3.8898,-3.8681,-3.8667,-3.6673,-3.6768,-3.8708,-3.9115,-3.822,-3.6307,-3.5886,-3.571,-3.571,-3.5871,-3.635,-3.694,-3.6191,-3.635,-3.7017,-3.7134,-3.7634,-3.8089,-3.6405,-3.6405,-3.6405,-3.6405,-3.6405,-3.6405,-3.6405,-3.6405,-3.6405,-3.6405,-3.6405,-3.6405,-3.6405,-3.6405,-3.6405,-3.6405,-3.6405,-3.6405,-3.6405,-3.6405,-3.6405,-3.6405,-3.6405,-3.7763,-4.0659,-3.79,-3.6581,-3.6989,-3.9339,-4.053,-4.053,-4.0659,-4.0702,-4.0702,-4.0702,-4.0702,-4.0702,-4.0702,-3.9864,-3.8534,-3.8534,-3.8393,-3.8202,-3.8202,-3.8202,-3.8202,-3.8202,-3.7596,-3.6822,-3.694,-3.6978,-3.6978,-3.6978,-3.6978,-3.6978,-3.6978,-3.6978,-3.6978,-3.6978,-3.7979,-3.903,-3.9268,-3.8602,-3.8344,-3.9952,-3.8658,-3.7069,-3.6853,-3.623,-3.5818,-3.6144,-3.6807,-3.7254,-3.7035,-3.7531,-3.79,-3.79,-3.8692,-3.9305,-3.9305,-3.9305,-3.9557,-4.0257,-3.8872,-3.79,-3.79,-3.79,-3.8298,-3.9261,-3.9305,-3.9305,-3.9305,-3.9305,-3.9305,-3.9305,-3.7243,-3.6198,-3.6198,-3.5873,-3.5886,-3.6266,-3.8355,-3.9129,-3.8708,-3.6619,-3.571,-3.575,-3.6508,-3.69,-3.6978,-3.6861,-3.69,-3.7095,-3.7787,-3.8127,-3.8165,-3.6405,-3.6405,-3.6405,-3.6405,-3.6405,-3.6405,-3.6405,-3.6405,-3.6405,-3.6405,-3.5336,-3.5047,-3.6279,-3.5311,-3.506,-3.6304,-3.6405,-3.6405,-3.6405,-3.6405,-3.6405,-3.6405,-3.6405,-3.7002,-3.8264,-3.8626,-3.8805,-3.8805,-4.0069,-4.0702,-4.0702,-4.0702,-4.0702,-4.0702,-4.0702,-4.0702,-4.0646,-3.969,-3.8898,-3.8202,-3.8202,-3.8202,-3.8202,-3.8202,-3.8202,-3.8202,-3.8202,-3.7976,-3.7596,-3.7134,-3.6978,-3.6978,-3.6978,-3.6978,-3.6978,-3.6978,-3.7962,-3.8934,-3.8435,-3.8794,-3.9305,-3.9305,-3.9394,-3.9689,-4.053,-3.9845,-3.8934,-3.838,-3.7973,-3.7591,-3.7178,-3.8197,-3.9058,-3.9058,-3.8394,-3.8083,-3.8602,-3.9038,-3.9305,-3.9305,-3.9305,-3.9645,-4.0616,-3.9952,-3.9038,-3.7992,-3.8389,-3.8859,-3.9305,-3.9305,-3.9305,-3.9305,-3.9305,-3.9305,-3.9305,-3.6917,-3.571,-3.571,-3.571,-3.571,-3.575,-3.7304,-3.7758,-3.7243,-3.6171,-3.5991,-3.6468,-3.6822,-3.6978,-3.6978,-3.6978,-3.6978,-3.7056,-3.7404,-3.7825,-3.8127]},{"header":{"parameterUnit":"m.s-1","parameterCategory":1,"la1":30.6,"la2":28.766,"lo1":-90.7593,"lo2":-88.6598,"dy":0.0162,"dx":0.0183,"nx":116,"ny":114,"refTime":"2023-05-03T00:00:00:Z","depth":0,"parameterNumber":3,"parameterNumberName":"V-component_of_WINDS"},"data":[0.0,0.0,0.0,0.0,0.0,0.0,0.0,0.0,0.0,0.0,0.0,0.0,0.0,0.0,0.0,0.0,0.0,0.0,0.0,0.0,0.0,0.0,0.0,0.0,0.0,0.0,0.0,0.0,0.0,0.0,0.0,0.0,0.0,0.0,0.0,0.0,0.0,0.0,0.0,0.0,0.0,0.0,0.0,0.0,0.0,0.0,0.0,0.0,0.0,0.0,0.0,0.0,0.0,0.0,0.0,0.0,0.0,0.0,0.0,0.0,0.0,0.0,0.0,0.0,0.0,0.0,0.0,0.0,0.0,0.0,0.0,0.0,0.0,0.0,0.0,0.0,0.0,0.0,0.0,0.0,0.0,0.0,0.0,0.0,0.0,0.0,0.0,0.0,0.0,0.0,0.0,0.0,0.0,0.0,0.0,0.0,0.0,0.0,0.0,0.0,0.0,0.0,0.0,0.0,0.0,0.0,0.0,0.0,0.0,0.0,0.0,0.0,0.0,0.0,0.0,0.0,0.0,0.0,0.0,0.0,0.0,0.0,0.0,0.0,0.0,0.0,0.0,0.0,0.0,0.0,0.0,0.0,0.0,0.0,0.0,0.0,0.0,0.0,0.0,0.0,0.0,0.0,0.0,0.0,0.0,0.0,0.0,0.0,0.0,0.0,0.0,0.0,0.0,0.0,0.0,0.0,0.0,0.0,0.0,0.0,0.0,0.0,0.0,0.0,0.0,0.0,0.0,0.0,0.0,0.0,0.0,0.0,0.0,0.0,0.0,0.0,0.0,0.0,0.0,0.0,0.0,0.0,0.0,0.0,0.0,0.0,0.0,0.0,0.0,0.0,0.0,0.0,0.0,0.0,0.0,0.0,0.0,0.0,0.0,0.0,0.0,0.0,0.0,0.0,0.0,0.0,0.0,0.0,0.0,0.0,0.0,0.0,0.0,0.0,0.0,0.0,0.0,0.0,0.0,0.0,0.0,0.0,0.0,0.0,0.0,0.0,0.0,0.0,0.0,0.0,0.0,0.0,0.0,0.0,0.0,0.0,0.0,0.0,0.0,0.0,0.0,0.0,0.0,0.0,0.0,0.0,0.0,0.0,0.0,0.0,0.0,0.0,0.0,0.0,0.0,0.0,0.0,0.0,0.0,0.0,0.0,0.0,0.0,0.0,0.0,0.0,0.0,0.0,0.0,0.0,0.0,0.0,0.0,0.0,0.0,0.0,0.0,0.0,0.0,0.0,0.0,0.0,0.0,0.0,0.0,0.0,0.0,0.0,0.0,0.0,0.0,0.0,0.0,0.0,0.0,0.0,0.0,0.0,0.0,0.0,0.0,0.0,0.0,0.0,0.0,0.0,0.0,0.0,0.0,0.0,0.0,0.0,0.0,0.0,0.0,0.0,0.0,0.0,0.0,0.0,0.0,0.0,0.0,0.0,0.0,0.0,0.0,0.0,0.0,0.0,0.0,0.0,0.0,0.0,0.0,0.0,0.0,0.0,0.0,0.0,0.0,0.0,0.0,0.0,0.0,0.0,0.0,0.0,0.0,0.0,0.0,0.0,0.0,0.0,0.0,0.0,0.0,0.0,0.0,0.0,0.0,0.0,0.0,0.0,0.0,0.0,0.0,0.0,0.0,0.0,0.0,0.0,0.0,0.0,0.0,0.0,0.0,0.0,0.0,0.0,0.0,0.0,0.0,0.0,0.0,0.0,0.0,0.0,0.0,0.0,0.0,0.0,0.0,0.0,0.0,0.0,0.0,0.0,0.0,0.0,0.0,0.0,0.0,0.0,0.0,0.0,0.0,0.0,0.0,0.0,0.0,0.0,0.0,0.0,0.0,0.0,0.0,0.0,0.0,0.0,0.0,0.0,0.0,0.0,0.0,0.0,0.0,0.0,0.0,0.0,0.0,0.0,0.0,0.0,0.0,0.0,0.0,0.0,0.0,0.0,0.0,0.0,0.0,0.0,0.0,0.0,0.0,0.0,0.0,0.0,0.0,0.0,0.0,0.0,0.0,0.0,0.0,0.0,0.0,0.0,0.0,0.0,0.0,0.0,0.0,0.0,0.0,0.0,0.0,0.0,0.0,0.0,0.0,0.0,0.0,0.0,0.0,0.0,0.0,0.0,0.0,0.0,0.0,0.0,0.0,0.0,0.0,0.0,0.0,0.0,0.0,0.0,0.0,0.0,0.0,0.0,0.0,0.0,0.0,0.0,0.0,0.0,0.0,0.0,0.0,0.0,0.0,0.0,0.0,0.0,0.0,0.0,0.0,0.0,0.0,0.0,0.0,0.0,0.0,0.0,0.0,0.0,0.0,0.0,0.0,0.0,0.0,0.0,0.0,0.0,0.0,0.0,0.0,0.0,0.0,0.0,0.0,0.0,0.0,0.0,0.0,0.0,0.0,0.0,0.0,0.0,0.0,0.0,0.0,0.0,0.0,0.0,0.0,0.0,0.0,0.0,0.0,0.0,0.0,0.0,0.0,0.0,0.0,0.0,0.0,0.0,0.0,0.0,0.0,0.0,0.0,0.0,0.0,0.0,0.0,0.0,0.0,0.0,0.0,0.0,0.0,0.0,0.0,0.0,0.0,0.0,0.0,0.0,0.0,0.0,0.0,0.0,0.0,0.0,0.0,0.0,0.0,0.0,0.0,0.0,0.0,0.0,0.0,0.0,0.0,0.0,0.0,0.0,0.0,0.0,0.0,0.0,0.0,0.0,0.0,0.0,0.0,0.0,0.0,0.0,0.0,0.0,0.0,0.0,0.0,0.0,0.0,0.0,0.0,0.0,0.0,0.0,0.0,0.0,0.0,0.0,0.0,0.0,0.0,0.0,0.0,0.0,0.0,0.0,0.0,0.0,0.0,0.0,0.0,0.0,0.0,0.0,0.0,0.0,0.0,0.0,0.0,0.0,0.0,0.0,0.0,0.0,0.0,0.0,0.0,0.0,0.0,0.0,0.0,0.0,0.0,0.0,0.0,0.0,0.0,0.0,0.0,0.0,0.0,0.0,0.0,0.0,0.0,0.0,0.0,0.0,0.0,0.0,0.0,0.0,0.0,0.0,0.0,0.0,0.0,0.0,0.0,0.0,0.0,0.0,0.0,0.0,0.0,0.0,0.0,0.0,0.0,0.0,0.0,0.0,0.0,0.0,0.0,0.0,0.0,0.0,0.0,0.0,0.0,0.0,0.0,0.0,0.0,0.0,0.0,0.0,0.0,0.0,0.0,0.0,0.0,0.0,0.0,0.0,0.0,0.0,0.0,0.0,0.0,0.0,0.0,0.0,0.0,0.0,0.0,0.0,0.0,0.0,0.0,0.0,0.0,0.0,0.0,0.0,0.0,0.0,0.0,0.0,0.0,0.0,0.0,0.0,0.0,0.0,0.0,0.0,0.0,0.0,0.0,0.0,0.0,0.0,0.0,0.0,0.0,0.0,0.0,0.0,0.0,0.0,0.0,0.0,0.0,0.0,0.0,0.0,0.0,0.0,0.0,0.0,0.0,0.0,0.0,0.0,0.0,0.0,0.0,0.0,0.0,0.0,0.0,0.0,0.0,0.0,0.0,0.0,0.0,0.0,0.0,0.0,0.0,0.0,0.0,0.0,0.0,0.0,0.0,0.0,0.0,0.0,0.0,0.0,0.0,0.0,0.0,0.0,0.0,0.0,0.0,0.0,0.0,0.0,0.0,0.0,0.0,0.0,0.0,0.0,0.0,0.0,0.0,0.0,0.0,0.0,0.0,0.0,0.0,0.0,0.0,0.0,0.0,0.0,0.0,0.0,0.0,0.0,0.0,0.0,0.0,0.0,0.0,0.0,0.0,0.0,0.0,0.0,0.0,0.0,0.0,0.0,0.0,0.0,0.0,0.0,0.0,0.0,0.0,0.0,0.0,0.0,0.0,0.0,0.0,0.0,0.0,0.0,0.0,0.0,0.0,0.0,0.0,0.0,0.0,0.0,0.0,0.0,0.0,0.0,0.0,0.0,0.0,0.0,0.0,0.0,0.0,0.0,0.0,0.0,0.0,0.0,0.0,0.0,0.0,0.0,0.0,0.0,0.0,0.0,0.0,0.0,0.0,0.0,0.0,0.0,0.0,0.0,0.0,0.0,0.0,0.0,0.0,0.0,0.0,0.0,0.0,0.0,0.0,0.0,0.0,0.0,0.0,0.0,0.0,0.0,0.0,0.0,0.0,0.0,0.0,0.0,0.0,0.0,0.0,0.0,0.0,0.0,0.0,0.0,0.0,0.0,0.0,0.0,0.0,0.0,0.0,0.0,0.0,0.0,0.0,0.0,0.0,0.0,0.0,0.0,0.0,0.0,0.0,0.0,0.0,0.0,0.0,0.0,0.0,0.0,0.0,0.0,0.0,0.0,0.0,0.0,0.0,0.0,0.0,0.0,0.0,0.0,0.0,0.0,0.0,0.0,0.0,0.0,0.0,0.0,0.0,0.0,0.0,0.0,0.0,0.0,0.0,0.0,0.0,0.0,0.0,0.0,0.0,0.0,0.0,0.0,0.0,0.0,0.0,0.0,0.0,0.0,0.0,0.0,0.0,0.0,0.0,0.0,0.0,0.0,0.0,0.0,0.0,0.0,0.0,0.0,0.0,0.0,0.0,0.0,0.0,0.0,0.0,0.0,0.0,0.0,0.0,0.0,0.0,0.0,0.0,0.0,0.0,0.0,0.0,0.0,0.0,0.0,0.0,0.0,0.0,0.0,0.0,0.0,0.0,0.0,0.0,0.0,0.0,0.0,0.0,0.0,0.0,0.0,0.0,0.0,0.0,0.0,0.0,0.0,0.0,0.0,0.0,0.0,0.0,0.0,0.0,0.0,0.0,0.0,0.0,0.0,0.0,0.0,0.0,0.0,0.0,0.0,0.0,0.0,0.0,0.0,0.0,0.0,0.0,0.0,0.0,0.0,0.0,0.0,0.0,0.0,0.0,0.0,0.0,0.0,0.0,0.0,0.0,0.0,0.0,0.0,0.0,0.0,0.0,0.0,0.0,0.0,0.0,0.0,0.0,0.0,0.0,0.0,0.0,0.0,0.0,0.0,0.0,0.0,0.0,0.0,0.0,0.0,0.0,0.0,0.0,0.0,0.0,0.0,0.0,0.0,0.0,0.0,0.0,0.0,0.0,0.0,0.0,0.0,0.0,0.0,0.0,0.0,0.0,0.0,0.0,0.0,0.0,0.0,0.0,0.0,0.0,0.0,0.0,0.0,0.0,0.0,0.0,0.0,0.0,0.0,0.0,0.0,0.0,0.0,0.0,0.0,0.0,0.0,0.0,0.0,0.0,0.0,0.0,0.0,0.0,0.0,0.0,0.0,0.0,0.0,0.0,0.0,0.0,0.0,0.0,0.0,0.0,0.0,0.0,0.0,0.0,0.0,0.0,0.0,0.0,0.0,0.0,0.0,0.0,0.0,0.0,0.0,0.0,0.0,0.0,0.0,0.0,0.0,0.0,0.0,0.0,0.0,0.0,0.0,0.0,0.0,0.0,0.0,0.0,0.0,0.0,0.0,0.0,0.0,0.0,0.0,0.0,0.0,0.0,0.0,0.0,0.0,0.0,0.0,0.0,0.0,0.0,0.0,0.0,0.0,0.0,0.0,0.0,0.0,0.0,0.0,0.0,0.0,0.0,0.0,0.0,0.0,0.0,0.0,0.0,0.0,0.0,0.0,0.0,0.0,0.0,0.0,0.0,0.0,0.0,0.0,0.0,0.0,0.0,0.0,0.0,0.0,0.0,0.0,0.0,0.0,0.0,0.0,0.0,0.0,0.0,0.0,0.0,0.0,0.0,0.0,0.0,0.0,0.0,0.0,0.0,0.0,0.0,0.0,0.0,0.0,0.0,0.0,0.0,0.0,0.0,0.0,0.0,0.0,0.0,0.0,0.0,0.0,0.0,0.0,0.0,0.0,0.0,0.0,0.0,0.0,0.0,0.0,0.0,0.0,0.0,0.0,0.0,0.0,0.0,0.0,0.0,0.0,0.0,0.0,0.0,0.0,0.0,0.0,0.0,0.0,0.0,0.0,0.0,0.0,0.0,0.0,0.0,0.0,0.0,0.0,0.0,0.0,0.0,0.0,0.0,0.0,0.0,0.0,2.5693,0.0,0.0,0.0,0.0,0.0,0.0,0.0,0.0,0.0,0.0,0.0,0.0,0.0,0.0,0.0,0.0,0.0,0.0,0.0,0.0,0.0,0.0,0.0,0.0,0.0,0.0,0.0,0.0,0.0,0.0,0.0,0.0,0.0,0.0,0.0,0.0,0.0,0.0,0.0,3.3124,3.3124,3.3124,3.3124,3.3124,3.3124,0.0,0.0,0.0,0.0,0.0,0.0,0.0,0.0,0.0,0.0,0.0,0.0,0.0,0.0,0.0,0.0,0.0,0.0,0.0,0.0,0.0,0.0,0.0,0.0,0.0,0.0,0.0,0.0,0.0,0.0,0.0,0.0,0.0,0.0,0.0,0.0,0.0,0.0,0.0,0.0,0.0,0.0,0.0,0.0,0.0,0.0,0.0,0.0,0.0,0.0,0.0,0.0,0.0,0.0,0.0,0.0,0.0,0.0,0.0,0.0,0.0,0.0,0.0,0.0,0.0,0.0,0.0,0.0,0.0,0.0,0.0,2.5693,0.0,0.0,0.0,0.0,0.0,0.0,0.0,0.0,0.0,0.0,0.0,0.0,0.0,0.0,0.0,0.0,0.0,0.0,0.0,0.0,0.0,0.0,0.0,0.0,0.0,0.0,0.0,0.0,0.0,0.0,0.0,0.0,0.0,0.0,0.0,3.3124,3.3124,3.3124,3.3124,3.3124,3.3124,3.3124,3.3124,3.3124,3.3124,0.0,0.0,0.0,0.0,0.0,0.0,0.0,0.0,0.0,0.0,0.0,0.0,0.0,0.0,0.0,0.0,0.0,0.0,0.0,0.0,0.0,0.0,0.0,0.0,0.0,0.0,0.0,0.0,0.0,0.0,0.0,0.0,0.0,0.0,0.0,0.0,0.0,0.0,0.0,0.0,0.0,0.0,0.0,0.0,0.0,0.0,0.0,0.0,0.0,0.0,0.0,0.0,0.0,0.0,0.0,0.0,0.0,0.0,0.0,0.0,0.0,0.0,0.0,2.5693,2.5693,2.5693,2.5693,2.5693,2.5693,2.5693,2.5693,2.5693,2.5693,0.0,0.0,0.0,0.0,0.0,0.0,0.0,0.0,0.0,0.0,0.0,0.0,0.0,0.0,0.0,0.0,0.0,0.0,0.0,0.0,0.0,0.0,2.9792,2.9792,2.9792,2.9792,0.0,0.0,0.0,0.0,0.0,0.0,3.3111,3.3124,3.3124,3.3124,3.3124,3.3124,3.3124,3.3124,3.3124,3.3124,3.3124,3.3124,3.3124,0.0,0.0,0.0,0.0,0.0,0.0,0.0,0.0,0.0,0.0,0.0,0.0,0.0,0.0,0.0,0.0,0.0,0.0,0.0,0.0,0.0,0.0,0.0,0.0,0.0,0.0,0.0,0.0,0.0,0.0,0.0,0.0,0.0,0.0,0.0,0.0,0.0,0.0,0.0,0.0,0.0,2.5693,2.5693,0.0,0.0,0.0,0.0,0.0,0.0,0.0,0.0,0.0,0.0,0.0,0.0,0.0,2.5693,2.5693,2.5693,2.5693,2.5693,2.5693,2.5693,2.5693,2.5693,2.5693,2.5693,2.5693,0.0,2.5693,2.5693,0.0,0.0,0.0,0.0,0.0,0.0,0.0,0.0,0.0,0.0,0.0,0.0,0.0,0.0,0.0,0.0,0.0,0.0,0.0,0.0,0.0,2.9792,2.9792,2.9792,2.9792,2.9792,2.9792,0.0,0.0,0.0,0.0,3.2014,3.2579,3.2918,3.3124,3.3124,3.3124,3.3124,3.3124,3.3124,3.3124,3.3124,3.3124,3.3124,3.3124,3.3124,0.0,0.0,0.0,0.0,0.0,0.0,0.0,0.0,0.0,0.0,0.0,0.0,0.0,0.0,0.0,0.0,0.0,0.0,0.0,0.0,0.0,0.0,0.0,0.0,0.0,0.0,0.0,0.0,0.0,0.0,0.0,0.0,0.0,0.0,0.0,0.0,0.0,0.0,0.0,2.8808,2.5693,2.5693,2.8168,2.8762,0.0,0.0,0.0,0.0,0.0,0.0,0.0,0.0,0.0,2.5693,2.5693,2.5693,2.5693,2.5693,2.5693,2.5693,2.5693,2.5693,2.5693,2.5693,2.5391,2.4892,2.544,2.5693,2.5693,2.5693,2.5693,2.5693,0.0,0.0,0.0,0.0,2.5693,2.5693,0.0,0.0,0.0,0.0,0.0,0.0,0.0,0.0,0.0,0.0,0.0,0.0,2.9792,2.9792,2.9792,2.9792,2.9792,2.9792,2.9792,0.0,0.0,0.0,3.111,3.165,3.2202,3.278,3.3124,3.3124,3.3124,3.3124,3.3124,3.3124,3.3124,3.3124,3.3124,3.3124,3.3124,3.3124,3.3124,3.3124,0.0,0.0,0.0,0.0,0.0,0.0,0.0,0.0,0.0,0.0,0.0,0.0,0.0,0.0,0.0,0.0,0.0,0.0,0.0,0.0,0.0,0.0,0.0,0.0,0.0,0.0,0.0,0.0,0.0,0.0,0.0,0.0,0.0,0.0,0.0,0.0,0.0,2.9909,2.7568,2.7568,2.9727,2.9772,0.0,0.0,0.0,0.0,0.0,0.0,2.5693,2.5693,2.5693,2.5693,2.6113,2.6396,2.6396,2.6396,2.6396,2.6396,2.6396,2.6396,2.6396,2.6396,2.5987,2.5273,2.6037,2.6396,2.6308,2.5869,2.5693,2.5693,2.5693,2.5693,2.5693,2.5693,2.5693,2.5693,0.0,0.0,0.0,0.0,0.0,0.0,0.0,0.0,0.0,0.0,0.0,2.9792,2.9792,2.9792,2.9792,2.9792,2.9792,2.9792,2.9792,2.9792,3.0043,3.0595,3.111,3.165,3.2202,3.278,3.3124,3.3124,3.3124,3.3124,3.3124,3.3124,3.3124,3.3124,3.3124,3.3124,3.3124,3.3124,3.3124,3.3124,3.3124,0.0,0.0,0.0,0.0,0.0,0.0,0.0,0.0,0.0,0.0,0.0,0.0,0.0,0.0,0.0,0.0,0.0,0.0,0.0,0.0,0.0,0.0,0.0,0.0,0.0,0.0,0.0,0.0,0.0,0.0,0.0,0.0,0.0,0.0,0.0,0.0,0.0,0.0,3.2754,2.8808,0.0,0.0,0.0,0.0,3.2382,2.8355,2.5693,2.5693,2.5693,2.5693,2.5693,2.7314,2.8164,2.8164,2.8164,2.8164,2.8164,2.8164,2.8164,2.8164,2.8164,2.8164,2.8111,2.8164,2.8164,2.8037,2.6356,2.5693,2.5693,2.5693,2.5693,2.5693,2.5693,2.5693,2.5693,0.0,0.0,0.0,0.0,0.0,0.0,0.0,0.0,0.0,2.9792,2.9792,2.9792,2.9792,2.9792,2.9792,2.9792,2.9792,2.9792,2.9792,2.9792,2.988,3.008,3.0922,3.1825,3.2754,3.2968,3.3124,3.3124,3.3124,3.3124,3.3124,3.3124,3.3124,3.3124,3.3124,3.3124,3.3124,3.3124,3.3124,3.3124,3.3124,3.3124,0.0,0.0,0.0,0.0,0.0,0.0,0.0,0.0,0.0,0.0,0.0,0.0,0.0,0.0,0.0,0.0,0.0,0.0,0.0,0.0,0.0,0.0,0.0,0.0,0.0,0.0,0.0,0.0,0.0,0.0,0.0,0.0,0.0,0.0,0.0,0.0,0.0,3.3124,2.8716,0.0,3.0135,3.0451,3.119,3.2982,2.9526,2.8898,3.24,3.2603,3.0996,2.7476,2.7978,2.8291,2.8291,2.8291,2.8291,2.8291,2.8291,2.8291,2.8291,2.8291,2.8291,2.8291,2.8291,2.8291,2.8242,2.7637,2.7383,2.7275,2.6122,2.5693,2.5693,2.5693,2.5693,2.5693,0.0,0.0,0.0,0.0,0.0,0.0,0.0,0.0,0.0,2.9792,2.9792,2.9792,2.9792,2.9792,2.9792,2.9792,2.9792,2.9792,2.9792,2.9967,3.0068,3.0068,3.1097,3.2114,3.3056,3.3124,3.3124,3.3124,3.3124,3.3124,3.3124,3.3124,3.3124,3.3124,3.3124,3.3124,3.3124,3.3124,3.3124,3.3124,3.3124,3.3124,3.3124,0.0,0.0,0.0,0.0,0.0,0.0,0.0,0.0,0.0,0.0,0.0,0.0,0.0,0.0,0.0,0.0,0.0,0.0,0.0,0.0,0.0,0.0,0.0,0.0,0.0,0.0,0.0,0.0,0.0,0.0,0.0,0.0,0.0,0.0,3.3124,3.3124,3.3124,3.0181,2.9803,3.3819,3.423,3.423,3.423,3.2239,3.2571,3.6203,3.6405,3.4929,3.1657,3.0007,2.917,2.917,2.917,2.917,2.917,2.917,2.917,2.917,2.917,2.917,2.917,2.917,2.8838,2.8291,2.8291,2.8291,2.813,2.6589,2.5996,2.5996,2.5996,2.5683,2.5196,0.0,0.0,0.0,0.0,0.0,0.0,0.0,0.0,2.9792,2.9792,2.9792,2.9792,2.9792,2.9792,2.9792,2.9792,2.9792,2.9792,2.9792,3.0306,3.0633,3.067,3.1662,3.2478,3.3111,3.3124,3.3124,3.3124,3.3124,3.3124,3.3124,3.3068,3.3081,3.3081,3.3081,3.3081,3.3081,3.3081,3.3081,3.3124,3.3124,3.3124,3.3124,0.0,0.0,0.0,0.0,0.0,0.0,0.0,0.0,0.0,0.0,0.0,0.0,0.0,0.0,0.0,0.0,0.0,0.0,0.0,0.0,0.0,0.0,0.0,0.0,0.0,0.0,0.0,0.0,0.0,0.0,0.0,0.0,0.0,3.3124,3.3124,3.3149,3.3212,3.3224,3.4067,3.6204,3.6405,3.6405,3.6405,3.642,3.6471,3.6471,3.6471,3.6948,3.7967,3.3392,3.0889,3.0889,3.0889,3.0889,3.0889,3.0889,3.0889,3.0889,3.0889,3.0889,3.0889,3.0889,2.9932,2.8369,2.8369,2.834,2.8184,2.7071,2.6591,2.6591,2.6591,2.5582,2.4275,0.0,0.0,0.0,0.0,0.0,0.0,0.0,2.9067,2.9792,2.9792,2.9792,2.9792,2.9792,2.9792,2.9792,2.9792,2.9792,2.9792,2.9792,3.0306,3.0959,3.1738,3.2051,3.2478,3.3111,3.3124,3.3124,3.3124,3.3124,3.3124,3.3068,3.2351,3.2307,3.2766,3.212,3.2164,3.281,3.2649,3.2779,3.3124,3.3124,3.3124,3.3124,0.0,0.0,0.0,0.0,0.0,0.0,0.0,0.0,0.0,0.0,0.0,0.0,0.0,0.0,0.0,0.0,0.0,0.0,0.0,0.0,0.0,0.0,0.0,0.0,0.0,0.0,0.0,0.0,0.0,0.0,0.0,3.3124,3.3124,3.3124,3.3124,3.3715,3.5311,3.55,3.5739,3.6355,3.6405,3.6405,3.6405,3.7096,3.7572,3.7572,3.7572,3.7697,3.8015,3.3392,3.0889,3.0889,3.0889,3.0889,3.0889,3.0889,3.0889,3.0889,3.0889,3.0889,3.0889,3.0889,3.0625,3.0176,3.0176,2.9434,2.8184,2.7071,2.6591,2.6591,2.6591,2.6307,2.5922,0.0,0.0,0.0,0.0,0.0,0.0,0.0,2.8779,2.9792,2.9792,2.9792,2.9792,2.9792,2.9792,2.9792,2.9792,2.9792,2.9792,2.9792,3.0507,3.1436,3.2528,3.2579,3.2729,3.3111,3.3124,3.3124,3.3124,3.2982,3.2711,3.2283,3.1625,3.1303,3.1291,3.0744,3.1024,3.1945,3.1825,3.2189,3.2822,3.2822,3.2909,3.3124,3.3124,3.3124,3.3124,3.3124,3.3124,3.3124,3.3124,0.0,0.0,0.0,0.0,0.0,0.0,0.0,0.0,0.0,0.0,0.0,0.0,0.0,0.0,0.0,0.0,0.0,0.0,0.0,0.0,0.0,0.0,0.0,0.0,3.3891,3.4494,3.4494,3.4494,3.4972,3.6254,3.6026,3.574,3.574,3.6554,3.7097,3.7097,3.7652,3.7986,3.7986,3.7986,3.7986,3.7986,3.5322,3.3888,3.3888,3.1893,3.0889,3.0889,3.0889,3.0889,3.0889,3.0889,3.0889,0.0,3.0889,3.0889,3.0889,3.0889,3.0293,0.0,0.0,0.0,0.0,0.0,2.6591,2.6591,0.0,0.0,0.0,0.0,0.0,0.0,0.0,2.8091,2.9456,2.9585,2.9624,2.9663,2.9792,2.9792,2.9792,2.9792,2.9792,2.9842,2.9967,3.0859,3.1901,3.3074,3.3068,3.3068,3.3068,3.3068,3.3025,3.3038,3.2711,3.2064,3.1178,3.0744,3.0147,2.9361,2.9223,2.9738,3.0711,3.0756,3.1371,3.2257,3.23,3.2605,3.3038,3.3038,3.3038,3.3124,3.3124,3.3124,3.3124,3.3124,0.0,0.0,0.0,0.0,0.0,0.0,0.0,0.0,0.0,0.0,0.0,0.0,0.0,0.0,0.0,0.0,0.0,0.0,0.0,0.0,0.0,0.0,0.0,0.0,3.5135,3.6405,3.6405,3.6523,3.6491,3.6241,3.5563,3.5184,3.5184,3.6879,3.7986,3.7986,3.7986,3.7986,3.7986,0.0,0.0,0.0,0.0,3.7986,3.7986,3.3832,3.145,3.0889,3.0889,3.0889,3.0889,3.0889,3.0889,3.0879,3.0684,3.0596,3.0596,3.0596,3.0596,3.0449,2.8896,2.8291,2.8184,2.7017,2.6591,0.0,0.0,0.0,0.0,0.0,0.0,0.0,0.0,2.6254,2.7464,2.8307,2.8426,2.8767,2.9702,2.9792,2.9792,2.9792,2.9792,3.0168,3.1022,3.1273,3.1901,3.3074,3.2896,3.2766,3.2766,3.2766,3.268,3.2519,3.1833,3.1323,3.0935,2.9269,2.8716,2.905,2.8272,2.8459,2.9418,3.0068,3.0678,3.1226,3.1837,3.2257,3.2519,3.2519,3.2779,3.3124,3.3124,3.3124,3.3124,3.3124,3.3124,3.3124,3.3124,3.3124,0.0,0.0,0.0,0.0,0.0,0.0,0.0,0.0,0.0,0.0,0.0,0.0,0.0,0.0,0.0,0.0,0.0,0.0,0.0,3.5475,3.6128,3.6405,3.6405,3.7145,3.7042,3.532,3.6428,3.7372,3.7372,3.7745,3.7986,3.7986,3.7986,3.7986,3.7986,3.7986,3.7986,3.7986,3.7986,3.7986,3.7986,3.7096,3.4714,3.0889,0.0,0.0,3.0889,3.0889,3.0889,3.081,2.9404,2.8799,2.8799,2.8799,2.8799,2.876,2.8428,2.8291,2.8184,2.7017,2.6591,2.6591,0.0,0.0,0.0,0.0,0.0,0.0,0.0,2.5755,2.6678,2.7238,2.7279,2.7533,2.8091,2.8131,2.8131,2.8131,2.8903,2.9723,3.0531,3.1348,3.1913,3.2159,3.2008,3.1645,3.1057,3.1524,3.148,3.0902,3.089,3.0294,2.92,2.8075,2.7474,2.7352,2.6849,2.721,2.8121,2.8541,2.9143,2.9886,3.0767,3.1193,3.1371,3.2232,3.268,3.2853,3.3038,3.3124,3.3124,3.3124,3.3124,3.3124,3.3124,3.3124,3.3124,0.0,0.0,0.0,0.0,0.0,0.0,0.0,0.0,0.0,0.0,0.0,0.0,0.0,0.0,3.3463,3.4557,0.0,3.5123,3.6229,3.6405,3.6603,3.7108,3.7676,3.7589,3.6531,3.7336,3.7986,3.7986,3.7986,3.7986,3.7986,3.7986,3.7986,3.7986,3.7986,3.7986,3.7986,3.7986,3.7986,3.7986,3.7986,3.6815,3.4436,3.2055,3.0889,3.0889,3.0889,3.0889,3.0791,2.9053,2.8291,2.8291,2.8291,2.8291,2.8291,2.8291,2.8291,2.8237,2.7657,2.7071,2.6591,0.0,0.0,0.0,0.0,0.0,0.0,0.0,0.0,0.0,2.6141,2.6182,2.6265,2.6483,2.6524,2.6524,2.6524,2.7958,2.9148,2.978,3.1082,3.1663,3.1243,3.0944,3.0316,2.9361,3.0113,3.0102,2.9269,2.9704,2.9108,2.7484,2.7105,2.6466,2.5693,2.5693,2.6149,2.6914,2.7094,2.7652,2.8484,2.9704,3.0215,3.0441,3.2033,3.2636,3.2636,3.2865,3.3038,3.3124,3.3124,3.3124,3.3124,3.3124,3.3124,3.3124,3.3124,3.3124,0.0,0.0,0.0,0.0,0.0,0.0,0.0,0.0,3.3124,3.3124,3.3124,3.3463,3.4306,3.6078,3.6405,3.6405,3.6405,3.6769,3.7282,3.7891,3.7986,3.7986,3.7986,3.7986,3.7986,3.7986,3.7986,3.7986,3.7986,3.7986,3.7986,3.7986,3.7986,3.7986,3.7986,3.7986,3.7986,3.7986,3.7986,3.7986,3.7921,3.3888,3.1566,3.0889,3.0889,3.0889,3.0791,2.9053,2.8291,2.8291,2.8291,2.8291,2.8291,2.8291,2.8291,2.8291,2.8291,2.7711,2.6909,0.0,0.0,0.0,0.0,0.0,0.0,0.0,0.0,0.0,2.4872,2.4999,2.5378,2.6389,2.6524,2.6524,2.6524,2.7958,2.9148,2.978,3.0293,3.0763,3.1199,2.9954,2.9189,2.905,2.9143,2.905,2.8762,2.8179,2.7673,2.7237,2.6284,2.583,2.5693,2.5693,2.5781,2.5917,2.6829,2.7284,2.751,2.9418,3.0306,3.0633,3.1925,3.2519,3.2593,3.2519,3.2736,3.3124,3.3124,3.3124,3.3124,3.3124,3.3124,3.3124,3.3124,3.3124,3.3124,3.3124,3.3124,3.3124,3.3124,3.3124,3.3124,0.0,3.3124,3.3124,3.3124,3.4683,3.6116,3.6367,3.6405,3.6405,3.6405,3.8027,3.9036,3.8108,3.7986,3.7986,3.7986,3.7986,3.7986,3.7986,3.7986,3.7986,3.7986,3.7986,3.7986,3.7986,3.7986,3.7986,3.7986,3.7986,3.7986,3.7986,3.7986,3.7986,3.7974,3.6417,3.4032,3.0889,3.0889,3.0889,3.0791,2.9053,2.8291,2.8291,2.8291,2.8291,2.8291,2.8291,2.8291,2.8291,2.8291,2.8237,2.7979,0.0,0.0,0.0,0.0,0.0,0.0,0.0,0.0,0.0,0.0,0.0,2.431,2.4509,2.452,2.452,2.452,2.6271,2.7477,2.7743,2.9057,2.9591,2.9131,2.8495,2.7861,2.7125,2.7662,2.7615,2.6935,2.7067,2.6781,2.6081,2.5518,2.5235,2.5235,2.5235,2.5235,2.5284,2.5693,2.5868,2.6061,2.8215,2.9154,2.9475,3.1605,3.2344,3.2332,3.2692,3.2952,0.0,3.3124,3.3124,3.3124,3.3124,3.3124,3.3124,3.3124,3.3124,3.3124,3.3124,3.3124,3.3124,3.3124,3.3124,3.3463,3.4745,3.5035,3.5035,3.5035,3.5764,3.6405,3.6405,3.6405,3.6832,3.809,3.9082,3.931,3.8145,3.7986,3.7986,3.7986,3.7986,3.7986,3.7986,3.7986,3.7986,3.7986,3.7986,3.7986,3.7986,3.7388,3.7334,3.7986,3.7986,3.7655,3.7024,3.7024,3.7024,3.7012,3.6538,3.5488,3.3976,3.1845,3.0889,3.0791,2.9053,2.8291,2.8291,2.8291,2.8291,2.8291,2.8291,2.8291,2.8291,2.8291,2.8291,2.8237,0.0,0.0,0.0,0.0,0.0,0.0,0.0,0.0,0.0,0.0,0.0,0.0,0.0,2.3452,2.3452,2.3452,2.5306,2.6462,2.6462,2.7993,2.8495,2.7636,2.7268,2.6658,2.5742,2.6418,2.6418,2.5693,2.6235,2.6139,2.5391,2.5137,2.503,2.499,2.4932,2.4932,2.503,2.503,2.503,2.5274,2.7237,2.8226,2.8866,3.1137,3.2157,3.2419,3.2952,3.3124,3.3124,3.3124,3.3124,3.3124,3.3124,3.3124,3.3124,3.3124,3.3124,3.3124,3.3124,3.3124,3.3262,3.3878,3.4029,3.4444,3.604,3.6405,3.6405,3.6405,3.6405,3.6405,3.6405,3.6908,3.7814,3.9433,3.9697,3.931,3.8145,3.7986,3.7986,3.7986,3.7986,3.7986,3.7986,3.7986,3.7986,3.7986,3.7986,3.7868,3.756,3.6754,3.67,3.7507,3.7548,3.712,3.632,3.632,3.632,3.632,3.632,3.632,3.6157,3.2571,3.0889,3.0791,2.9053,2.8291,2.8291,2.8291,2.8291,2.8291,2.8291,2.8291,2.8291,2.8291,2.8291,2.8291,0.0,0.0,0.0,0.0,0.0,0.0,0.0,0.0,0.0,0.0,0.0,0.0,0.0,2.4375,2.4375,2.4375,2.5916,2.6865,2.6865,2.7363,2.7636,2.7589,2.6438,2.5732,2.5693,2.5732,2.5732,2.5693,2.5732,2.5742,2.5684,2.543,2.5284,2.5284,2.503,2.5039,2.5284,2.5284,2.544,2.5781,2.6819,2.8111,2.9498,3.0519,3.1857,3.3068,3.3081,3.3124,3.3124,3.3124,3.3124,3.3124,3.3124,3.3124,3.3124,3.3124,3.3124,3.3124,3.3124,3.3124,3.3639,3.5776,3.6304,3.6329,3.6392,3.6405,3.6405,3.6405,3.6405,3.6405,3.6405,3.8128,3.9622,3.9685,3.9697,3.931,3.8145,3.7986,3.7986,3.7986,3.7986,3.7986,3.7986,3.7986,3.7986,3.7986,3.7986,3.7507,3.6429,3.6332,3.6332,3.632,3.632,3.632,3.632,3.632,3.632,3.632,3.632,3.632,3.6157,3.2571,3.0889,3.0791,2.9053,2.8291,2.8291,2.8291,2.8291,2.8291,2.8291,2.8291,2.8291,2.8291,2.8291,2.8291,0.0,0.0,0.0,0.0,0.0,0.0,0.0,0.0,0.0,0.0,0.0,0.0,0.0,0.0,0.0,0.0,2.5179,2.5708,2.5708,2.6082,2.6342,2.6342,2.5917,2.5693,2.5693,2.5693,2.5693,2.5693,2.5538,2.543,2.544,2.5137,2.503,2.503,2.4932,2.4932,2.503,2.503,2.5088,2.5274,2.6446,2.7247,2.7887,2.9749,3.1359,3.2692,0.0,3.3124,3.3124,3.3124,3.3124,3.3124,3.3124,3.3124,3.3124,3.3124,3.4155,3.5299,3.5299,3.5299,3.5475,3.6216,3.6405,3.6216,3.55,3.5356,3.5548,3.6263,3.6405,3.6857,3.8304,3.9182,3.9697,3.9697,3.9697,3.9581,3.9154,3.9102,3.9102,3.9102,3.8461,3.7986,3.7986,3.7986,0.0,3.7986,3.7292,3.67,3.632,3.632,3.632,3.632,3.632,3.632,3.632,3.632,3.632,3.632,3.632,3.632,3.6266,3.5035,3.3197,3.0791,2.9053,2.8291,2.8291,2.8291,2.8291,2.8291,2.8291,2.8291,2.8291,2.8291,2.8291,2.8291,0.0,0.0,0.0,0.0,0.0,0.0,0.0,0.0,0.0,0.0,0.0,0.0,0.0,0.0,0.0,0.0,0.0,2.5303,2.5303,2.5576,2.5693,2.5693,2.5693,2.5693,2.5693,2.5693,2.5693,2.5693,2.5538,2.544,2.544,2.5186,2.5039,2.5039,2.4932,2.4932,2.5039,2.5039,2.5088,2.5284,2.6091,2.6696,2.7247,2.8866,3.0249,0.0,3.2667,3.3124,3.3124,3.3124,3.3124,3.3124,3.3124,3.3124,3.3275,3.4067,3.5299,3.6405,3.6405,3.6405,3.6405,3.6405,3.6121,3.5644,3.4969,3.5114,3.5548,3.6263,3.7046,3.799,3.9433,3.9697,3.9697,3.9697,3.9697,3.9697,3.9697,3.9697,3.9542,3.9154,3.8461,3.7986,3.7986,3.7986,3.7986,3.7986,3.7334,3.6754,3.632,3.632,3.632,3.632,3.632,3.632,3.632,3.632,3.632,3.632,3.632,3.632,3.632,3.632,3.4658,3.1661,2.9311,2.8291,2.8291,2.8291,2.8291,2.8291,2.8291,2.8291,2.8291,2.8291,2.8291,2.8291,0.0,0.0,0.0,0.0,0.0,0.0,0.0,0.0,0.0,0.0,0.0,0.0,0.0,0.0,0.0,0.0,0.0,0.0,2.5693,2.5693,2.5693,2.5693,2.5693,2.5693,2.5693,2.5693,2.5693,2.5693,2.5693,2.5693,2.5684,2.544,2.5333,2.5294,2.503,2.5088,2.5333,2.5333,2.5489,2.5693,2.5693,2.6428,2.7542,2.7934,2.853,2.9544,3.2152,3.3124,3.3124,3.3124,3.3124,3.3124,3.3124,3.3124,3.3551,3.5764,3.6405,3.6405,3.6405,3.6405,3.6405,3.6405,3.5644,3.4872,3.4872,3.5692,3.6443,3.6556,3.8216,3.9697,3.9697,3.9697,3.9697,3.9697,3.9697,3.9697,3.9697,3.9697,3.9322,3.8198,3.8039,3.7986,3.7986,3.7986,3.7986,3.7986,0.0,3.7548,3.6429,3.6375,3.6375,3.632,3.632,3.632,3.632,3.632,3.632,3.632,3.6228,3.6171,3.6171,3.6171,3.5083,3.3119,2.9953,2.8451,2.8291,2.8291,2.8291,2.8291,2.8291,2.8291,2.8291,2.8291,2.8291,2.8291,0.0,0.0,0.0,0.0,0.0,0.0,0.0,0.0,0.0,0.0,0.0,0.0,0.0,0.0,0.0,0.0,0.0,0.0,2.5693,2.5693,2.5693,2.5693,2.5693,2.5693,2.5693,2.5693,2.5693,2.5693,2.5693,2.5693,2.5693,2.5635,2.5586,2.5586,2.5538,2.5538,2.5586,2.5586,2.5635,2.5693,2.5693,2.5878,2.6197,2.6284,2.6466,2.721,3.1557,3.3124,3.3124,3.3124,3.3124,3.3124,3.3124,3.3124,3.3551,3.5764,3.6405,3.6405,3.6405,3.6405,3.6405,3.6405,3.6168,3.5978,3.5978,3.6216,3.6883,3.8504,3.9295,3.9697,3.9697,3.9697,3.9697,3.9697,3.9697,3.9697,3.9697,3.9697,3.9581,3.9322,3.8514,3.7986,3.7986,3.7986,3.7986,0.0,3.7986,3.788,3.7548,3.756,3.7185,3.632,3.632,3.632,3.632,3.632,3.632,3.6254,3.475,3.405,3.405,3.405,3.3763,3.3231,3.2403,3.063,2.8291,2.8291,2.8291,2.8291,2.8291,2.8291,2.8291,2.8291,2.8291,2.8291,0.0,0.0,0.0,0.0,0.0,0.0,0.0,0.0,0.0,0.0,0.0,0.0,0.0,0.0,0.0,0.0,0.0,0.0,0.0,2.5693,2.5693,2.5693,2.5693,2.5693,2.5693,2.5693,2.5693,2.5693,2.5693,2.5693,2.5693,2.5693,2.5693,2.5693,2.5693,2.5693,2.5693,2.5693,2.5693,0.0,0.0,2.5693,2.5693,2.5693,2.5693,2.6332,3.1323,3.3124,3.3124,3.3124,3.3124,3.3124,3.3124,3.3124,3.3551,3.5764,3.6405,3.6405,3.6405,3.6405,3.631,3.5835,3.6073,3.6405,3.6405,3.6405,3.7046,3.9233,3.9697,3.9697,3.9697,3.9697,3.9697,3.9697,3.9697,3.9697,3.9697,3.9697,3.953,3.8998,3.8409,3.7986,3.7986,3.7986,3.7986,3.7986,3.7986,3.7986,3.7986,3.7986,3.7708,3.7078,3.7078,3.6808,3.632,3.632,3.5883,3.4946,3.3821,3.3281,3.3281,3.3281,3.3281,3.3281,0.0,3.1936,2.9649,2.8708,2.8291,2.8291,2.8291,2.8291,2.8291,2.8291,2.8291,2.8291,0.0,0.0,0.0,0.0,0.0,0.0,0.0,0.0,0.0,0.0,0.0,0.0,0.0,0.0,0.0,0.0,0.0,0.0,0.0,0.0,2.5693,2.5693,2.5693,2.5693,2.5693,2.5693,2.5693,2.5693,2.5693,2.5693,2.5693,2.5693,2.5693,2.5693,2.5693,2.5693,2.5693,2.5693,2.5693,2.5693,2.5693,2.5693,2.5693,0.0,2.5693,2.6332,3.1323,3.3124,3.3124,3.3124,3.3124,3.3081,3.2939,3.2896,3.3333,3.5519,3.6168,3.6168,3.6168,3.6168,3.5978,3.5017,3.5596,3.6405,3.6405,3.6644,3.7322,3.8919,3.9245,3.9245,3.9245,3.9245,3.9346,3.9647,3.9697,3.9697,3.9697,3.9697,3.9322,3.8356,3.8092,3.7986,3.7986,3.7986,3.7986,3.7986,3.7986,3.7986,3.7986,3.7986,3.7921,3.7773,3.7761,3.7292,3.632,3.6067,3.495,3.3069,3.3231,3.3281,3.3281,3.3131,3.3081,3.3081,0.0,0.0,3.1465,2.9544,2.8761,2.8708,2.8398,2.8291,2.8291,2.8291,2.8291,2.8291,0.0,0.0,0.0,0.0,0.0,0.0,0.0,0.0,0.0,0.0,2.5693,2.5693,0.0,0.0,0.0,0.0,0.0,0.0,0.0,0.0,0.0,2.5693,2.5693,2.5693,2.5693,2.5693,2.5693,2.5693,2.5693,2.5693,2.5693,2.5693,2.5693,2.5693,2.5693,2.5693,2.5693,2.5693,2.5693,2.5693,2.5693,2.5693,2.5693,2.5693,0.0,0.0,3.1323,3.3124,3.3124,3.3124,3.3124,3.2939,3.2201,3.1925,3.235,3.4436,3.5066,3.5066,3.5066,3.5066,3.5017,3.4823,3.5596,3.6405,3.6405,3.7838,3.8705,3.7285,3.6983,3.6983,3.6983,3.6983,3.7586,3.9396,3.9697,3.9697,3.9697,3.9697,3.9645,3.9426,3.8566,3.7986,3.7986,3.7986,3.7986,3.7986,3.7986,3.7986,3.7986,3.7986,3.756,3.6646,3.6592,3.6483,3.632,3.4636,3.3158,3.1936,3.2869,3.3281,3.3281,3.2291,3.1885,3.1885,3.1885,0.0,3.1567,3.1208,3.1054,3.0847,2.9026,2.8291,2.8291,2.8291,2.8291,2.8291,0.0,0.0,0.0,0.0,0.0,0.0,0.0,2.5128,2.4922,2.5586,2.5069,2.4913,2.5635,2.5693,0.0,0.0,0.0,0.0,0.0,0.0,0.0,0.0,0.0,0.0,2.5693,2.5693,2.5693,2.5693,0.0,2.5693,2.5693,2.5693,2.5693,2.5693,2.5693,2.5693,2.5693,2.5693,2.5693,2.5693,2.5693,2.5693,2.5693,0.0,0.0,0.0,2.8402,2.9269,2.9636,3.2239,3.3124,3.2952,3.2025,3.1705,3.2126,3.4198,3.4775,3.4775,3.4775,3.4775,3.4775,3.4775,3.5596,3.6405,3.6405,3.7235,3.77,3.6631,3.6405,3.6405,3.6405,3.6405,3.6757,3.7838,3.8931,3.9697,3.9697,3.9697,3.9697,3.9697,3.8671,3.7986,3.7986,3.7986,3.7986,3.7986,3.7986,3.7986,3.7986,3.7453,3.6862,3.6332,3.632,3.5826,3.4727,3.3181,3.2139,3.1629,3.2139,3.2403,3.2403,3.1834,3.1618,3.1618,3.1618,0.0,3.1618,3.1618,3.1618,3.1465,3.0422,2.9333,2.8291,2.8291,2.8291,2.8291,0.0,0.0,0.0,0.0,0.0,0.0,0.0,2.4559,2.4097,2.5118,2.4353,2.4097,2.5177,2.5538,2.5693,0.0,0.0,0.0,0.0,0.0,0.0,0.0,0.0,0.0,0.0,0.0,0.0,2.5693,2.5693,0.0,0.0,0.0,0.0,0.0,2.5693,2.5693,2.5693,2.5693,2.5693,0.0,0.0,2.5693,0.0,0.0,0.0,0.0,0.0,2.5693,2.6284,3.0181,3.2208,3.2982,3.2232,3.2013,3.2394,3.4531,3.4969,3.4775,3.4775,3.4775,3.4775,3.4775,3.5596,3.6405,3.6405,3.6405,3.6405,3.6405,3.6405,3.6405,3.6405,3.6405,3.6405,3.6405,3.7839,3.9145,3.9622,3.9697,3.9697,3.9697,3.8893,3.8356,3.8356,3.8145,3.7986,3.7986,3.7986,0.0,3.7667,3.6808,3.632,3.632,3.5853,3.476,3.2942,3.2037,3.1618,3.1618,3.1618,3.1618,3.1618,3.1618,3.1618,3.1618,3.1618,0.0,0.0,3.1618,3.1618,3.1618,3.1618,3.0692,2.928,2.8548,2.8291,2.8291,0.0,0.0,0.0,0.0,0.0,0.0,0.0,2.4559,2.3741,2.389,2.3791,2.3741,2.389,2.4971,2.5693,0.0,0.0,0.0,0.0,0.0,0.0,0.0,0.0,0.0,0.0,0.0,0.0,2.5693,2.5693,0.0,0.0,0.0,0.0,0.0,0.0,2.5693,2.5693,2.5693,0.0,0.0,0.0,0.0,0.0,0.0,0.0,0.0,0.0,2.5693,2.5781,2.6245,2.9361,3.3068,3.2995,3.2982,3.3421,3.5624,3.5548,3.4775,3.4775,3.4775,3.4775,3.4775,3.5596,3.6405,3.6405,3.6405,3.6405,3.6405,3.6405,3.6405,3.6405,3.6405,3.6405,3.6405,3.6581,3.7423,3.9408,3.9697,3.9697,3.9697,3.9594,3.953,3.953,3.8631,3.7986,3.7986,3.7986,0.0,3.6483,3.6386,3.632,3.632,3.4509,3.3,3.1783,3.1629,3.1618,3.1618,3.1618,3.1618,3.1618,3.1618,3.1618,3.1618,3.1618,0.0,0.0,3.1618,3.1618,3.1618,3.1618,3.2088,3.2454,2.9438,2.8291,2.8291,0.0,0.0,0.0,0.0,0.0,0.0,2.5693,2.4559,2.3692,2.3692,2.2976,2.2818,2.3583,2.4205,2.4815,0.0,0.0,0.0,0.0,0.0,0.0,0.0,0.0,0.0,0.0,0.0,2.5693,2.5693,2.5693,0.0,0.0,0.0,0.0,0.0,0.0,2.5693,2.5693,2.5693,0.0,0.0,0.0,0.0,0.0,0.0,0.0,0.0,0.0,0.0,2.5693,2.5693,2.8993,3.3124,3.3124,3.3124,3.3551,3.5764,3.6121,3.5644,3.4969,3.4775,3.4775,3.4775,3.5596,3.6405,3.6405,3.6405,3.6405,3.6405,3.6405,3.6405,3.6405,3.6405,3.6405,3.6405,3.6405,3.6719,3.7612,3.8843,3.9697,3.9697,3.9697,3.9697,3.9697,3.927,3.8736,3.8039,3.7986,0.0,3.7346,3.7334,3.645,3.4561,3.3706,3.2757,3.1618,3.1618,3.1618,3.1618,3.1618,3.1618,3.1618,3.1618,3.1618,3.1618,3.1618,0.0,0.0,3.1618,3.1618,3.1618,3.1618,3.2302,3.2869,2.9544,2.8291,2.8291,0.0,0.0,0.0,0.0,0.0,2.5693,2.5693,2.4559,2.3583,2.3176,2.2316,2.1904,2.2416,2.2868,2.3633,2.4971,0.0,0.0,0.0,0.0,0.0,0.0,0.0,0.0,0.0,0.0,2.5693,2.5693,2.5693,2.5693,0.0,0.0,2.5693,2.5693,0.0,0.0,0.0,0.0,0.0,0.0,0.0,0.0,0.0,0.0,0.0,0.0,0.0,0.0,0.0,0.0,0.0,3.3124,3.3124,3.3124,3.3551,3.5764,3.6405,3.6216,3.55,3.5017,3.4775,3.4775,3.5596,3.6405,3.6405,3.6405,3.6405,3.6405,3.6405,3.6405,3.6405,3.6405,3.6405,3.6405,3.6405,3.6405,3.6405,3.8278,3.9697,3.9697,3.9697,3.9697,3.9697,3.9426,3.8841,3.8092,3.7986,0.0,3.7986,3.7655,3.6461,3.4262,3.3591,3.2919,3.2088,3.1783,3.1618,3.1618,3.1618,3.1618,3.1618,3.1618,3.1618,3.1618,0.0,0.0,0.0,3.1618,3.1618,3.1618,3.1618,3.1934,3.2119,2.9743,2.8617,2.8291,0.0,0.0,0.0,0.0,0.0,0.0,2.5693,2.4559,2.3226,2.1904,2.1702,2.1194,1.9782,2.0896,2.2257,2.3583,0.0,0.0,0.0,0.0,0.0,0.0,0.0,0.0,0.0,0.0,2.5693,2.5693,2.5693,2.5693,2.5693,2.5693,2.5693,2.5693,0.0,0.0,0.0,0.0,0.0,0.0,0.0,0.0,0.0,0.0,0.0,0.0,0.0,0.0,0.0,0.0,0.0,0.0,0.0,3.3124,3.3551,3.5764,3.6405,3.6405,3.6405,3.5596,3.4775,3.4775,3.5596,3.6405,3.6405,3.6405,3.6405,3.6405,3.6405,3.6405,3.6405,3.6405,3.6405,3.6405,3.6405,3.6405,3.6405,3.8278,3.9697,3.9697,3.9697,3.9697,3.9697,3.8671,3.8039,3.7986,0.0,0.0,3.7986,3.6916,3.632,3.6297,3.4314,3.3281,3.3281,3.2139,3.1618,3.1618,3.1618,3.1618,3.1618,3.1618,3.1618,0.0,0.0,0.0,0.0,3.1618,3.1618,3.1618,3.1618,3.1038,3.025,3.0205,2.9364,2.8291,0.0,0.0,0.0,0.0,0.0,0.0,0.0,2.5323,2.4609,2.3226,2.2257,2.1904,2.2366,2.1954,2.2617,2.4864,0.0,0.0,0.0,0.0,0.0,0.0,0.0,0.0,0.0,0.0,2.5693,2.5693,2.5693,2.5693,2.5693,2.5693,2.5693,2.5693,2.5693,2.5693,0.0,0.0,0.0,0.0,0.0,0.0,0.0,0.0,0.0,0.0,0.0,0.0,0.0,0.0,0.0,0.0,0.0,0.0,0.0,3.3954,3.4155,3.4482,3.6003,3.6168,3.5883,3.5883,3.6168,3.6405,3.6405,3.6405,3.6405,3.6405,3.6405,3.6405,3.6405,3.6405,3.6405,3.6405,3.6405,3.6405,3.6405,3.8278,3.9697,3.9697,3.9697,3.9697,3.9697,0.0,3.8841,3.8039,0.0,0.0,3.7986,3.7655,3.712,3.632,3.5657,3.5324,3.5324,3.3652,3.2768,3.2757,3.1986,3.1618,3.1618,3.1618,0.0,0.0,0.0,0.0,0.0,3.1618,3.1618,3.1487,3.0177,2.9517,2.9301,2.9943,2.9959,2.9816,0.0,0.0,0.0,0.0,0.0,0.0,0.0,2.5693,2.5226,2.389,2.2976,2.2567,2.2926,2.2206,2.2567,2.4766,0.0,0.0,0.0,0.0,0.0,0.0,0.0,0.0,2.5693,2.5693,2.5693,2.5693,2.5693,2.5693,2.5693,2.5693,2.5693,2.5693,2.5693,2.5693,0.0,0.0,0.0,0.0,0.0,0.0,2.5693,0.0,0.0,0.0,0.0,0.0,0.0,0.0,0.0,0.0,0.0,0.0,0.0,0.0,3.3124,3.3426,3.4796,3.5776,3.6405,3.6405,3.6405,3.6405,3.6405,3.6405,3.6405,3.6405,3.6405,3.6405,3.6405,3.6405,3.6405,3.6405,3.6405,3.6405,3.6405,3.8278,3.9697,3.9697,3.9697,3.9697,0.0,3.9322,3.8788,0.0,0.0,0.0,3.7388,3.7346,3.7024,3.632,3.632,3.632,3.632,3.509,3.4406,3.4395,3.2966,3.224,3.224,3.1783,0.0,0.0,0.0,0.0,0.0,3.1618,3.1618,3.1433,2.951,2.8803,2.8896,2.9852,3.0216,3.0514,0.0,0.0,0.0,0.0,0.0,0.0,0.0,2.5693,2.5274,2.3998,2.3741,2.3276,2.2106,2.1904,2.2357,2.3741,0.0,0.0,0.0,0.0,0.0,0.0,0.0,0.0,2.5693,2.5693,2.5693,2.5693,2.5693,2.5693,2.5693,2.5693,2.5693,2.5693,2.5693,2.5693,2.5693,2.5693,2.5693,2.5693,2.5693,2.5693,0.0,0.0,0.0,0.0,0.0,0.0,0.0,0.0,0.0,0.0,0.0,0.0,0.0,0.0,0.0,0.0,0.0,3.4607,3.6179,3.6179,3.6179,3.6216,3.6367,3.6405,0.0,3.6405,3.6405,3.6405,3.6405,3.6405,3.6405,3.6405,3.6405,3.6405,3.6405,3.8278,3.9697,3.9697,3.9697,3.9697,3.9697,3.8724,3.8092,0.0,0.0,0.0,3.6386,3.632,3.632,3.632,3.6182,3.6113,3.6113,3.6113,3.6059,3.5928,3.4062,3.3181,3.3131,3.2088,0.0,0.0,0.0,0.0,0.0,3.1618,3.1542,3.1247,2.9503,2.8803,2.8896,2.9852,3.0216,3.0491,0.0,0.0,0.0,0.0,0.0,0.0,0.0,0.0,0.0,0.0,2.4353,2.3949,2.4658,2.384,2.3791,0.0,0.0,0.0,0.0,0.0,0.0,0.0,0.0,0.0,2.5693,2.5693,2.5693,2.5693,2.5693,2.5693,2.5693,2.5693,2.5693,2.5693,2.5693,2.5693,2.5693,2.5693,2.5693,2.5693,2.5693,2.5693,0.0,0.0,0.0,0.0,2.5693,2.5693,0.0,0.0,0.0,0.0,0.0,0.0,0.0,0.0,3.3124,3.3124,3.3124,0.0,3.3891,3.3891,3.3891,3.4331,0.0,3.6405,3.6405,3.6405,3.6405,3.6405,3.6405,3.6405,3.6405,3.6405,3.6405,3.6405,3.6405,3.8278,3.9697,3.9697,3.9697,3.9697,3.9697,3.9478,0.0,0.0,0.0,3.6592,3.632,3.632,3.632,3.632,3.4785,3.3981,3.3981,3.3981,3.356,3.2712,3.2207,3.1986,3.1986,3.1732,0.0,0.0,0.0,0.0,3.1618,3.1618,3.0756,2.9427,2.8978,2.8803,2.8896,2.9852,3.0216,3.0285,0.0,0.0,0.0,0.0,0.0,0.0,0.0,0.0,0.0,0.0,0.0,0.0,0.0,0.0,0.0,0.0,0.0,0.0,0.0,0.0,0.0,0.0,0.0,2.5693,2.5693,2.5693,2.5693,2.5693,2.5693,2.5693,2.5693,2.5693,2.5693,2.5693,2.5693,2.5693,2.5693,2.5693,2.5693,2.5693,2.5693,0.0,0.0,0.0,0.0,0.0,2.5693,2.5693,0.0,2.5693,2.7484,3.009,0.0,0.0,0.0,0.0,3.3124,3.3124,3.3124,3.3124,3.3124,3.3124,3.3124,3.3426,3.4632,3.4896,3.5185,3.6204,3.6405,3.6405,3.6405,3.6405,3.6405,3.6405,3.6405,3.6769,3.7788,3.8931,3.9697,3.9697,3.9697,3.9478,0.0,0.0,0.0,0.0,0.0,3.632,3.632,3.632,3.632,3.632,3.4326,3.3281,3.3281,3.2768,3.2201,3.1618,3.1618,3.1618,3.1618,3.1618,3.0896,0.0,0.0,0.0,3.1618,3.1618,3.0493,2.8803,2.8803,2.8803,2.8896,2.9852,3.0216,3.0216,0.0,0.0,0.0,0.0,0.0,0.0,0.0,0.0,0.0,0.0,0.0,0.0,0.0,0.0,0.0,0.0,0.0,0.0,0.0,0.0,0.0,0.0,2.5693,2.5693,2.5693,2.5693,2.5693,2.5693,2.5693,2.5693,2.5693,2.5693,2.5693,2.5693,2.5693,2.5693,2.5693,2.5693,2.5693,2.5693,2.5693,0.0,0.0,0.0,0.0,0.0,0.0,0.0,0.0,2.5693,2.5693,2.6562,3.1557,0.0,0.0,0.0,0.0,0.0,3.3124,3.3124,3.3124,3.3124,3.3124,3.3124,3.3124,3.3124,3.374,3.5952,3.6405,3.6405,3.6405,3.6405,3.6405,3.6405,3.6694,3.7574,3.9433,3.9697,3.9697,3.9697,3.9697,0.0,3.8356,0.0,0.0,0.0,0.0,3.6538,3.6538,3.6538,3.6483,3.6332,3.4624,3.374,3.374,3.2334,3.1618,3.1618,3.1618,3.1618,3.1618,3.1618,3.0024,0.0,0.0,0.0,3.1607,3.1313,3.022,2.8803,2.8803,2.8803,2.8896,2.9715,3.008,3.0262,0.0,0.0,0.0,0.0,0.0,0.0,0.0,0.0,0.0,0.0,0.0,0.0,0.0,0.0,0.0,0.0,0.0,0.0,0.0,0.0,0.0,2.5693,2.5693,2.5693,2.5693,2.5693,2.5693,2.5693,2.5693,2.5693,2.5693,2.5693,2.5693,2.5693,2.5693,2.5693,2.5693,2.5693,2.5693,2.5693,2.5693,0.0,0.0,0.0,0.0,0.0,0.0,0.0,0.0,2.5693,2.5693,2.6562,3.1557,0.0,0.0,0.0,0.0,0.0,3.3124,3.3124,3.3124,3.3124,3.3124,3.3124,3.3124,3.3124,3.374,3.5952,3.6405,3.6405,3.6405,3.6405,3.6405,3.6405,3.7989,3.9295,3.9647,3.9697,3.9697,3.9697,0.0,3.9633,0.0,0.0,0.0,0.0,0.0,3.772,3.772,3.772,3.7292,3.632,3.6021,3.586,3.586,3.3012,3.1618,3.1618,3.1618,3.1618,3.1618,3.1618,3.0024,0.0,0.0,3.1618,3.1498,2.9871,2.9066,2.8803,2.8803,2.8803,2.8803,2.8978,2.9531,3.0468,0.0,0.0,0.0,0.0,0.0,0.0,0.0,0.0,0.0,0.0,0.0,0.0,0.0,0.0,0.0,0.0,0.0,0.0,0.0,0.0,2.5693,2.5693,2.5693,2.5693,2.5693,2.5693,2.5693,2.5693,2.5693,2.5693,2.5693,2.5693,2.5693,2.5693,2.5693,2.5693,2.5693,2.5693,2.5693,2.5693,0.0,0.0,0.0,0.0,0.0,0.0,0.0,0.0,0.0,0.0,2.5693,2.61,2.8402,0.0,0.0,0.0,0.0,0.0,3.3124,3.3124,3.3124,3.3124,3.3124,3.3124,3.3124,3.3124,3.374,3.5952,3.6405,3.6405,3.6405,3.6405,3.6807,3.7965,3.9032,3.9697,3.9697,3.9697,3.9697,0.0,0.0,0.0,0.0,0.0,0.0,0.0,0.0,0.0,3.7986,0.0,3.636,3.4745,3.4659,3.4386,3.3798,3.2325,3.1936,3.2505,3.2505,3.219,3.1618,3.1618,3.0896,2.971,0.0,3.1618,3.1476,2.9543,2.8803,2.8803,2.8803,2.8803,2.885,2.9347,2.9852,3.0514,0.0,0.0,0.0,0.0,0.0,0.0,0.0,0.0,0.0,0.0,0.0,0.0,0.0,0.0,0.0,0.0,0.0,0.0,0.0,0.0,2.5693,2.5693,2.5693,2.5693,2.5693,2.5693,2.5693,2.5693,2.5693,2.5693,2.5693,2.5693,2.5693,2.5693,2.5693,2.5693,2.5693,2.5693,2.5693,2.5693,0.0,0.0,0.0,0.0,0.0,0.0,0.0,0.0,0.0,0.0,0.0,0.0,0.0,0.0,0.0,3.3124,3.3124,3.3124,3.3124,3.3124,3.3124,3.3124,3.3124,3.3124,3.3124,3.3514,3.4368,3.6065,3.6405,3.6405,3.6405,3.6405,3.7134,3.9333,3.9697,3.9697,3.9697,3.9697,3.9697,3.9697,3.9697,0.0,0.0,0.0,0.0,0.0,0.0,0.0,3.7986,0.0,3.5665,3.335,3.3281,3.2869,3.1986,3.1721,3.2037,3.2919,3.2919,3.2454,3.1618,3.1618,3.1226,3.0622,3.1331,3.1618,3.1476,2.9543,2.8803,2.8803,2.8803,2.8803,2.8896,2.9852,3.0216,3.0514,0.0,0.0,0.0,0.0,0.0,0.0,0.0,0.0,0.0,0.0,0.0,0.0,0.0,0.0,0.0,0.0,0.0,0.0,0.0,0.0,2.5693,2.5693,2.5693,2.5693,2.5693,2.5693,2.5693,2.5693,2.5693,2.5693,2.5693,2.5693,2.5693,2.5693,2.5693,2.5693,2.5693,2.5693,2.5693,2.5693,2.5693,0.0,0.0,0.0,0.0,0.0,0.0,0.0,0.0,0.0,0.0,0.0,0.0,0.0,3.3124,3.3124,3.3124,3.3124,3.3124,3.3124,3.3124,3.3124,3.3124,3.3124,3.3124,3.4708,3.6216,3.638,3.6405,3.6405,3.6405,3.6405,3.7134,3.9333,3.9697,3.9697,3.9697,0.0,3.9697,3.9697,0.0,0.0,0.0,0.0,0.0,0.0,0.0,0.0,3.7986,0.0,0.0,3.34,3.3281,3.3281,3.3181,3.2139,3.1618,3.1732,3.1732,3.168,3.1618,3.1618,3.0149,2.7744,3.0453,3.1618,3.1476,2.9543,2.8803,2.8803,2.8803,2.8803,2.8896,2.9852,3.0216,3.0514,0.0,0.0,0.0,0.0,0.0,0.0,0.0,0.0,0.0,0.0,0.0,0.0,0.0,0.0,0.0,0.0,0.0,0.0,0.0,2.5693,2.5693,2.5693,2.5693,2.5693,2.5693,2.5693,2.5693,2.5693,2.5693,2.5693,2.5693,2.5693,2.5693,2.5693,2.5693,2.5693,2.5693,2.5693,2.5693,2.5693,2.5693,2.5693,0.0,0.0,0.0,0.0,0.0,0.0,0.0,0.0,2.5693,2.5693,2.5693,2.9085,3.3124,3.3124,3.3124,3.3124,3.3124,3.3124,3.3124,3.3124,3.3124,3.3124,3.3124,3.4821,3.6405,3.6405,3.6405,3.6832,3.8178,3.8429,3.8718,3.9559,3.9697,3.9697,3.9697,3.9102,3.8619,0.0,0.0,0.0,0.0,0.0,0.0,0.0,0.0,0.0,0.0,0.0,0.0,3.4272,3.2946,3.224,3.224,3.1834,3.1618,3.1618,3.1618,3.1618,3.1618,3.1618,3.1023,3.0035,3.111,3.1618,3.1476,2.9543,2.8803,2.8803,2.8803,2.8803,2.8896,2.9852,3.0216,3.0331,0.0,0.0,0.0,0.0,0.0,0.0,0.0,0.0,0.0,0.0,0.0,0.0,0.0,0.0,0.0,0.0,0.0,0.0,2.5693,2.5693,2.5693,2.5693,2.5693,2.5693,2.5693,2.5693,2.5693,2.5693,2.5693,2.5693,2.5693,2.5693,2.5693,2.5693,2.5693,2.5693,2.5693,2.5693,2.5693,2.5693,2.5693,2.5693,0.0,0.0,0.0,0.0,0.0,0.0,0.0,0.0,2.5693,2.5693,2.5693,2.9085,3.3124,3.3124,3.3124,3.3124,3.3124,3.3124,3.3124,3.3124,3.3639,3.4155,3.4155,3.5324,3.631,3.5978,3.6168,3.7096,3.9283,3.9697,3.9697,3.9697,3.9697,3.9581,3.9206,3.8514,0.0,0.0,0.0,0.0,0.0,0.0,0.0,0.0,0.0,0.0,0.0,0.0,0.0,0.0,3.3373,3.228,3.1629,3.1618,3.1618,3.1618,3.1618,3.1618,3.1618,3.1618,3.1618,3.1618,3.1618,3.1618,3.1476,2.9543,2.8803,2.8803,2.8803,2.8803,2.8896,2.9852,3.0216,3.0216,0.0,0.0,0.0,0.0,0.0,0.0,0.0,0.0,0.0,0.0,0.0,0.0,0.0,0.0,0.0,0.0,0.0,0.0,2.5693,2.5693,2.5693,2.5693,2.5693,2.5693,2.5693,2.5693,2.5693,2.5693,2.5693,2.5693,2.5693,2.5693,2.5693,2.5693,2.5693,2.5693,2.5693,2.5693,2.5693,2.5693,2.5693,2.5693,2.5693,0.0,0.0,0.0,0.0,0.0,0.0,0.0,2.5693,2.5693,2.5693,2.9085,3.3025,3.3081,3.3124,3.3124,3.3124,3.3124,3.3124,3.3124,3.4783,3.6405,3.6405,3.6405,3.6121,3.5017,3.5644,3.7048,3.9283,3.9697,3.9697,3.9697,3.9697,3.931,3.8145,0.0,0.0,0.0,0.0,0.0,0.0,0.0,0.0,0.0,0.0,0.0,0.0,0.0,0.0,0.0,3.4775,3.3782,3.1618,3.1629,3.1618,3.1618,3.1618,3.1618,3.1618,3.1618,3.1618,3.1618,3.1618,3.1618,3.1476,2.9543,2.8803,2.8803,2.8803,2.8803,2.8896,2.9852,3.017,3.0216,0.0,0.0,0.0,0.0,0.0,0.0,0.0,0.0,0.0,0.0,0.0,0.0,0.0,0.0,0.0,0.0,0.0,0.0,2.5693,2.5693,2.5693,2.5693,2.5693,2.5693,2.5693,2.5693,2.5693,2.5693,2.5693,2.5693,2.5693,2.5693,2.5693,2.5693,2.5693,2.5693,2.5693,2.5693,2.5693,2.5693,2.5693,2.5693,2.5693,0.0,0.0,0.0,0.0,0.0,0.0,0.0,0.0,0.0,2.5693,2.6706,2.8588,3.2064,3.3124,3.3124,3.3124,3.3124,3.3124,3.3124,3.4783,3.6405,3.6405,3.6405,3.6121,3.5017,3.5066,3.6162,3.9129,3.9697,3.9697,3.9697,3.9697,3.931,3.8145,0.0,0.0,0.0,0.0,0.0,0.0,0.0,0.0,0.0,0.0,0.0,0.0,0.0,0.0,0.0,3.3767,3.3419,3.2818,3.1986,3.1618,3.1618,3.1618,3.1618,3.1618,3.1618,3.1618,3.1618,3.1618,3.1618,3.1476,2.9543,2.8803,2.8803,2.8803,2.8803,2.885,2.9117,2.9623,3.0216,0.0,0.0,0.0,0.0,0.0,0.0,0.0,0.0,0.0,0.0,2.5693,2.5693,0.0,0.0,0.0,0.0,0.0,0.0,0.0,2.5693,2.5693,2.5693,2.5693,2.5693,2.5693,2.5693,2.5693,2.5693,2.5693,2.5693,2.5693,2.5693,2.5693,2.5693,2.5693,2.5693,2.5693,2.5693,2.5693,2.5693,2.5693,2.5693,2.5693,0.0,0.0,0.0,0.0,0.0,0.0,0.0,0.0,0.0,2.5693,2.5693,2.6658,3.1645,3.3124,3.3124,3.3124,3.3124,3.3124,3.3124,3.4117,3.5186,3.5685,3.574,3.5596,3.492,3.4775,3.567,3.8487,3.8998,3.8998,3.8998,3.9426,3.931,3.8145,0.0,0.0,0.0,0.0,0.0,0.0,0.0,0.0,0.0,0.0,0.0,0.0,0.0,0.0,0.0,3.3281,3.3281,3.3281,3.2606,3.2302,3.2252,3.1834,3.1834,3.224,3.1834,3.1618,3.1618,3.1618,3.1192,3.0395,2.9285,2.8803,2.8803,2.8803,2.8803,2.8803,2.8803,2.9393,3.0216,0.0,0.0,0.0,0.0,0.0,0.0,0.0,0.0,0.0,0.0,2.5693,2.5693,0.0,0.0,0.0,0.0,0.0,0.0,0.0,0.0,2.5693,2.5693,2.5693,2.5693,2.5693,2.5693,2.5693,2.5693,2.5693,2.5693,2.5693,2.5693,2.5693,2.5693,2.5693,2.5693,2.5693,2.5693,2.5693,2.5693,2.5693,2.5693,2.5693,2.5693,0.0,0.0,0.0,0.0,0.0,0.0,0.0,0.0,2.5693,2.5693,2.661,3.1101,3.2754,3.3124,3.3124,3.3124,3.3124,3.3124,3.3188,3.3543,3.4582,3.4775,3.4775,3.4775,3.4775,3.5473,3.7589,3.7986,3.7914,3.7616,3.8653,3.9154,3.8145,0.0,0.0,0.0,0.0,0.0,0.0,0.0,0.0,0.0,0.0,0.0,0.0,0.0,0.0,3.3281,3.3281,3.3281,3.3281,3.3281,3.3281,0.0,3.2252,3.2302,3.3281,3.2139,3.1618,3.1629,3.1732,3.0636,2.8803,2.8803,2.8803,2.8803,2.8803,2.8803,2.8803,2.8803,2.9393,3.0216,0.0,0.0,0.0,0.0,0.0,0.0,0.0,0.0,0.0,0.0,0.0,0.0,0.0,0.0,0.0,0.0,0.0,0.0,0.0,0.0,2.5693,2.5693,2.5693,2.5693,2.5693,2.5693,2.5693,2.5693,2.5693,2.5693,2.5693,2.5693,2.5693,2.5693,2.5693,2.5693,2.5693,2.5693,2.5693,2.5693,2.5693,2.5693,2.5693,2.5693,2.5693,0.0,0.0,0.0,0.0,0.0,0.0,0.0,2.5693,2.5693,2.5917,2.6982,3.0045,3.3124,3.3124,3.3124,3.3124,3.3124,3.379,3.4509,3.4727,3.4775,3.4775,3.4775,3.4775,3.5473,3.7589,3.7986,3.7183,3.4738,3.6594,3.8303,0.0,0.0,0.0,0.0,0.0,0.0,0.0,0.0,0.0,0.0,0.0,0.0,0.0,0.0,0.0,3.3331,3.3281,3.3281,3.3281,3.3281,3.3281,0.0,3.3069,3.3069,3.3281,3.2139,3.1618,3.1629,3.2555,3.1383,2.8803,2.8803,2.8803,2.8803,2.8803,2.8803,2.8803,2.8803,2.9393,3.0216,0.0,0.0,0.0,0.0,0.0,0.0,0.0,0.0,0.0,0.0,0.0,0.0,0.0,0.0,0.0,0.0,0.0,0.0,0.0,0.0,2.5693,2.5693,2.5693,2.5693,2.5693,2.5693,2.5693,2.5693,2.5693,2.5693,2.5693,2.5693,2.5693,2.5693,2.5693,2.5693,2.5693,2.5693,2.5693,2.5693,2.5693,2.5693,2.5693,2.5693,2.5693,2.5693,2.5693,0.0,0.0,0.0,0.0,0.0,0.0,0.0,2.5693,2.5693,2.9223,3.3124,3.3124,3.3124,3.2982,3.255,3.363,3.4775,3.4775,3.4775,3.4775,3.4775,3.4775,3.4963,3.5616,3.6987,3.6987,3.3804,3.4664,0.0,0.0,0.0,0.0,0.0,0.0,0.0,0.0,0.0,0.0,0.0,0.0,0.0,0.0,3.4775,3.4543,3.4052,3.353,3.3281,3.3281,3.3281,3.3281,3.3281,3.3281,3.3281,3.3281,3.2139,3.1885,3.2454,3.3031,3.1577,2.8803,2.8803,2.8803,2.8803,2.8803,2.8803,2.8803,2.8803,2.9393,3.0216,0.0,0.0,0.0,0.0,0.0,0.0,0.0,0.0,0.0,0.0,0.0,0.0,0.0,0.0,0.0,0.0,0.0,0.0,0.0,0.0,0.0,2.5693,2.5693,2.5693,2.5693,2.5693,2.5693,2.5693,2.5693,2.5693,2.5693,2.5693,2.5693,2.5693,2.5693,2.5693,2.5693,2.5693,2.5693,2.5693,2.5693,2.5693,2.5693,2.5693,2.5693,2.5693,2.5693,2.5693,2.5693,2.5693,0.0,0.0,0.0,0.0,2.5693,2.5693,2.8634,3.2021,3.2884,3.3124,3.2853,3.1925,3.326,3.4775,3.4775,3.4775,3.4775,3.4775,3.4775,3.4494,3.3481,3.5451,3.6362,3.3696,3.3281,0.0,0.0,0.0,0.0,0.0,0.0,0.0,0.0,0.0,0.0,0.0,0.0,0.0,3.4531,3.4543,3.4543,3.4543,3.3717,3.3281,3.3281,3.3281,3.3281,3.3281,3.3281,3.3281,3.3281,3.2291,3.2403,3.3258,3.2914,3.1261,2.8803,2.8803,2.8803,2.8803,2.8803,2.8803,2.8803,2.8803,2.9301,2.9988,0.0,0.0,0.0,0.0,0.0,0.0,0.0,0.0,0.0,0.0,2.5693,2.5693,0.0,0.0,0.0,0.0,0.0,0.0,0.0,0.0,0.0,2.5693,2.5693,2.5693,2.5693,2.5693,2.5693,2.5693,2.5693,2.5693,2.5693,2.5693,2.5693,2.5693,2.5693,2.5693,2.5693,2.5693,2.5693,2.5693,2.5693,2.5693,2.5693,2.5693,2.5693,2.5693,2.5693,2.5693,2.5693,2.5693,2.5693,0.0,0.0,0.0,2.5693,2.5693,2.6149,2.7626,3.1921,3.3124,3.2853,3.1925,3.326,3.4775,3.4775,3.4775,3.4775,3.4775,3.4775,3.4494,3.3481,3.365,3.3792,3.3377,0.0,0.0,0.0,0.0,0.0,0.0,0.0,0.0,0.0,0.0,0.0,0.0,0.0,0.0,3.3668,3.3481,3.3481,3.3481,3.3381,3.3281,3.3281,3.3281,3.3281,3.3281,3.3281,3.3281,3.3281,3.3131,3.3181,3.3178,3.1398,2.9917,2.8803,2.8803,2.8803,2.8803,2.8803,2.8803,2.8803,2.8803,2.8896,2.9117,0.0,0.0,0.0,0.0,0.0,0.0,0.0,0.0,0.0,0.0,0.0,2.5693,0.0,0.0,0.0,0.0,0.0,0.0,0.0,0.0,0.0,2.5693,2.5693,2.5693,2.5693,2.5693,2.5693,2.5693,2.5693,2.5693,2.5693,2.5693,2.5693,2.5693,2.5693,2.5693,2.5693,2.5693,2.5693,2.5693,2.5693,2.5693,2.5693,2.5693,2.5693,2.5693,2.5693,2.5693,2.5693,2.5693,2.5693,2.5693,2.5693,0.0,0.0,0.0,2.5693,2.6791,3.1745,3.3124,3.2853,3.1925,3.326,3.4775,3.4775,3.4775,3.4775,3.4775,3.4775,3.4494,3.3481,3.3281,3.3281,3.3281,0.0,0.0,0.0,0.0,0.0,0.0,0.0,0.0,0.0,0.0,0.0,0.0,0.0,3.8549,3.6764,3.4507,3.3281,3.3281,3.3281,3.3281,3.3281,3.3281,3.3281,3.3281,3.3281,3.3281,3.3281,3.3281,3.3281,3.3166,3.0548,2.9163,2.8803,2.8803,2.8803,2.8803,2.8803,2.8803,2.8803,2.8803,2.8803,2.8932,0.0,0.0,0.0,0.0,0.0,0.0,0.0,0.0,0.0,0.0,0.0,0.0,0.0,0.0,0.0,0.0,0.0,0.0,0.0,0.0,0.0,2.5693,2.5693,2.5693,2.5693,2.5693,2.5693,2.5693,2.5693,2.5693,2.5732,2.6972,2.6935,2.5693,2.5693,2.5693,2.5693,2.5693,2.5693,2.5693,2.5693,2.5693,2.5693,2.5693,2.5693,2.5693,2.5693,2.5693,2.5693,2.5693,2.5693,2.5693,2.5693,2.5693,0.0,0.0,0.0,2.6514,3.0226,3.2152,3.2939,3.2232,3.3217,3.4447,3.4751,3.4775,3.4775,3.4775,3.4775,3.458,3.3817,3.3481,3.3281,3.3281,0.0,0.0,0.0,0.0,0.0,0.0,0.0,0.0,0.0,0.0,0.0,0.0,0.0,3.9305,3.9305,3.5738,3.3568,3.3331,3.353,3.3568,3.3281,3.3281,3.3431,3.3668,3.3431,3.3281,3.3281,3.3281,3.2994,3.2371,3.0135,2.9174,2.9117,2.8896,2.8803,2.8803,2.8803,2.8803,2.8803,2.8803,2.8803,2.8896,0.0,0.0,0.0,0.0,0.0,0.0,0.0,0.0,0.0,0.0,0.0,0.0,2.5693,2.5693,2.5693,2.5693,2.5693,0.0,0.0,0.0,0.0,2.5693,2.5693,0.0,2.5693,2.5693,2.5693,2.5693,2.5693,2.5693,2.5781,3.0508,3.0226,2.5693,2.5693,2.5693,2.5693,2.5693,2.5693,2.5693,2.5693,2.5693,2.5693,2.5693,2.5693,2.5693,2.5693,2.5693,2.5693,2.5693,2.5693,2.5693,2.5693,2.5693,2.5693,0.0,0.0,0.0,2.6014,2.9498,3.3081,3.3038,3.3113,3.3488,3.4558,3.4775,3.4775,3.4775,3.4775,3.4775,3.4726,3.3965,3.3281,3.3281,0.0,0.0,0.0,0.0,0.0,0.0,0.0,0.0,0.0,0.0,0.0,0.0,0.0,3.9305,3.9305,3.6414,3.4298,3.3331,3.42,3.4249,3.3331,3.3281,3.3767,3.4726,3.3767,3.3281,3.3281,3.3281,3.2213,3.0365,3.0216,3.0125,3.008,2.9163,2.8803,2.8803,2.8803,2.8803,2.8803,2.8803,2.8803,2.8803,0.0,0.0,0.0,0.0,0.0,0.0,0.0,0.0,0.0,0.0,0.0,0.0,0.0,2.5693,2.5693,2.5693,2.5693,0.0,0.0,0.0,0.0,2.5693,2.5693,2.5693,2.5693,2.5693,2.5693,2.5693,2.5693,2.7342,3.0508,3.2295,3.2152,3.0463,3.0463,2.868,2.5693,2.5693,2.5693,2.5693,2.5693,2.5693,2.5693,2.5693,2.5693,2.5693,2.5693,2.5693,2.5693,2.5693,2.5693,2.5693,2.5693,2.5693,2.5693,2.5693,2.5693,2.5693,2.5693,2.6982,2.8355,2.8355,3.0732,3.3571,3.5387,3.5307,3.4775,3.4775,3.4775,3.4775,3.4775,3.4494,3.4249,3.4249,0.0,0.0,0.0,0.0,0.0,0.0,0.0,0.0,0.0,0.0,0.0,0.0,0.0,0.0,3.6414,3.5391,3.4628,3.4249,3.458,3.4298,3.3331,3.3965,3.4445,3.4775,3.3767,3.3281,3.3281,3.3281,3.2879,3.211,3.079,2.9852,2.9301,2.9577,2.9347,2.8803,2.8803,2.8803,2.8803,2.8803,2.8803,2.8803,0.0,0.0,0.0,0.0,0.0,0.0,0.0,0.0,0.0,2.5693,0.0,0.0,0.0,0.0,2.5693,2.5693,2.5693,2.5693,2.5693,2.5693,2.5693,2.5693,2.5693,2.5693,2.5693,2.5693,2.5693,2.5693,2.7389,2.9863,3.3124,3.3124,3.3124,3.3124,3.3124,3.0316,2.5693,2.5693,2.5693,2.5693,2.5693,2.5693,2.5693,2.5693,2.5693,2.5693,2.5693,2.5693,2.5693,2.5693,2.5693,2.5693,2.5693,2.5693,2.5693,2.5693,2.5693,2.5693,2.5693,2.5693,2.5693,2.5693,2.9453,3.3501,3.4972,3.5315,3.5211,3.4872,3.4775,3.4775,3.4775,3.4775,3.4689,3.4347,0.0,0.0,0.0,0.0,0.0,0.0,0.0,0.0,0.0,0.0,0.0,0.0,0.0,0.0,3.4775,3.4775,3.4775,3.4775,3.4775,3.4494,3.3817,3.4494,3.4775,3.4775,3.3767,3.3281,3.3281,3.3281,3.2902,3.2213,3.1536,3.0487,2.9301,2.9943,2.9852,2.9255,2.8932,2.8803,2.885,2.9163,2.9082,2.8803,0.0,0.0,0.0,0.0,0.0,0.0,0.0,0.0,2.5927,2.5927,0.0,0.0,0.0,0.0,0.0,2.5693,2.5693,2.5693,2.5693,2.5693,2.5693,2.5693,0.0,0.0,2.5693,2.583,2.5927,2.5927,3.0732,3.3124,3.3124,3.3124,3.3124,3.3124,3.3124,3.0316,2.5693,2.5693,2.5693,2.5693,2.5742,2.5762,2.5762,2.5762,2.5762,2.5762,2.5762,2.5762,2.5762,2.5703,2.5693,2.5693,2.5693,2.5693,2.5693,2.5693,2.5693,2.5732,0.0,0.0,0.0,2.5927,2.9544,3.3124,3.3124,3.4771,3.6046,3.5054,3.4823,3.4823,3.4835,3.4775,3.4494,3.3481,0.0,0.0,0.0,0.0,0.0,0.0,0.0,0.0,0.0,0.0,0.0,0.0,0.0,3.4775,3.4775,3.4775,3.4775,3.4775,3.4775,3.4775,3.4775,3.4775,3.4775,3.4726,3.3767,3.3281,3.3281,3.3281,3.219,3.0422,3.2408,3.2156,3.0308,3.0239,3.017,3.008,2.9174,2.8803,2.8932,2.9852,2.9577,2.885,0.0,0.0,0.0,0.0,0.0,0.0,3.1279,3.1057,3.1057,0.0,0.0,0.0,2.5693,2.5693,2.5693,2.5693,2.5693,2.5693,2.5693,2.5693,2.5693,2.5693,2.9131,2.9361,2.5781,2.9223,3.1057,3.1057,3.2426,3.3124,3.3124,3.3124,3.3124,3.3124,3.3124,3.0316,2.5693,2.5693,2.5693,2.5801,2.708,2.7588,2.7588,2.7588,2.7588,2.7588,2.7588,2.7588,2.7402,2.6103,2.5693,2.5693,2.5693,2.5693,2.5693,2.5693,2.5693,2.6466,3.009,0.0,0.0,0.0,0.0,0.0,3.3124,3.3589,3.4392,3.5702,3.5978,3.574,3.492,3.4775,3.4726,3.4445,0.0,0.0,0.0,0.0,0.0,0.0,0.0,0.0,0.0,0.0,0.0,0.0,3.4775,3.4775,3.4775,3.4775,3.4775,3.4775,3.4775,3.4775,3.4775,3.4775,3.4445,3.3717,3.3431,3.3281,3.3281,3.3281,3.2971,3.2466,3.304,3.296,3.2317,3.0824,2.9806,2.9163,2.8896,2.9209,2.976,2.9347,2.9439,2.9715,0.0,0.0,0.0,0.0,0.0,3.3124,3.3124,3.3124,3.3124,0.0,0.0,0.0,2.8808,2.8808,2.8808,2.8808,2.8808,2.8808,2.8808,2.8808,2.8808,2.8808,3.1557,3.1745,2.8855,3.1601,3.3124,3.3124,3.3124,3.3124,3.3124,3.3124,3.3124,3.3124,3.3124,3.1512,2.8808,2.8808,2.8019,2.6894,2.7891,2.8291,2.8548,3.0813,3.1673,3.1673,3.1673,3.1673,3.1497,3.0524,2.816,2.5693,2.5693,2.7115,2.8808,2.8808,2.8808,2.8947,2.9772,3.1512,3.3124,3.3124,0.0,0.0,3.3124,3.3124,3.3488,0.0,3.5035,3.499,3.4812,3.4775,3.4775,3.4775,0.0,0.0,0.0,0.0,0.0,0.0,0.0,0.0,0.0,0.0,0.0,3.4775,3.4775,3.4775,3.4775,3.4775,3.4775,3.4775,3.4775,3.4775,3.4775,3.4396,3.4101,3.3915,3.3915,3.3717,3.3281,3.3281,3.3281,3.3281,3.3281,3.2799,3.1855,3.0293,2.9301,2.8927,3.0178,3.0225,2.9577,2.9439,2.9485,2.9531,0.0,0.0,0.0,3.3124,3.3124,3.3124,3.3124,3.3124,3.3124,0.0,3.3124,3.3124,3.3124,3.3124,3.3124,3.3124,3.3124,3.3124,3.3124,3.3124,3.3124,3.3124,3.3124,3.3124,3.3124,3.3124,3.3124,3.3124,3.3124,3.3124,3.3124,3.3124,3.3124,3.3124,3.3124,3.3124,3.3124,3.3124,3.1576,2.9207,2.9207,2.9207,2.9713,3.4533,3.6405,3.6405,3.6405,3.6405,3.6405,3.6405,3.2189,2.6903,2.6903,2.977,3.3124,3.3124,3.3124,3.2152,2.7709,2.9727,3.3124,3.3124,3.3124,0.0,3.3124,3.3124,3.3124,0.0,3.3124,3.3408,3.4411,3.4619,3.4619,3.4619,0.0,0.0,0.0,0.0,0.0,0.0,0.0,0.0,3.4775,3.4775,3.4775,3.4775,3.4775,3.4775,3.4775,3.4775,3.4775,3.4775,3.4775,3.4775,3.4775,3.3915,3.3915,3.4775,3.4689,3.42,3.3481,3.3331,3.3281,3.3281,3.3281,3.211,3.0136,2.9546,2.9308,2.9557,3.1976,3.1479,2.938,2.9839,2.9531,2.8803,0.0,0.0,3.3124,3.3124,3.3124,3.3124,3.3124,3.3124,3.3124,3.3124,3.3124,3.3124,3.3124,3.3124,3.3124,3.3124,3.3124,3.3124,3.3124,3.3124,3.3124,3.3124,3.3124,3.3124,3.3124,3.3124,3.3124,3.3124,3.3124,3.3124,3.3124,3.3124,3.3124,3.3124,3.3124,3.3124,3.3124,3.3124,3.3773,3.4836,3.4836,3.4836,3.4945,3.6001,3.6405,3.6405,3.6405,3.6405,3.6405,3.6405,3.5466,3.4328,3.4328,3.3728,3.3124,3.3124,3.3124,3.2896,3.1921,3.2339,3.3124,3.3124,3.3124,0.0,3.3124,3.3124,3.3124,0.0,3.3124,3.3163,3.337,3.3445,3.3445,3.3445,0.0,0.0,0.0,0.0,0.0,0.0,0.0,0.0,0.0,3.4775,3.4775,3.4775,3.4775,3.4775,3.4775,3.4775,3.4775,3.4775,3.4775,3.4775,3.4775,3.4592,3.4592,3.4775,3.3965,3.3915,3.4494,3.3668,3.3281,3.3281,3.3281,3.211,3.0296,3.1814,3.2438,3.2313,3.1212,3.1487,3.2146,2.9891,2.8943,2.8803,3.3124,3.3124,3.3124,3.3124,0.0,0.0,3.3124,3.3124,3.3124,3.3124,3.4079,3.4758,3.4758,3.4758,3.4758,3.4758,3.3752,3.3124,3.3124,3.3124,3.3124,3.3124,3.3124,3.3124,3.3124,3.3124,3.3124,3.3124,3.3124,3.3124,3.3124,3.3124,3.3124,3.3124,3.3124,3.3124,3.3124,3.3124,3.4394,3.6405,3.6405,3.6405,3.6405,3.6405,3.6073,3.5596,3.5596,3.593,3.6405,3.6405,3.6405,3.6405,3.6405,3.5651,3.4544,3.3438,3.3124,3.3124,3.3124,3.3124,3.3124,3.3124,3.3124,0.0,0.0,3.3124,3.3124,3.3124,3.3124,3.3124,3.3124,3.3124,3.3124,3.3124,0.0,0.0,0.0,0.0,0.0,0.0,0.0,0.0,0.0,3.5259,3.5596,3.5596,3.5114,3.5017,3.5596,3.5114,3.4775,3.4775,3.4775,3.4775,3.4775,3.4775,3.4775,3.4775,3.4298,3.4298,3.4775,3.4298,3.3767,3.3224,3.2202,3.2028,3.2524,3.3102,3.3281,3.3178,3.2144,3.1754,3.1485,2.9529,2.8803,2.8803,3.3124,3.3124,3.3124,3.3124,0.0,0.0,0.0,3.3476,3.3752,3.3752,3.5299,3.6405,3.6405,3.6405,3.6405,3.6405,3.4783,3.3752,3.3752,3.3752,3.3752,3.3752,3.335,3.3124,3.3124,3.3124,3.3124,3.3124,3.3124,3.3124,3.3124,3.3124,3.3124,3.3124,3.3124,3.3124,3.3149,3.3533,3.4783,3.6405,3.6405,3.6405,3.6405,3.6405,3.574,3.4775,3.4775,3.5356,3.6121,3.631,3.6405,3.6405,3.6405,3.6405,3.6065,3.428,3.3752,3.3664,3.3237,3.3124,3.3124,3.3124,3.3124,3.3124,0.0,0.0,0.0,3.3124,0.0,3.3124,3.3124,0.0,0.0,0.0,0.0,0.0,0.0,0.0,0.0,0.0,0.0,0.0,0.0,3.5883,3.6405,3.6405,3.5596,3.55,3.6358,3.5404,3.4775,3.4775,3.4775,3.4775,3.4775,3.4775,3.4775,3.4775,3.4775,3.4775,3.4775,3.4592,3.4064,3.3239,3.1714,3.2394,3.4445,3.3866,3.3481,3.3247,3.2845,3.1435,2.9577,2.9024,2.8803,2.8803,3.3124,3.3124,3.3124,3.3124,0.0,0.0,0.0,3.4783,3.604,3.604,3.6254,3.6405,3.6405,3.6405,3.6405,3.6405,3.6179,3.604,3.604,3.604,3.604,3.604,3.4167,3.3124,3.3124,3.3124,3.3124,3.3124,3.3124,3.3124,3.3124,3.3124,3.3124,3.3124,3.3124,3.3124,3.325,3.5198,3.6179,3.6405,3.6405,3.6405,3.6405,3.6405,3.574,3.4775,3.4775,3.4884,3.5114,0.0,3.6405,3.6405,3.6405,3.6405,3.6355,3.6103,3.604,3.5613,3.3652,3.3124,3.3124,3.3124,3.3124,3.3124,0.0,0.0,3.3124,3.3124,0.0,3.3124,3.3124,0.0,0.0,0.0,0.0,0.0,0.0,0.0,0.0,0.0,0.0,0.0,0.0,0.0,3.6405,3.6405,3.631,3.6263,3.6405,3.5404,3.4775,3.4775,3.4775,3.4775,3.4775,3.4775,3.4775,3.4775,3.4775,3.4775,3.4775,3.3866,3.3431,3.3319,3.4,3.3975,3.353,3.4298,3.4101,3.3097,3.1272,2.9351,2.7726,2.8524,2.8803,2.8803,3.3124,3.3124,3.3124,3.3124,0.0,0.0,0.0,3.5814,3.6405,3.6405,3.6405,3.6405,3.6405,3.6405,3.6405,3.6405,3.6405,3.6405,3.6405,3.6405,3.6405,3.6405,3.5525,3.5022,3.5022,3.3778,3.3124,3.3124,3.3124,3.3124,3.3124,3.3124,3.3124,3.3124,3.3124,3.3828,3.5085,3.6015,3.6405,3.6405,3.6405,3.6405,3.6405,3.6405,3.574,3.4775,3.4775,3.5211,3.5787,0.0,3.6405,0.0,0.0,0.0,3.6405,3.6405,3.6405,3.6204,3.5273,3.4092,0.0,0.0,0.0,0.0,3.3124,0.0,3.3124,0.0,0.0,0.0,0.0,0.0,0.0,0.0,3.2001,0.0,0.0,0.0,0.0,0.0,0.0,0.0,0.0,0.0,0.0,0.0,0.0,3.6405,3.6405,3.5404,3.4775,3.4775,3.4775,3.4775,3.4775,3.4775,3.4775,3.4775,3.4775,3.4775,3.4787,3.3767,3.363,3.415,3.4014,3.4003,3.415,3.4014,3.2667,3.0614,2.9717,2.8513,2.7357,2.7773,2.829,2.8803,3.3124,3.3124,3.3269,3.3916,3.5349,0.0,0.0,3.6405,3.6405,3.6405,3.6405,3.6644,3.726,3.7322,3.7322,3.7322,3.6757,3.6405,3.6405,3.6405,3.6405,3.6405,3.6405,3.6405,3.6405,3.4846,3.3727,3.3124,3.3124,3.3124,3.3124,3.3124,3.3124,3.3124,3.3124,3.4343,3.6405,3.6405,3.6405,3.6405,3.6405,3.6405,3.6405,3.6405,3.593,3.5259,3.5259,3.5548,3.6026,3.631,3.6405,0.0,3.6405,0.0,3.6405,3.6405,3.6405,3.6405,3.6405,0.0,0.0,0.0,0.0,0.0,0.0,0.0,0.0,0.0,0.0,0.0,0.0,0.0,3.3124,3.3124,0.0,3.1248,0.0,3.3124,0.0,0.0,0.0,0.0,0.0,0.0,0.0,3.5512,3.6065,3.6405,3.6405,3.5404,3.4775,3.4775,3.4775,3.4775,3.4775,3.4775,3.4775,3.4775,3.4775,3.464,3.4396,3.3915,3.4101,3.4775,3.4014,3.3953,3.425,3.271,3.0759,2.8803,2.8803,2.8196,2.7309,2.7309,2.7914,2.8803,3.3124,3.3124,3.379,3.5927,3.6355,3.6405,3.6405,3.6405,3.6405,3.6405,3.6405,3.7235,3.9346,3.9584,3.9584,3.9584,3.7662,3.6405,3.6405,3.6405,3.6405,3.6405,3.6405,3.6405,3.6405,3.6342,3.5261,3.3124,3.3124,3.3124,3.3124,3.3124,3.3124,3.3124,3.3124,3.4343,3.6405,3.6405,3.6405,3.6405,3.6405,3.6405,3.6405,0.0,3.6358,3.6358,3.6358,0.0,0.0,3.6073,3.6405,0.0,0.0,0.0,0.0,0.0,0.0,0.0,0.0,0.0,0.0,3.3652,0.0,0.0,0.0,0.0,3.3124,0.0,0.0,0.0,0.0,3.3124,3.3124,3.3124,3.3061,0.0,0.0,0.0,0.0,0.0,0.0,0.0,0.0,0.0,0.0,3.3224,3.5198,3.6405,3.6405,3.5404,3.4775,3.4775,3.4775,3.4775,3.4775,3.4775,3.4775,3.4775,3.4775,3.4298,3.3381,3.4347,3.4775,3.4775,3.4787,3.42,3.3132,3.0144,2.8905,2.8803,2.8803,2.8196,2.7309,2.7309,2.7914,2.8803,3.5299,3.5299,3.5525,3.6279,3.6405,3.6405,3.6405,3.6405,3.6945,3.8366,3.8567,3.8856,3.9609,3.9697,3.9697,3.9697,3.77,3.6405,3.6405,3.6405,3.6405,3.6405,3.6405,3.6405,3.6405,3.6405,3.604,3.5299,3.5299,3.4544,3.3124,3.3124,3.3124,3.3124,3.3124,3.4343,3.6405,3.6405,3.6405,3.6405,3.6405,3.6405,3.6405,0.0,0.0,3.6405,3.6405,3.6168,0.0,3.6263,3.6405,3.6405,3.6405,3.6405,3.6405,3.6405,3.6405,0.0,0.0,0.0,3.6229,3.5475,0.0,0.0,0.0,0.0,0.0,0.0,0.0,0.0,0.0,3.3124,3.3124,3.3124,3.3124,3.3124,0.0,0.0,0.0,0.0,0.0,0.0,0.0,0.0,0.0,3.3124,3.3815,3.4871,0.0,3.6073,3.5548,3.4823,3.4775,3.4775,3.4775,3.4775,3.4775,3.4775,3.4775,3.4628,3.4298,3.4628,3.4775,3.4775,3.4775,3.3108,3.0259,2.9217,2.8803,2.8803,2.8803,2.8196,2.7309,2.7309,2.7499,2.7914,3.6405,3.6405,3.6405,3.6405,3.6405,3.6405,3.6405,3.7084,3.8114,3.9496,3.9697,3.9697,3.9697,3.9697,3.9697,3.9697,3.8379,3.7586,3.7586,3.7586,3.7586,3.7586,3.6832,3.6405,3.6405,3.6405,3.6405,3.6405,3.6405,3.5676,3.428,3.3488,3.3124,3.3124,3.3124,3.4343,3.6405,3.6405,3.6405,3.6405,3.6405,3.6405,0.0,0.0,3.7109,3.6405,0.0,3.6168,3.5883,3.6263,3.6168,3.5883,3.6263,3.6405,3.6405,3.6405,3.6405,3.6405,3.6405,3.6405,0.0,3.6405,3.6405,0.0,3.4607,0.0,0.0,0.0,0.0,0.0,0.0,3.3124,3.3124,3.3124,3.3124,3.3124,0.0,3.3124,0.0,0.0,0.0,3.3124,0.0,0.0,3.3124,3.3124,3.3124,3.374,0.0,0.0,3.5692,3.5404,3.5017,3.4775,3.4775,3.4775,3.4775,3.4775,3.4775,3.4775,3.4775,3.4775,3.4775,3.4739,3.3301,3.1185,2.8803,2.8803,2.8803,2.8746,2.843,2.7867,2.7309,2.7309,2.7547,2.7914,3.6405,3.6405,3.6405,3.6405,3.6405,3.6405,3.6405,3.8266,3.9697,3.9697,3.9697,3.9697,3.9697,3.9697,3.9697,3.9697,3.9697,3.9697,3.9697,3.9697,3.9697,3.9697,3.7599,3.6405,3.6405,3.6405,3.6405,3.6405,3.6405,3.6405,3.6367,3.4268,3.3224,3.3081,3.3194,3.4444,3.6405,3.6405,3.6405,3.6405,3.6405,3.6405,3.6644,3.8718,3.8216,3.6405,3.6405,3.5692,3.4969,3.5978,3.5644,3.4969,3.5978,3.631,3.631,3.631,3.6358,3.6405,3.6405,3.6405,3.6405,3.6405,0.0,0.0,0.0,0.0,3.3206,0.0,0.0,0.0,0.0,0.0,3.3124,3.3124,3.3124,3.3124,3.3124,3.3124,3.3124,0.0,0.0,3.3124,3.3124,3.3124,3.3124,3.3124,3.3124,3.3124,0.0,0.0,0.0,3.6358,3.5404,3.4884,3.4884,3.4835,3.4835,3.4884,3.4835,3.4775,3.4775,3.4775,3.4763,3.4559,3.0574,2.8896,2.8896,2.8803,2.8803,2.871,2.7726,2.7357,2.7309,2.7309,2.7914,2.8746,3.6405,3.6405,3.6405,3.6405,3.6405,3.6405,3.6405,3.8266,3.9697,3.9697,3.9697,3.9697,3.9697,3.9697,3.9697,3.9697,3.9697,3.9697,3.9697,3.9697,3.9697,3.9697,3.7599,3.6405,3.6405,3.6405,3.6405,3.6405,3.6405,3.6405,3.6405,3.5827,3.4695,3.3187,3.4833,3.5877,3.6405,3.6405,3.6405,3.6405,3.6405,3.6405,0.0,0.0,3.6908,3.6405,3.6405,3.5692,3.4823,3.5114,3.5017,3.4823,3.5114,3.5211,3.5211,3.5211,3.5787,3.6405,3.6405,3.6405,3.6405,3.6405,3.6405,3.6405,0.0,0.0,0.0,0.0,0.0,0.0,0.0,0.0,0.0,3.3124,3.3124,3.3124,3.3124,3.3124,3.3124,3.3124,0.0,0.0,3.3124,3.3124,3.3124,3.3124,3.3124,3.3124,0.0,0.0,0.0,3.6355,3.6121,3.5978,3.5978,3.5211,3.5211,3.5978,3.5163,3.4775,3.4775,3.4775,3.4699,3.4328,3.1182,2.9852,2.9806,2.9071,2.8803,2.8757,2.8524,2.7961,2.7309,2.7309,2.7441,2.7773,3.6405,3.6405,3.6405,3.6405,3.7222,3.7814,3.7814,3.8881,3.9697,3.9697,3.9697,3.9697,3.9697,3.9697,3.9697,3.9697,3.9697,3.9697,3.9697,3.9697,3.9697,3.9697,3.8492,3.741,3.643,3.6405,3.6405,3.6405,3.6405,3.6405,3.6405,3.6405,3.5751,3.4607,3.5852,3.6405,3.6405,3.6405,3.6405,3.6405,3.6405,3.6405,0.0,3.6405,3.6405,3.6405,3.6405,3.6026,3.5452,3.4969,3.4775,3.4775,3.4775,3.4775,3.4775,3.4775,3.5211,3.5787,3.6263,3.6405,3.6405,3.6405,3.6405,3.6405,3.6405,3.6405,3.6053,0.0,0.0,0.0,0.0,0.0,0.0,3.3124,3.3124,3.3124,3.3124,3.3124,3.3124,3.3124,3.3124,0.0,0.0,3.3124,3.3124,3.3124,3.3124,0.0,0.0,0.0,0.0,3.4934,3.5902,3.6405,3.6405,3.5787,3.5548,3.5692,3.5548,3.5259,3.4787,3.5085,3.4904,3.4314,3.2747,3.1347,3.017,2.9623,2.9163,2.8896,2.976,2.9198,2.7914,2.7441,2.7309,2.7441,3.6877,3.6845,3.6845,3.6845,3.8404,3.9697,3.9697,3.9697,0.0,3.9697,0.0,3.9697,3.9697,3.9697,3.9697,3.9697,3.9697,3.9697,3.9697,3.9697,3.9697,3.9697,3.9697,3.8781,3.6883,3.6556,3.6405,3.6405,3.6405,3.6405,3.6405,3.6405,3.6405,3.6405,3.6405,3.6405,3.6405,3.6405,3.6405,3.6405,3.6405,3.6405,3.6405,3.6405,3.6405,3.6405,3.6405,3.6405,3.6263,3.5307,3.5017,3.5017,3.5017,3.5017,3.5017,3.5017,3.5017,3.5211,3.6168,3.6405,3.6405,3.6405,3.6405,3.6405,3.6405,3.6405,3.6405,3.6405,3.4884,3.342,0.0,0.0,0.0,3.3124,3.3124,0.0,0.0,3.3124,3.3124,3.3124,0.0,0.0,0.0,0.0,3.3124,3.3124,3.3124,0.0,0.0,0.0,0.0,0.0,3.4984,0.0,3.6405,0.0,3.6858,3.5939,3.673,3.6649,3.5759,3.6319,3.613,3.5415,3.5415,3.4011,3.1705,3.1142,3.0362,2.9692,3.1294,3.0701,2.8839,2.7867,2.7499,2.7584,3.9492,3.9107,3.9107,3.9107,3.9433,3.9697,3.9697,3.9697,3.9697,3.9697,3.9697,3.9697,3.9697,3.9697,3.9697,3.9697,3.9697,0.0,3.9697,3.9697,3.9697,3.9697,3.9697,3.9509,3.912,3.7348,3.6405,3.6405,3.6405,3.6405,3.6405,3.6405,3.6405,3.6405,3.6405,3.6405,3.6405,3.6405,0.0,3.6405,3.6405,3.6405,3.6405,3.6405,3.6405,3.6405,3.6405,3.6405,3.6358,3.6168,3.6121,3.6121,3.6121,3.6121,3.6121,3.6121,3.6121,3.6168,3.6358,3.6405,3.6405,3.6405,3.6405,3.6405,3.6405,3.6405,3.6405,3.6405,3.6103,3.5273,3.3463,0.0,0.0,0.0,0.0,0.0,0.0,0.0,3.3124,3.3124,3.3124,3.3124,0.0,0.0,0.0,3.3124,3.3124,0.0,0.0,0.0,0.0,0.0,0.0,0.0,0.0,0.0,0.0,4.1821,4.1324,4.1015,4.0802,4.0924,4.0904,4.0766,4.0766,4.0488,3.9718,3.6208,3.4233,3.339,3.3013,3.1693,2.9852,2.8885,2.8524,2.843,4.3878,4.3646,4.3646,4.3646,4.1455,0.0,0.0,3.9697,3.9697,3.9697,3.9697,3.9697,3.9697,3.9697,3.9697,3.9697,3.9697,3.9697,3.9697,3.9697,3.9697,3.9697,3.9697,3.9697,3.9697,3.7549,3.6405,3.6405,0.0,3.6405,3.6405,3.6405,3.6405,3.6405,3.6405,3.6405,0.0,0.0,0.0,3.6405,3.6405,3.6405,3.6405,3.6405,3.6405,3.6405,3.6405,3.6405,3.6405,3.6405,3.6405,3.6405,3.6405,3.6405,3.6405,3.6405,3.6405,3.6405,3.6405,3.6405,3.6405,3.6405,3.6405,3.6405,3.6405,3.6405,3.6405,3.6405,3.6405,3.5726,3.3526,3.3124,0.0,0.0,0.0,0.0,0.0,0.0,3.3124,3.3124,3.3124,3.3124,0.0,0.0,0.0,0.0,0.0,0.0,0.0,0.0,0.0,0.0,0.0,0.0,0.0,0.0,0.0,4.3305,4.2905,4.2488,4.2092,4.2092,4.2092,4.2092,4.2092,4.2092,4.1908,3.9368,3.8074,3.764,3.7201,3.4843,3.1649,3.1193,3.1048,3.0734,4.7309,4.7309,4.6975,4.5869,4.2363,3.9697,3.9697,3.9697,3.9697,3.9697,3.9697,3.9697,3.9697,3.9697,3.9697,3.9697,3.9697,3.9697,3.9697,3.9697,3.9697,3.9697,3.9697,3.9697,3.9697,3.7965,3.6883,0.0,0.0,0.0,0.0,3.6405,0.0,0.0,0.0,0.0,0.0,0.0,3.6405,3.6405,3.6405,3.6405,3.6405,3.6405,3.6405,3.6405,3.6405,3.6405,3.6405,3.6405,3.6405,3.6405,3.6405,3.6405,3.6405,3.6405,3.6405,3.6405,3.6405,3.6405,3.6405,3.6405,3.6405,3.6405,3.6405,3.6405,3.6405,3.6405,3.6405,3.5877,3.4142,3.3438,0.0,0.0,0.0,0.0,0.0,0.0,3.3124,3.3124,3.3124,3.3124,3.3124,0.0,0.0,0.0,0.0,0.0,0.0,0.0,0.0,0.0,0.0,3.5142,3.9337,0.0,3.9669,0.0,4.3145,4.2718,4.2092,4.1885,4.1787,4.1787,4.1787,4.1484,4.0939,4.0041,3.9648,3.9648,3.9648,3.7182,3.3611,3.3441,3.3013,3.2176,4.7309,4.7309,4.5824,0.0,0.0,0.0,3.9697,3.9697,3.9697,3.9697,3.9697,3.9697,3.9697,3.9697,3.9697,3.9697,3.9697,3.9697,3.9697,3.9697,3.9697,3.9697,3.9697,3.9697,3.9697,3.9484,3.8391,0.0,0.0,3.6405,0.0,0.0,0.0,0.0,0.0,0.0,0.0,3.6405,3.6405,3.6405,3.6405,3.6405,3.6405,3.6405,3.6405,3.6405,3.6405,3.6405,3.6405,3.6405,3.6405,3.6405,3.6405,3.6405,3.6405,3.6405,3.6405,3.6405,3.6405,3.6405,3.6405,3.6405,3.6405,3.6405,3.6405,3.6405,3.6405,3.6405,3.6405,3.6355,3.6141,3.4469,3.3124,0.0,0.0,0.0,0.0,0.0,3.3124,3.3124,3.3124,3.3124,0.0,3.3124,0.0,0.0,0.0,0.0,0.0,0.0,0.0,3.3124,0.0,3.5142,3.9337,4.1557,0.0,4.329,4.2555,4.2175,4.2051,4.1227,4.083,4.083,4.083,3.9547,3.7408,3.6534,3.6171,3.6171,3.6171,3.5873,3.5345,3.4564,3.2661,3.0442,0.0,0.0,0.0,0.0,0.0,0.0,0.0,3.9697,3.9697,3.9697,3.9697,3.9697,3.9697,3.9697,3.9697,3.9697,3.9697,3.9697,3.9697,3.9697,3.9697,3.9697,3.9697,3.9697,3.9697,3.9697,3.9258,0.0,0.0,0.0,0.0,0.0,0.0,0.0,0.0,3.6405,3.6405,3.6405,3.6405,3.6405,3.6405,3.6405,3.6405,3.6405,3.6405,3.6405,3.6405,3.6405,3.6405,3.6405,3.6405,3.6405,3.6405,3.6405,3.6405,3.6405,3.6405,3.6405,3.6405,3.6405,3.6405,3.6405,3.6405,3.6405,3.6405,3.6405,3.6405,3.6405,3.6405,3.6405,3.6405,3.5688,3.4658,0.0,0.0,0.0,0.0,0.0,0.0,3.3124,3.3124,3.3124,3.3124,0.0,0.0,0.0,0.0,0.0,0.0,0.0,0.0,3.3124,0.0,3.5142,3.9337,4.1974,4.3065,4.2596,4.2758,4.257,4.2092,4.1704,4.1522,4.1522,4.0958,4.014,3.9171,3.8839,3.7839,3.6468,3.6468,3.6151,3.5669,3.5304,3.3433,3.1026,4.7309,0.0,4.1936,0.0,4.0693,3.9697,3.9697,3.9697,3.9697,3.9697,3.9697,3.9697,3.9697,3.9697,3.9697,3.9697,3.9697,3.9697,3.9697,3.9697,3.9697,3.9697,3.9697,0.0,3.9697,3.9697,3.9697,3.9697,3.7498,0.0,0.0,0.0,0.0,0.0,3.6405,3.6405,3.6405,3.6405,3.6405,3.6405,3.6405,3.6405,3.6405,3.6405,3.6405,3.6405,3.6405,3.6405,3.6405,3.6405,3.6405,3.6405,3.6405,3.6405,3.6279,3.5625,3.5902,3.6405,3.6405,3.6405,3.6405,3.6405,3.6405,3.6405,3.6405,3.6405,3.6405,3.6405,3.6405,3.6405,3.6405,3.6405,3.5902,3.4343,0.0,0.0,0.0,3.3124,0.0,3.3124,3.3124,3.3124,3.3124,3.3124,0.0,0.0,0.0,0.0,0.0,0.0,0.0,0.0,0.0,0.0,0.0,4.1974,4.2905,4.2092,4.2677,4.2637,4.2092,4.2092,4.2092,4.2051,4.1086,4.0702,4.0702,4.0702,3.9226,3.6978,3.6978,3.6468,3.571,3.571,3.3982,3.1572,4.7309,4.7251,4.7207,4.7207,4.3026,3.9697,3.9697,3.9697,3.9697,3.9697,3.9697,3.9697,3.9697,3.9697,3.9697,3.9697,3.9697,3.9697,3.9697,3.9697,3.9697,0.0,0.0,3.9697,3.9697,3.9697,3.9697,3.9697,0.0,0.0,3.6405,0.0,3.6405,3.6405,3.6405,3.6405,3.6405,3.6405,3.6405,3.6405,3.6405,3.6405,3.6405,3.6405,3.6405,3.6405,3.6405,3.6405,3.6405,3.6405,3.6405,3.6405,3.6405,3.6405,3.5977,3.3803,3.4708,3.6405,3.6405,3.6405,3.6405,3.6405,3.6405,3.6405,3.6405,3.6405,3.6405,3.6405,3.6405,3.6405,3.6405,3.6405,3.6405,3.6367,0.0,0.0,0.0,0.0,0.0,3.3124,3.3124,3.3124,3.3124,3.3124,0.0,0.0,0.0,0.0,0.0,0.0,0.0,3.9177,3.5264,0.0,3.9337,4.1974,4.2905,4.2092,4.2092,4.2092,4.2092,4.2092,4.2092,4.2051,4.1086,4.0702,4.0702,4.0702,3.9226,3.6978,3.6978,3.6468,3.571,3.571,3.3982,3.1572,4.7309,4.7309,4.7309,4.7309,4.5446,4.4125,4.478,4.4345,4.2937,4.0083,3.9697,3.9697,3.9697,3.9697,3.9697,0.0,3.9697,3.9697,0.0,3.9697,3.9697,3.9697,3.9697,3.9697,3.9697,3.9697,3.9697,3.9697,0.0,0.0,0.0,3.6405,3.6405,3.6405,3.6405,3.6405,3.6405,3.6405,3.6405,3.6405,3.6405,3.6405,3.6405,3.6405,3.6405,3.6405,3.6405,3.6405,3.6405,3.6405,3.6405,3.6405,3.6405,3.6405,3.6267,3.5563,3.5864,3.6078,3.4582,3.4167,3.4167,3.4167,3.5299,3.6405,3.6405,3.6405,3.6405,3.6405,3.6405,3.6405,3.6405,3.6405,3.6405,3.6405,3.5814,0.0,0.0,0.0,3.415,3.7035,3.4869,3.3124,0.0,3.5695,0.0,0.0,0.0,0.0,0.0,0.0,0.0,0.0,3.8107,0.0,3.9388,4.1974,4.2905,4.2092,4.2092,4.2092,4.2092,4.1438,4.1142,4.1043,3.9026,3.8173,3.8118,3.7551,3.6811,3.6111,3.6111,3.5951,3.5642,3.5018,3.4259,3.3501,4.7309,4.7309,4.7309,4.7309,4.6815,4.6639,4.7222,4.6506,4.4957,4.2355,4.2025,4.2025,4.2025,4.2025,0.0,3.9839,3.9697,3.9697,3.9697,3.9697,3.9697,3.9697,3.9697,3.9697,3.9697,0.0,0.0,3.9697,3.9697,3.8555,3.6405,3.6405,3.6405,3.6405,3.6405,3.6405,3.6405,3.6405,3.6405,3.6405,3.6405,3.6405,3.6405,3.6405,3.6405,3.6405,3.6405,3.6405,3.6405,3.6405,3.6405,3.6405,3.6405,3.6405,3.6405,3.6405,3.6405,3.6103,3.4733,3.4356,3.4356,3.4356,3.4758,3.5387,3.6216,3.6405,3.6405,3.6405,3.6405,3.6405,3.6405,3.6405,3.6977,3.8725,3.754,3.5927,3.4544,0.0,0.0,0.0,0.0,0.0,0.0,3.7829,0.0,0.0,0.0,0.0,0.0,0.0,0.0,3.9388,3.9388,0.0,4.04,4.2326,4.2905,4.2092,4.1745,4.1578,4.1578,4.1311,4.0365,3.8755,3.7174,3.6508,3.6429,3.5588,3.5223,3.5223,3.5223,3.5223,3.5141,3.4605,3.4397,3.4397,4.7309,4.7309,0.0,0.0,4.7309,0.0,4.7309,4.655,4.6015,4.6015,4.5925,4.588,4.588,4.588,4.434,4.0478,0.0,0.0,0.0,3.9609,3.9697,3.9697,3.9697,3.9697,3.9697,3.9697,3.9839,4.0134,3.9839,3.8768,3.7044,3.6879,3.6628,3.6405,3.6405,3.6405,3.6405,3.6675,3.6815,3.6769,3.6499,3.6405,3.6405,3.6405,3.6405,3.6452,3.6675,3.6815,3.6769,3.6499,3.6593,3.6815,3.6815,3.6628,3.6405,3.6405,3.6405,3.6405,3.6405,3.6405,3.6405,3.6405,3.5039,3.4259,3.6345,3.6815,3.6718,3.6565,3.648,3.6405,3.6405,3.6628,3.8198,4.2589,3.9669,3.6883,3.6883,0.0,0.0,0.0,0.0,0.0,0.0,3.9388,3.9388,0.0,0.0,0.0,0.0,0.0,3.9388,3.9388,3.9352,4.0208,4.2078,4.2824,4.2824,4.2092,4.1227,4.0744,4.0744,4.162,3.9864,3.6116,3.5899,3.579,3.571,3.4853,3.4481,3.4481,3.4481,3.4481,3.4481,3.4439,3.4397,3.4397,0.0,0.0,4.7309,4.7309,4.7309,4.7309,4.7309,4.7135,4.6946,4.6946,4.6328,4.588,4.588,4.588,4.5489,4.4527,4.1531,3.8969,3.731,3.8743,3.9697,3.9697,3.9697,3.9697,3.9697,3.9697,4.1246,4.4434,4.1246,4.1057,4.361,4.1676,3.9179,3.6405,3.6405,3.6405,3.6581,3.9489,4.0745,4.0488,3.7566,3.6405,3.6405,3.6405,3.6405,3.6769,3.9722,4.0745,4.0301,3.7394,3.8328,4.0745,4.0745,3.8734,3.6405,3.6405,3.6405,3.6405,3.6405,3.6405,3.6405,3.6405,3.8185,4.0125,4.0618,4.0745,4.0196,3.8187,3.7025,3.6405,3.6405,3.8778,4.1296,4.3036,4.2371,4.167,4.167,4.2073,0.0,0.0,3.9388,3.9388,3.9388,3.9388,3.9388,0.0,0.0,0.0,0.0,0.0,3.9388,3.9388,3.8811,3.9658,4.2078,4.2284,4.2284,4.2092,4.187,4.1396,4.0702,4.0915,4.0858,4.0437,3.7807,3.6705,3.6626,3.575,3.5386,3.5386,3.5386,3.5386,3.5304,3.4647,3.4397,3.4397,4.7309,4.7309,4.7309,4.7309,4.7309,4.7309,4.7309,4.7309,4.7309,4.7309,4.6858,4.6373,4.594,4.588,4.588,4.588,4.2782,4.0299,3.9083,4.0124,4.0804,4.0804,4.0114,4.0567,4.2501,4.255,4.3067,4.4153,4.3067,4.3701,4.5851,4.4472,4.2106,3.9002,3.9002,3.9002,3.9135,4.1241,4.2092,4.1912,3.9853,3.9002,3.9002,3.9002,3.9002,3.9268,4.1381,4.2092,4.1773,3.9722,4.0085,4.1438,4.1438,4.0055,3.8355,3.8355,3.7441,3.6675,3.7991,3.8355,3.8477,3.8912,4.0574,4.2092,4.2092,4.2092,4.17,4.0278,3.9452,3.9002,3.9002,4.1015,4.2799,4.321,4.329,4.329,4.329,4.329,0.0,4.1331,4.1167,4.1167,4.1167,4.0091,3.9388,3.9388,0.0,0.0,4.1167,4.1167,4.1016,4.0663,4.0222,4.0655,4.2092,4.2092,4.2092,4.2092,4.2092,4.1829,4.1269,3.9729,3.9302,3.9748,3.9439,3.7992,3.5777,3.5291,3.51,3.51,3.51,3.4853,3.4481,3.4439,3.4397,3.4397,4.7309,4.7309,4.7309,4.7309,4.7309,4.7309,4.7309,4.7309,4.7309,4.7309,4.7309,4.7005,4.6194,4.6105,4.5914,4.5388,4.3468,4.2216,4.2092,4.2092,4.2092,4.2092,4.1153,4.2306,4.5835,4.5369,4.411,4.2092,4.4632,4.588,4.588,4.5503,4.4153,4.2092,4.2092,4.2092,4.2092,4.2092,4.2092,4.2092,4.2092,4.2092,4.2092,4.2092,4.2092,4.2092,4.2092,4.2092,4.2092,4.1926,4.1354,4.0702,4.0702,4.0702,4.0702,4.0702,3.8984,3.7579,4.0025,4.0787,4.1086,4.1926,4.2092,4.2092,4.2092,4.2092,4.2092,4.2092,4.2092,4.2092,4.2092,4.2758,4.329,4.329,4.329,4.329,4.329,0.0,4.329,4.329,4.329,4.329,4.329,4.1173,3.9787,3.9787,4.1841,0.0,0.0,4.3105,4.2799,4.2133,4.2092,4.2092,4.2092,4.2092,4.2092,4.2092,4.2092,4.2092,4.1978,3.8968,3.733,3.7144,3.9936,3.9004,3.551,3.4708,3.4397,3.4397,3.4272,3.3738,3.3197,3.4076,3.4397,3.4397,4.7309,4.7309,4.7309,4.7309,4.7309,4.7309,4.7309,4.7309,4.7309,4.7309,4.7309,4.7251,4.7077,4.7077,4.5898,4.296,4.2953,4.2839,4.2133,4.2092,4.2092,4.2092,4.3914,4.5261,4.588,4.3009,4.1696,4.2092,4.4632,4.588,4.5837,4.3689,4.2469,4.2092,4.2092,4.2092,4.2092,4.2092,4.2092,4.2092,4.2092,4.2092,4.2092,4.2092,4.2092,4.2092,4.2092,4.2092,4.1968,4.1185,4.083,4.0702,4.0702,4.0702,4.0702,4.0702,4.0372,4.0112,4.0559,4.1269,4.1926,4.2051,4.2092,4.2092,4.2092,4.2092,4.2092,4.2092,4.2092,4.2092,4.2092,4.2758,4.329,4.329,4.329,4.329,4.329,0.0,4.329,4.329,4.329,4.329,4.329,4.2309,4.166,4.166,4.2065,4.2298,4.2298,4.2298,4.2216,4.2092,4.2092,4.2092,4.2092,4.2092,4.2092,4.2092,4.2092,4.2092,4.2036,4.073,3.8974,3.7007,3.679,3.8294,4.0556,3.6192,3.4397,3.4314,3.3569,3.3197,3.3197,3.4076,3.4397,3.4397,4.7309,4.7309,4.7309,4.7309,4.7309,4.7309,4.7309,4.7309,4.7309,4.7309,4.7309,4.7309,4.7309,4.7309,4.6062,4.302,4.3105,4.3145,4.2758,4.2758,4.2555,4.2133,4.3224,4.3618,4.311,4.1494,4.1185,4.2092,4.3268,4.3848,4.3819,4.2644,4.2092,4.2092,4.2092,4.1829,4.1396,4.1885,4.2092,4.2092,4.2092,4.2092,4.2092,4.2092,4.2092,4.2092,4.2092,4.1787,4.1269,4.083,4.0702,4.0702,4.0702,4.0702,4.0702,4.0702,4.0702,4.0702,4.0702,4.1001,4.148,4.1968,4.2092,4.2092,4.2092,4.2092,4.2092,4.2092,4.2092,4.2092,4.2092,4.2758,4.329,4.329,4.329,0.0,0.0,4.329,4.329,4.329,4.329,4.3145,4.2677,4.2325,4.2092,4.2092,4.2092,4.2092,4.2092,4.2092,4.2092,4.2092,4.2092,4.2092,4.2092,4.2092,4.2092,4.2092,4.2092,4.2092,4.2092,4.1662,4.0545,3.8876,3.6647,3.6823,3.8584,3.8005,3.6191,3.3654,3.324,3.3124,3.3197,3.4076,3.4397,3.4397,4.7309,4.7309,4.7309,4.7309,4.7309,4.7309,4.7309,4.7309,4.7309,4.7309,4.7309,4.7309,4.7309,4.6756,4.5559,4.3469,4.329,4.329,4.329,4.313,4.2839,4.2407,4.1995,4.1438,4.0702,4.0702,4.1043,4.1787,4.2009,4.2092,4.2092,4.2092,4.2092,4.2092,4.187,4.1354,4.0744,4.148,4.1926,4.2092,4.2092,4.2092,4.2092,4.2092,4.2092,4.2051,4.1829,4.1311,4.0702,4.0702,4.0702,4.0702,4.0702,4.0702,4.0589,4.0013,4.0252,4.0702,4.0702,4.0702,4.0873,4.1578,4.1926,4.2092,4.2092,4.2092,4.2092,4.2092,4.2092,4.2092,4.2092,4.2758,4.329,4.329,0.0,0.0,0.0,4.329,4.329,4.329,4.3145,4.2799,4.2175,4.2092,4.2092,4.2092,4.2092,4.2092,4.2092,4.2092,4.2092,4.2092,4.2092,4.2092,4.2092,4.2092,4.2092,4.2092,4.2092,4.2009,4.1787,4.2009,4.1704,4.0859,3.8048,3.6429,3.5899,3.8463,3.7677,3.4757,3.3558,3.3124,3.3197,3.4076,3.4397,3.4397,4.7309,4.7309,4.7309,4.7309,4.7309,4.7309,4.7309,4.7309,4.7309,4.7309,4.7309,4.7309,4.7309,4.5053,4.3514,4.3305,4.329,4.329,4.329,4.2596,4.2488,4.317,4.1646,4.0787,4.0702,4.0702,4.0744,4.0787,4.1662,4.2092,4.2092,4.2092,4.2092,4.2051,4.1185,4.0744,4.0702,4.0787,4.1311,4.2092,4.2092,4.2092,4.2092,4.2092,4.2092,4.2009,4.1128,4.0744,4.0702,4.0702,4.0702,4.0702,4.0702,4.0702,4.0252,3.7934,3.8889,4.0702,4.0702,4.0702,4.0702,4.0787,4.1438,4.2092,4.2092,4.2092,4.2092,4.2092,4.2092,4.2092,4.2092,4.2758,4.329,4.329,0.0,0.0,4.329,4.329,4.329,4.329,4.2637,4.2175,4.2092,4.2092,4.2092,4.2092,4.2092,4.2092,4.2092,4.2092,4.2092,4.2092,4.2092,4.2092,4.2092,4.2092,4.2092,4.2092,4.2092,4.1662,4.083,4.1704,4.2051,4.1912,4.0802,3.8574,3.5737,3.5981,3.7676,3.9657,3.4921,3.3124,3.3197,3.4076,3.4397,3.4397,4.7309,4.7309,4.7309,4.7309,4.7309,4.7309,4.7309,4.7309,4.7309,4.7309,4.7309,4.7309,4.7309,4.4889,4.329,4.329,4.329,4.329,4.329,4.3025,4.2985,4.3305,4.2673,4.1813,4.073,4.0702,4.0702,4.0702,4.1662,4.2092,4.2092,4.148,4.1227,4.1227,4.0873,4.0702,4.0702,4.0702,4.0915,4.1269,4.187,4.2092,4.2051,4.1438,4.1227,4.1185,4.083,4.0702,4.0702,4.0702,4.0702,4.0702,4.0702,3.9634,3.8215,3.7259,3.8749,4.035,3.8805,3.8397,3.8763,4.0322,3.9799,3.9347,4.0871,4.1227,4.1227,4.1227,4.1704,4.2092,4.2092,4.2758,4.329,4.329,0.0,4.329,4.329,4.329,4.329,4.329,4.2596,4.2092,4.2092,4.2092,4.2092,4.2092,4.2092,4.2092,4.2092,4.2092,4.2092,4.2092,4.2092,4.2092,4.2092,4.2092,4.2092,4.2092,4.2092,4.1926,4.1578,4.1311,4.1564,4.2051,4.1086,3.9117,3.6468,3.5911,3.6457,3.7621,3.7776,3.6197,3.3949,3.4272,3.4397,3.4397,4.7309,4.7309,4.7309,4.7309,4.7309,4.7025,4.6187,4.677,4.7309,4.7309,4.7309,4.6995,4.6157,4.4381,4.329,4.329,4.329,4.329,4.329,4.329,4.329,4.329,4.329,4.247,4.0744,4.0386,4.0386,4.0702,4.1354,4.1662,4.1662,4.1001,4.0702,4.0702,4.0702,4.0702,4.0702,4.0702,4.053,4.0244,4.0151,4.0737,4.1578,4.0958,4.0702,4.0702,4.0702,4.0702,4.0702,4.0702,4.0702,4.0561,3.9774,3.8355,3.6978,3.6978,3.7985,3.8992,3.8316,3.7384,3.7069,3.9059,3.8243,3.7428,3.9142,4.014,4.0702,4.0702,4.1438,4.2092,4.2092,4.2758,4.313,4.2552,4.2915,4.321,4.2945,4.3145,4.3225,4.2945,4.2447,4.2092,4.2092,4.2092,4.2092,4.2092,4.2092,4.2092,4.2092,4.2092,4.2092,4.2092,4.2092,4.1968,4.1662,4.1968,4.2092,4.2092,4.2092,4.1968,4.1662,4.1001,4.1043,4.162,4.0958,3.9732,3.8048,3.6667,3.5951,3.5913,3.7936,3.7315,3.5168,3.4605,3.4397,3.4397,4.7309,4.7309,4.7309,4.7309,4.7294,4.6381,4.3708,4.5574,4.7279,4.7309,4.7279,4.6277,4.3589,4.329,4.329,4.329,4.329,4.329,4.329,4.329,4.329,4.329,4.329,4.247,4.0744,3.9777,3.9733,4.0702,4.0702,4.0702,4.0702,4.0702,4.0702,4.0702,4.0702,4.0702,4.0702,4.0702,4.0126,3.9102,3.67,3.769,4.0674,4.0688,4.0702,4.0702,4.0702,4.0702,4.0702,4.0702,4.0688,4.0238,3.7765,3.6978,3.6978,3.6978,3.6389,3.6443,3.9745,3.8242,3.5911,3.6783,3.6978,3.6978,3.6978,3.8917,4.0702,4.0702,4.1438,4.2092,4.2092,4.2758,4.2714,4.0986,4.2143,4.3025,4.2216,4.2799,4.2985,4.2216,4.2092,4.2092,4.2092,4.2092,4.2092,4.2092,4.2092,4.2092,4.2092,4.2092,4.2092,4.2092,4.2092,4.1662,4.0702,4.162,4.2092,4.2092,4.2092,4.162,4.0702,4.0702,4.0702,4.0702,4.0674,4.0674,4.0505,3.8032,3.6482,3.5588,3.4729,3.5453,3.6783,3.5046,3.4397,3.4397,4.7309,4.7309,4.7309,4.7309,4.5753,4.4201,4.3409,4.3962,4.5185,4.7055,4.5678,4.4172,4.3379,4.329,4.329,4.329,4.329,4.329,4.329,4.329,4.329,4.329,4.2143,4.093,3.9733,3.9438,3.9733,4.0702,4.0702,4.0702,4.0702,4.0702,4.0702,4.0702,4.0702,4.0702,4.0659,3.9996,3.9557,3.9237,3.8518,3.782,3.7456,3.9816,4.0702,4.0702,4.0702,4.0702,4.0702,4.0702,3.9535,3.7962,3.7217,3.6978,3.6861,3.627,3.635,3.6714,3.7084,3.6457,3.5911,3.6783,3.6978,3.6978,3.6978,3.8917,4.0873,4.1564,4.1926,4.2092,4.2092,4.1758,4.1311,4.0787,4.1675,4.2366,4.2133,4.2284,4.2366,4.2133,4.2092,4.2092,4.2092,4.2092,4.2092,4.2092,4.2092,4.2092,4.2092,4.2092,4.2092,4.2092,4.2092,4.1662,4.0702,4.162,4.2092,4.2092,4.1438,4.0958,4.0702,4.0702,4.0702,4.0603,3.8847,3.9086,4.0631,3.9901,3.8061,3.5588,3.4729,3.4716,3.525,3.5977,3.5453,3.4397,4.7309,4.6456,4.6067,4.7115,4.5053,4.329,4.329,4.329,4.3873,4.5529,4.4291,4.329,4.329,4.329,4.329,4.329,4.329,4.329,4.329,4.329,4.329,4.329,4.2307,4.0958,3.9349,3.9305,3.9733,4.0702,4.0702,4.0702,4.0702,4.0702,4.0702,4.0702,4.0702,4.0487,4.0126,3.9526,3.9305,3.9305,3.9305,3.7853,3.5913,3.7952,3.955,4.0702,4.0702,4.0069,3.9226,3.9226,3.8229,3.6978,3.6978,3.6744,3.6468,3.627,3.635,3.6389,3.5831,3.571,3.5831,3.635,3.6744,3.7245,3.8229,3.9911,4.1396,4.1968,4.2092,4.2009,4.162,4.1086,4.0702,4.0702,4.148,4.2092,4.2092,4.2092,4.2092,4.2092,4.2092,4.2092,4.2092,4.2092,4.2092,4.2092,4.2092,4.2092,4.2092,4.2092,4.1926,4.1578,4.1564,4.1269,4.0702,4.1269,4.1745,4.2092,4.1522,4.1043,4.0702,4.0702,4.0702,4.0617,3.91,3.8749,3.9311,4.0294,3.8936,3.6111,3.525,3.4688,3.4522,3.5561,3.5535,3.4853,4.695,4.5005,4.4067,4.6531,4.4904,4.329,4.329,4.329,4.329,4.329,4.329,4.329,4.329,4.329,4.329,4.329,4.329,4.329,4.329,4.329,4.329,4.329,4.329,4.2155,3.9719,3.9424,3.9733,4.0573,4.0659,4.0702,4.0702,4.0702,4.0702,4.0702,4.0616,4.0083,3.9305,3.9305,3.9305,3.9305,3.9305,3.7824,3.5588,3.5588,3.7483,4.0151,4.0322,3.8917,3.6978,3.6978,3.6978,3.6978,3.69,3.635,3.5871,3.6665,3.631,3.571,3.571,3.571,3.571,3.579,3.6595,3.7946,4.0309,4.148,4.2092,4.2092,4.1877,4.1358,4.0534,4.0547,4.0702,4.0702,4.148,4.2092,4.2092,4.2092,4.2051,4.1968,4.1968,4.2009,4.2092,4.2092,4.2092,4.2092,4.2092,4.2092,4.2092,4.2009,4.1578,4.0744,4.0702,4.0702,4.0702,4.0702,4.1128,4.1968,4.1968,4.1522,4.0702,4.0702,4.0702,4.0688,4.0463,3.9086,3.7161,3.934,3.8989,3.69,3.6111,3.5304,3.4522,3.4439,3.4895,3.5467,4.4157,4.3693,4.3469,4.4052,4.3678,4.329,4.329,4.329,4.329,4.329,4.329,4.329,4.329,4.329,4.329,4.329,4.329,4.329,4.329,4.329,4.329,4.329,4.329,4.3036,4.2456,4.0388,3.9394,3.9601,4.0343,4.0702,4.0702,4.0702,4.0702,4.0659,3.9908,3.9482,3.9305,3.9305,3.9305,3.9305,3.9305,3.7467,3.4688,3.4688,3.5116,3.593,3.7299,3.7442,3.6978,3.6978,3.6978,3.6861,3.6191,3.5831,3.575,3.5911,3.5831,3.571,3.571,3.571,3.5871,3.6547,3.8332,4.0252,4.1491,4.1968,4.2092,4.2092,3.9986,3.8031,3.7833,3.9381,4.0702,4.0702,4.148,4.2092,4.2092,4.2092,4.1829,4.1086,4.1001,4.1311,4.2009,4.2092,4.2092,4.2092,4.2092,4.2092,4.2092,4.1396,4.0915,4.0702,4.0702,4.0702,4.0702,4.0702,4.0787,4.1001,4.1001,4.0915,4.0702,4.0702,4.0702,4.0589,3.8636,3.7484,3.6982,3.6835,3.6873,3.6978,3.6783,3.6191,3.5345,3.4647,3.4522,3.4634,4.329,4.329,4.329,4.329,4.329,4.329,4.329,4.329,4.329,4.329,4.329,4.329,4.329,4.329,4.329,4.329,4.329,4.329,4.329,4.329,4.329,4.329,4.329,4.2699,4.1408,4.1282,4.056,3.9305,4.0257,4.0702,4.0702,4.0257,4.0039,3.9996,3.9526,3.9305,3.9305,3.9305,3.9305,3.9305,3.9305,3.7337,3.4397,3.4397,3.4397,3.4522,3.5453,3.6296,3.694,3.6508,3.6389,3.631,3.5831,3.571,3.571,3.571,3.571,3.571,3.571,3.571,3.6184,3.8251,4.008,4.148,4.2009,4.2092,4.1621,4.0015,3.8249,3.7344,3.8538,3.9816,4.0181,3.8574,4.043,4.2092,4.2092,4.1704,4.1269,4.0744,4.0702,4.1086,4.2009,4.2092,4.2092,4.2092,4.2092,4.1926,4.1438,4.0958,4.0702,4.0702,4.0702,4.0702,4.0702,4.0702,4.0702,4.0688,3.9493,3.955,4.0702,4.0702,4.0041,3.8847,3.7555,3.6978,3.694,3.6508,3.635,3.6429,3.6822,3.6468,3.5629,3.5182,3.4771,3.4439,4.329,4.329,4.329,4.329,4.329,4.329,4.329,4.329,4.329,4.329,4.329,4.329,4.329,4.329,4.329,4.329,4.329,4.329,4.329,4.329,4.329,4.329,4.329,4.2032,3.9349,4.1908,4.2196,3.9968,4.03,4.0487,4.043,3.9645,3.9305,3.9305,3.9305,3.9305,3.9305,3.9305,3.8973,3.8462,3.8462,3.6847,3.4397,3.4397,3.4397,3.4397,3.4397,3.5413,3.6665,3.5951,3.571,3.571,3.571,3.571,3.571,3.571,3.571,3.571,3.571,3.613,3.7209,4.0012,4.1396,4.2009,4.1704,4.1317,4.0194,3.7361,3.69,3.7611,3.969,3.9943,3.8922,3.6157,3.9291,4.2092,4.2092,4.1311,4.0702,4.0702,4.0702,4.0958,4.1578,4.1926,4.2092,4.2092,4.2092,4.1704,4.0744,4.0702,4.0702,4.0702,4.0702,4.0702,4.0702,4.028,4.0055,4.0041,3.7976,3.8074,4.0083,4.0505,3.9578,3.7597,3.7161,3.6978,3.6978,3.6822,3.635,3.575,3.6508,3.635,3.5669,3.5548,3.5018,3.4522,4.329,4.329,4.329,4.329,4.329,4.329,4.329,4.329,4.329,4.329,4.329,4.329,4.329,4.329,4.329,4.329,4.329,4.329,4.329,4.329,4.329,4.329,4.329,4.2032,3.9349,4.1908,4.3115,4.2739,4.056,3.9482,3.9482,3.9349,3.9305,3.9305,3.9305,3.9305,3.9305,3.9305,3.7665,3.5079,3.5079,3.4798,3.4397,3.4397,3.4397,3.4397,3.4397,3.5059,3.5871,3.575,3.571,3.571,3.571,3.571,3.571,3.571,3.571,3.571,3.571,3.7814,4.0153,4.0575,4.1396,4.1662,4.0039,3.8072,3.6428,3.5979,3.6468,3.7091,3.7428,3.6887,3.6212,3.5764,3.9291,4.2092,4.2092,4.1311,4.0702,4.0702,4.0702,4.043,3.9733,4.1142,4.2092,4.2092,4.2092,4.1704,4.0744,4.0702,4.0702,4.0702,4.0702,4.0702,4.0702,3.8566,3.7484,3.7484,3.7147,3.7161,3.7555,3.9718,4.0519,4.0083,3.792,3.6978,3.694,3.6191,3.579,3.571,3.5831,3.579,3.5588,3.4853,3.4481,3.4439,4.329,4.329,4.329,4.329,4.329,4.329,4.329,4.329,4.329,4.329,4.2019,4.1675,4.314,4.1989,4.169,4.317,4.329,4.329,4.329,4.329,4.329,4.329,4.329,4.2754,4.1576,4.124,4.1071,4.1071,3.9895,3.9305,3.9305,3.9305,3.9305,3.9305,3.9305,3.9305,3.9166,3.7337,3.5722,3.4397,3.4397,3.4397,3.4397,3.4397,3.4397,3.4397,3.4397,3.4647,3.5059,3.5548,3.571,3.571,3.571,3.571,3.571,3.571,3.6659,3.7845,3.8352,3.9564,4.0702,4.0702,4.0616,4.03,3.9482,3.8477,3.7845,3.838,3.881,3.8336,3.5981,3.6725,3.7718,3.7718,4.0195,4.1926,4.1396,4.0958,4.0702,4.0702,4.0702,4.0343,3.9394,4.0039,4.0958,4.2009,4.162,4.1128,4.0702,4.0702,4.0702,4.0702,4.0702,4.0702,4.0702,3.8229,3.6978,3.6978,3.6978,3.6978,3.7021,3.7631,3.8172,3.8566,3.7456,3.6705,3.623,3.5871,3.571,3.571,3.571,3.571,3.5629,3.5263,3.4812,3.4481]}]]